<?xml version="1.0" encoding="UTF-8" standalone="no" ?>
<gpx xmlns="http://www.topografix.com/GPX/1/1" xmlns:xsi="http://www.w3.org/2001/XMLSchema-instance" xsi:schemaLocation="http://www.topografix.com/GPX/1/1 http://www.topografix.com/GPX/1/1/gpx.xsd" version="1.1" creator="VisuGPX - https://www.visugpx.com">
  <metadata>
    <name>VTT - Vers Crest</name>
    <desc><![CDATA[La montée est vraiment pénible mais la descente est absolument géniale ;)]]></desc>
  </metadata>
  <trk>
    <name><![CDATA[22-AOU-16 16:24:40]]></name>
    <trkseg>
      <trkpt lat="44.73463" lon="5.01117">
        <ele>64.07</ele>
        <time>2016-08-22T12:10:33Z</time>
      </trkpt>
      <trkpt lat="44.73464" lon="5.01116">
        <ele>64.55</ele>
        <time>2016-08-22T12:10:34Z</time>
      </trkpt>
      <trkpt lat="44.73464" lon="5.01117">
        <ele>68.39</ele>
        <time>2016-08-22T12:10:57Z</time>
      </trkpt>
      <trkpt lat="44.73463" lon="5.01118">
        <ele>64.55</ele>
        <time>2016-08-22T12:11:03Z</time>
      </trkpt>
      <trkpt lat="44.73463" lon="5.01118">
        <ele>67.91</ele>
        <time>2016-08-22T12:11:04Z</time>
      </trkpt>
      <trkpt lat="44.73464" lon="5.01118">
        <ele>67.43</ele>
        <time>2016-08-22T12:11:25Z</time>
      </trkpt>
      <trkpt lat="44.73465" lon="5.01119">
        <ele>68.39</ele>
        <time>2016-08-22T12:11:29Z</time>
      </trkpt>
      <trkpt lat="44.73455" lon="5.01141">
        <ele>69.83</ele>
        <time>2016-08-22T12:11:38Z</time>
      </trkpt>
      <trkpt lat="44.73461" lon="5.01153">
        <ele>70.79</ele>
        <time>2016-08-22T12:11:42Z</time>
      </trkpt>
      <trkpt lat="44.73497" lon="5.01193">
        <ele>74.16</ele>
        <time>2016-08-22T12:11:58Z</time>
      </trkpt>
      <trkpt lat="44.73518" lon="5.01215">
        <ele>77.04</ele>
        <time>2016-08-22T12:12:07Z</time>
      </trkpt>
      <trkpt lat="44.73527" lon="5.01219">
        <ele>78.48</ele>
        <time>2016-08-22T12:12:11Z</time>
      </trkpt>
      <trkpt lat="44.73515" lon="5.0121">
        <ele>78</ele>
        <time>2016-08-22T12:12:18Z</time>
      </trkpt>
      <trkpt lat="44.73511" lon="5.01206">
        <ele>77.52</ele>
        <time>2016-08-22T12:12:19Z</time>
      </trkpt>
      <trkpt lat="44.73495" lon="5.01187">
        <ele>75.6</ele>
        <time>2016-08-22T12:12:23Z</time>
      </trkpt>
      <trkpt lat="44.73468" lon="5.01156">
        <ele>75.6</ele>
        <time>2016-08-22T12:12:29Z</time>
      </trkpt>
      <trkpt lat="44.7346" lon="5.01148">
        <ele>73.68</ele>
        <time>2016-08-22T12:12:31Z</time>
      </trkpt>
      <trkpt lat="44.73459" lon="5.01142">
        <ele>73.68</ele>
        <time>2016-08-22T12:12:32Z</time>
      </trkpt>
      <trkpt lat="44.7346" lon="5.01136">
        <ele>71.76</ele>
        <time>2016-08-22T12:12:33Z</time>
      </trkpt>
      <trkpt lat="44.73462" lon="5.01129">
        <ele>70.31</ele>
        <time>2016-08-22T12:12:34Z</time>
      </trkpt>
      <trkpt lat="44.73465" lon="5.01123">
        <ele>69.35</ele>
        <time>2016-08-22T12:12:35Z</time>
      </trkpt>
      <trkpt lat="44.73465" lon="5.01118">
        <ele>70.31</ele>
        <time>2016-08-22T12:12:36Z</time>
      </trkpt>
      <trkpt lat="44.73466" lon="5.01114">
        <ele>71.76</ele>
        <time>2016-08-22T12:12:37Z</time>
      </trkpt>
      <trkpt lat="44.73465" lon="5.01114">
        <ele>72.72</ele>
        <time>2016-08-22T12:12:39Z</time>
      </trkpt>
      <trkpt lat="44.73465" lon="5.01115">
        <ele>75.12</ele>
        <time>2016-08-22T12:13:07Z</time>
      </trkpt>
      <trkpt lat="44.73464" lon="5.01116">
        <ele>76.56</ele>
        <time>2016-08-22T12:13:39Z</time>
      </trkpt>
      <trkpt lat="44.73464" lon="5.01116">
        <ele>77.04</ele>
        <time>2016-08-22T12:13:45Z</time>
      </trkpt>
      <trkpt lat="44.73464" lon="5.01119">
        <ele>77.52</ele>
        <time>2016-08-22T12:13:53Z</time>
      </trkpt>
      <trkpt lat="44.73464" lon="5.01121">
        <ele>78</ele>
        <time>2016-08-22T12:13:54Z</time>
      </trkpt>
      <trkpt lat="44.73464" lon="5.01125">
        <ele>78.48</ele>
        <time>2016-08-22T12:13:55Z</time>
      </trkpt>
      <trkpt lat="44.73464" lon="5.01129">
        <ele>78.48</ele>
        <time>2016-08-22T12:13:56Z</time>
      </trkpt>
      <trkpt lat="44.73462" lon="5.01133">
        <ele>78</ele>
        <time>2016-08-22T12:13:57Z</time>
      </trkpt>
      <trkpt lat="44.7346" lon="5.01136">
        <ele>78.48</ele>
        <time>2016-08-22T12:13:58Z</time>
      </trkpt>
      <trkpt lat="44.73457" lon="5.01139">
        <ele>78.48</ele>
        <time>2016-08-22T12:13:59Z</time>
      </trkpt>
      <trkpt lat="44.73456" lon="5.01143">
        <ele>78.97</ele>
        <time>2016-08-22T12:14:00Z</time>
      </trkpt>
      <trkpt lat="44.73457" lon="5.01147">
        <ele>79.93</ele>
        <time>2016-08-22T12:14:01Z</time>
      </trkpt>
      <trkpt lat="44.73459" lon="5.0115">
        <ele>79.45</ele>
        <time>2016-08-22T12:14:02Z</time>
      </trkpt>
      <trkpt lat="44.73462" lon="5.01153">
        <ele>79.93</ele>
        <time>2016-08-22T12:14:03Z</time>
      </trkpt>
      <trkpt lat="44.73465" lon="5.01156">
        <ele>81.37</ele>
        <time>2016-08-22T12:14:04Z</time>
      </trkpt>
      <trkpt lat="44.73497" lon="5.0119">
        <ele>83.29</ele>
        <time>2016-08-22T12:14:17Z</time>
      </trkpt>
      <trkpt lat="44.73521" lon="5.01217">
        <ele>86.66</ele>
        <time>2016-08-22T12:14:27Z</time>
      </trkpt>
      <trkpt lat="44.73543" lon="5.01207">
        <ele>89.54</ele>
        <time>2016-08-22T12:14:35Z</time>
      </trkpt>
      <trkpt lat="44.73562" lon="5.01184">
        <ele>91.94</ele>
        <time>2016-08-22T12:14:44Z</time>
      </trkpt>
      <trkpt lat="44.73581" lon="5.01161">
        <ele>94.83</ele>
        <time>2016-08-22T12:14:53Z</time>
      </trkpt>
      <trkpt lat="44.73601" lon="5.01117">
        <ele>97.71</ele>
        <time>2016-08-22T12:15:06Z</time>
      </trkpt>
      <trkpt lat="44.73618" lon="5.01075">
        <ele>98.67</ele>
        <time>2016-08-22T12:15:16Z</time>
      </trkpt>
      <trkpt lat="44.7365" lon="5.01041">
        <ele>99.15</ele>
        <time>2016-08-22T12:15:27Z</time>
      </trkpt>
      <trkpt lat="44.73675" lon="5.01006">
        <ele>99.63</ele>
        <time>2016-08-22T12:15:37Z</time>
      </trkpt>
      <trkpt lat="44.73681" lon="5.01005">
        <ele>101.56</ele>
        <time>2016-08-22T12:15:39Z</time>
      </trkpt>
      <trkpt lat="44.73702" lon="5.01005">
        <ele>103.48</ele>
        <time>2016-08-22T12:15:46Z</time>
      </trkpt>
      <trkpt lat="44.7373" lon="5.01005">
        <ele>106.36</ele>
        <time>2016-08-22T12:15:54Z</time>
      </trkpt>
      <trkpt lat="44.73744" lon="5.00997">
        <ele>107.32</ele>
        <time>2016-08-22T12:15:59Z</time>
      </trkpt>
      <trkpt lat="44.73779" lon="5.00965">
        <ele>107.32</ele>
        <time>2016-08-22T12:16:12Z</time>
      </trkpt>
      <trkpt lat="44.73792" lon="5.00949">
        <ele>108.77</ele>
        <time>2016-08-22T12:16:17Z</time>
      </trkpt>
      <trkpt lat="44.73826" lon="5.00916">
        <ele>108.77</ele>
        <time>2016-08-22T12:16:27Z</time>
      </trkpt>
      <trkpt lat="44.73846" lon="5.0089">
        <ele>110.69</ele>
        <time>2016-08-22T12:16:33Z</time>
      </trkpt>
      <trkpt lat="44.73887" lon="5.00837">
        <ele>111.65</ele>
        <time>2016-08-22T12:16:47Z</time>
      </trkpt>
      <trkpt lat="44.73898" lon="5.00828">
        <ele>111.65</ele>
        <time>2016-08-22T12:16:51Z</time>
      </trkpt>
      <trkpt lat="44.73901" lon="5.00828">
        <ele>112.61</ele>
        <time>2016-08-22T12:16:52Z</time>
      </trkpt>
      <trkpt lat="44.73904" lon="5.0083">
        <ele>112.61</ele>
        <time>2016-08-22T12:16:53Z</time>
      </trkpt>
      <trkpt lat="44.73907" lon="5.00832">
        <ele>111.65</ele>
        <time>2016-08-22T12:16:54Z</time>
      </trkpt>
      <trkpt lat="44.73909" lon="5.00834">
        <ele>111.65</ele>
        <time>2016-08-22T12:16:55Z</time>
      </trkpt>
      <trkpt lat="44.73912" lon="5.00835">
        <ele>112.13</ele>
        <time>2016-08-22T12:16:56Z</time>
      </trkpt>
      <trkpt lat="44.73914" lon="5.00837">
        <ele>112.61</ele>
        <time>2016-08-22T12:16:57Z</time>
      </trkpt>
      <trkpt lat="44.73916" lon="5.00837">
        <ele>113.09</ele>
        <time>2016-08-22T12:16:58Z</time>
      </trkpt>
      <trkpt lat="44.73919" lon="5.00837">
        <ele>114.05</ele>
        <time>2016-08-22T12:16:59Z</time>
      </trkpt>
      <trkpt lat="44.73943" lon="5.00859">
        <ele>117.42</ele>
        <time>2016-08-22T12:17:10Z</time>
      </trkpt>
      <trkpt lat="44.73945" lon="5.00861">
        <ele>117.42</ele>
        <time>2016-08-22T12:17:11Z</time>
      </trkpt>
      <trkpt lat="44.73955" lon="5.0087">
        <ele>120.78</ele>
        <time>2016-08-22T12:17:16Z</time>
      </trkpt>
      <trkpt lat="44.73957" lon="5.00872">
        <ele>121.26</ele>
        <time>2016-08-22T12:17:17Z</time>
      </trkpt>
      <trkpt lat="44.73966" lon="5.00881">
        <ele>122.71</ele>
        <time>2016-08-22T12:17:21Z</time>
      </trkpt>
      <trkpt lat="44.73971" lon="5.00888">
        <ele>125.11</ele>
        <time>2016-08-22T12:17:25Z</time>
      </trkpt>
      <trkpt lat="44.73975" lon="5.0089">
        <ele>126.07</ele>
        <time>2016-08-22T12:17:27Z</time>
      </trkpt>
      <trkpt lat="44.73985" lon="5.00882">
        <ele>126.55</ele>
        <time>2016-08-22T12:17:33Z</time>
      </trkpt>
      <trkpt lat="44.74003" lon="5.00873">
        <ele>128.47</ele>
        <time>2016-08-22T12:17:41Z</time>
      </trkpt>
      <trkpt lat="44.74005" lon="5.00872">
        <ele>129.43</ele>
        <time>2016-08-22T12:17:42Z</time>
      </trkpt>
      <trkpt lat="44.7401" lon="5.00871">
        <ele>129.92</ele>
        <time>2016-08-22T12:17:44Z</time>
      </trkpt>
      <trkpt lat="44.74019" lon="5.0087">
        <ele>130.4</ele>
        <time>2016-08-22T12:17:48Z</time>
      </trkpt>
      <trkpt lat="44.74047" lon="5.0086">
        <ele>133.76</ele>
        <time>2016-08-22T12:18:01Z</time>
      </trkpt>
      <trkpt lat="44.74058" lon="5.00854">
        <ele>136.16</ele>
        <time>2016-08-22T12:18:09Z</time>
      </trkpt>
      <trkpt lat="44.74054" lon="5.00872">
        <ele>139.05</ele>
        <time>2016-08-22T12:18:21Z</time>
      </trkpt>
      <trkpt lat="44.74049" lon="5.00887">
        <ele>141.45</ele>
        <time>2016-08-22T12:18:30Z</time>
      </trkpt>
      <trkpt lat="44.74049" lon="5.00888">
        <ele>141.45</ele>
        <time>2016-08-22T12:18:31Z</time>
      </trkpt>
      <trkpt lat="44.74042" lon="5.00902">
        <ele>143.85</ele>
        <time>2016-08-22T12:18:38Z</time>
      </trkpt>
      <trkpt lat="44.74034" lon="5.00907">
        <ele>145.3</ele>
        <time>2016-08-22T12:18:43Z</time>
      </trkpt>
      <trkpt lat="44.74028" lon="5.0091">
        <ele>146.74</ele>
        <time>2016-08-22T12:18:48Z</time>
      </trkpt>
      <trkpt lat="44.74025" lon="5.00911">
        <ele>146.74</ele>
        <time>2016-08-22T12:18:50Z</time>
      </trkpt>
      <trkpt lat="44.7402" lon="5.00915">
        <ele>148.66</ele>
        <time>2016-08-22T12:18:54Z</time>
      </trkpt>
      <trkpt lat="44.7402" lon="5.00928">
        <ele>150.58</ele>
        <time>2016-08-22T12:18:59Z</time>
      </trkpt>
      <trkpt lat="44.74029" lon="5.0095">
        <ele>152.99</ele>
        <time>2016-08-22T12:19:12Z</time>
      </trkpt>
      <trkpt lat="44.74029" lon="5.00951">
        <ele>152.99</ele>
        <time>2016-08-22T12:19:13Z</time>
      </trkpt>
      <trkpt lat="44.74034" lon="5.00973">
        <ele>156.35</ele>
        <time>2016-08-22T12:19:24Z</time>
      </trkpt>
      <trkpt lat="44.74035" lon="5.00994">
        <ele>158.75</ele>
        <time>2016-08-22T12:19:34Z</time>
      </trkpt>
      <trkpt lat="44.74033" lon="5.01011">
        <ele>161.16</ele>
        <time>2016-08-22T12:19:43Z</time>
      </trkpt>
      <trkpt lat="44.74031" lon="5.01016">
        <ele>161.64</ele>
        <time>2016-08-22T12:19:46Z</time>
      </trkpt>
      <trkpt lat="44.74025" lon="5.0104">
        <ele>164.04</ele>
        <time>2016-08-22T12:19:58Z</time>
      </trkpt>
      <trkpt lat="44.74021" lon="5.0106">
        <ele>166.93</ele>
        <time>2016-08-22T12:20:09Z</time>
      </trkpt>
      <trkpt lat="44.7402" lon="5.01067">
        <ele>167.41</ele>
        <time>2016-08-22T12:20:13Z</time>
      </trkpt>
      <trkpt lat="44.74017" lon="5.01077">
        <ele>169.33</ele>
        <time>2016-08-22T12:20:20Z</time>
      </trkpt>
      <trkpt lat="44.74015" lon="5.01098">
        <ele>172.69</ele>
        <time>2016-08-22T12:20:30Z</time>
      </trkpt>
      <trkpt lat="44.74013" lon="5.01113">
        <ele>174.14</ele>
        <time>2016-08-22T12:20:38Z</time>
      </trkpt>
      <trkpt lat="44.74012" lon="5.01116">
        <ele>174.14</ele>
        <time>2016-08-22T12:20:39Z</time>
      </trkpt>
      <trkpt lat="44.74006" lon="5.01137">
        <ele>175.58</ele>
        <time>2016-08-22T12:20:49Z</time>
      </trkpt>
      <trkpt lat="44.74002" lon="5.01143">
        <ele>176.54</ele>
        <time>2016-08-22T12:20:53Z</time>
      </trkpt>
      <trkpt lat="44.74" lon="5.01151">
        <ele>178.46</ele>
        <time>2016-08-22T12:20:57Z</time>
      </trkpt>
      <trkpt lat="44.74006" lon="5.01182">
        <ele>178.94</ele>
        <time>2016-08-22T12:21:09Z</time>
      </trkpt>
      <trkpt lat="44.74015" lon="5.01219">
        <ele>180.38</ele>
        <time>2016-08-22T12:21:21Z</time>
      </trkpt>
      <trkpt lat="44.74018" lon="5.0123">
        <ele>180.38</ele>
        <time>2016-08-22T12:21:25Z</time>
      </trkpt>
      <trkpt lat="44.74028" lon="5.0126">
        <ele>183.75</ele>
        <time>2016-08-22T12:21:37Z</time>
      </trkpt>
      <trkpt lat="44.74029" lon="5.01284">
        <ele>186.15</ele>
        <time>2016-08-22T12:21:44Z</time>
      </trkpt>
      <trkpt lat="44.74022" lon="5.01331">
        <ele>189.04</ele>
        <time>2016-08-22T12:21:58Z</time>
      </trkpt>
      <trkpt lat="44.74017" lon="5.01399">
        <ele>188.56</ele>
        <time>2016-08-22T12:22:15Z</time>
      </trkpt>
      <trkpt lat="44.74015" lon="5.01425">
        <ele>189.52</ele>
        <time>2016-08-22T12:22:21Z</time>
      </trkpt>
      <trkpt lat="44.74016" lon="5.01493">
        <ele>190.48</ele>
        <time>2016-08-22T12:22:37Z</time>
      </trkpt>
      <trkpt lat="44.74021" lon="5.01499">
        <ele>189.52</ele>
        <time>2016-08-22T12:22:39Z</time>
      </trkpt>
      <trkpt lat="44.74071" lon="5.0154">
        <ele>189.04</ele>
        <time>2016-08-22T12:22:56Z</time>
      </trkpt>
      <trkpt lat="44.74104" lon="5.0155">
        <ele>189.04</ele>
        <time>2016-08-22T12:23:06Z</time>
      </trkpt>
      <trkpt lat="44.74103" lon="5.01566">
        <ele>191.92</ele>
        <time>2016-08-22T12:23:11Z</time>
      </trkpt>
      <trkpt lat="44.74065" lon="5.01623">
        <ele>194.8</ele>
        <time>2016-08-22T12:23:28Z</time>
      </trkpt>
      <trkpt lat="44.74027" lon="5.01687">
        <ele>196.73</ele>
        <time>2016-08-22T12:23:45Z</time>
      </trkpt>
      <trkpt lat="44.74013" lon="5.01719">
        <ele>196.73</ele>
        <time>2016-08-22T12:23:52Z</time>
      </trkpt>
      <trkpt lat="44.74012" lon="5.01725">
        <ele>198.17</ele>
        <time>2016-08-22T12:23:53Z</time>
      </trkpt>
      <trkpt lat="44.74012" lon="5.0173">
        <ele>197.69</ele>
        <time>2016-08-22T12:23:54Z</time>
      </trkpt>
      <trkpt lat="44.74013" lon="5.01736">
        <ele>196.73</ele>
        <time>2016-08-22T12:23:55Z</time>
      </trkpt>
      <trkpt lat="44.74013" lon="5.01741">
        <ele>196.25</ele>
        <time>2016-08-22T12:23:56Z</time>
      </trkpt>
      <trkpt lat="44.74015" lon="5.01747">
        <ele>196.25</ele>
        <time>2016-08-22T12:23:57Z</time>
      </trkpt>
      <trkpt lat="44.74016" lon="5.01752">
        <ele>196.25</ele>
        <time>2016-08-22T12:23:58Z</time>
      </trkpt>
      <trkpt lat="44.74038" lon="5.01821">
        <ele>198.17</ele>
        <time>2016-08-22T12:24:12Z</time>
      </trkpt>
      <trkpt lat="44.74045" lon="5.01848">
        <ele>198.17</ele>
        <time>2016-08-22T12:24:17Z</time>
      </trkpt>
      <trkpt lat="44.74055" lon="5.01887">
        <ele>198.65</ele>
        <time>2016-08-22T12:24:24Z</time>
      </trkpt>
      <trkpt lat="44.74057" lon="5.01892">
        <ele>197.69</ele>
        <time>2016-08-22T12:24:25Z</time>
      </trkpt>
      <trkpt lat="44.74059" lon="5.01897">
        <ele>199.13</ele>
        <time>2016-08-22T12:24:26Z</time>
      </trkpt>
      <trkpt lat="44.74063" lon="5.01906">
        <ele>199.61</ele>
        <time>2016-08-22T12:24:28Z</time>
      </trkpt>
      <trkpt lat="44.74073" lon="5.01937">
        <ele>198.17</ele>
        <time>2016-08-22T12:24:34Z</time>
      </trkpt>
      <trkpt lat="44.74084" lon="5.01963">
        <ele>199.61</ele>
        <time>2016-08-22T12:24:39Z</time>
      </trkpt>
      <trkpt lat="44.74099" lon="5.02001">
        <ele>198.65</ele>
        <time>2016-08-22T12:24:46Z</time>
      </trkpt>
      <trkpt lat="44.74125" lon="5.02063">
        <ele>199.61</ele>
        <time>2016-08-22T12:24:58Z</time>
      </trkpt>
      <trkpt lat="44.74154" lon="5.02132">
        <ele>202.98</ele>
        <time>2016-08-22T12:25:13Z</time>
      </trkpt>
      <trkpt lat="44.74167" lon="5.02145">
        <ele>204.42</ele>
        <time>2016-08-22T12:25:18Z</time>
      </trkpt>
      <trkpt lat="44.742" lon="5.02186">
        <ele>207.3</ele>
        <time>2016-08-22T12:25:33Z</time>
      </trkpt>
      <trkpt lat="44.74201" lon="5.0219">
        <ele>207.78</ele>
        <time>2016-08-22T12:25:34Z</time>
      </trkpt>
      <trkpt lat="44.74201" lon="5.02194">
        <ele>208.74</ele>
        <time>2016-08-22T12:25:35Z</time>
      </trkpt>
      <trkpt lat="44.742" lon="5.02198">
        <ele>207.78</ele>
        <time>2016-08-22T12:25:36Z</time>
      </trkpt>
      <trkpt lat="44.74198" lon="5.02202">
        <ele>207.78</ele>
        <time>2016-08-22T12:25:37Z</time>
      </trkpt>
      <trkpt lat="44.74195" lon="5.02206">
        <ele>208.26</ele>
        <time>2016-08-22T12:25:38Z</time>
      </trkpt>
      <trkpt lat="44.74169" lon="5.02235">
        <ele>205.38</ele>
        <time>2016-08-22T12:25:44Z</time>
      </trkpt>
      <trkpt lat="44.74159" lon="5.02247">
        <ele>204.42</ele>
        <time>2016-08-22T12:25:46Z</time>
      </trkpt>
      <trkpt lat="44.74155" lon="5.02254">
        <ele>203.94</ele>
        <time>2016-08-22T12:25:47Z</time>
      </trkpt>
      <trkpt lat="44.74153" lon="5.02262">
        <ele>202.98</ele>
        <time>2016-08-22T12:25:48Z</time>
      </trkpt>
      <trkpt lat="44.74153" lon="5.0227">
        <ele>202.98</ele>
        <time>2016-08-22T12:25:49Z</time>
      </trkpt>
      <trkpt lat="44.74153" lon="5.02277">
        <ele>203.94</ele>
        <time>2016-08-22T12:25:50Z</time>
      </trkpt>
      <trkpt lat="44.74157" lon="5.02298">
        <ele>206.82</ele>
        <time>2016-08-22T12:25:54Z</time>
      </trkpt>
      <trkpt lat="44.74162" lon="5.02342">
        <ele>209.7</ele>
        <time>2016-08-22T12:26:05Z</time>
      </trkpt>
      <trkpt lat="44.74159" lon="5.02376">
        <ele>211.15</ele>
        <time>2016-08-22T12:26:19Z</time>
      </trkpt>
      <trkpt lat="44.74159" lon="5.02376">
        <ele>212.59</ele>
        <time>2016-08-22T12:26:29Z</time>
      </trkpt>
      <trkpt lat="44.74158" lon="5.02378">
        <ele>212.59</ele>
        <time>2016-08-22T12:26:31Z</time>
      </trkpt>
      <trkpt lat="44.74151" lon="5.02407">
        <ele>214.03</ele>
        <time>2016-08-22T12:26:41Z</time>
      </trkpt>
      <trkpt lat="44.74142" lon="5.02444">
        <ele>217.4</ele>
        <time>2016-08-22T12:26:52Z</time>
      </trkpt>
      <trkpt lat="44.74131" lon="5.0249">
        <ele>220.28</ele>
        <time>2016-08-22T12:27:05Z</time>
      </trkpt>
      <trkpt lat="44.74126" lon="5.02533">
        <ele>223.16</ele>
        <time>2016-08-22T12:27:17Z</time>
      </trkpt>
      <trkpt lat="44.7412" lon="5.02591">
        <ele>226.53</ele>
        <time>2016-08-22T12:27:32Z</time>
      </trkpt>
      <trkpt lat="44.74119" lon="5.02603">
        <ele>227.97</ele>
        <time>2016-08-22T12:27:35Z</time>
      </trkpt>
      <trkpt lat="44.74119" lon="5.0261">
        <ele>229.41</ele>
        <time>2016-08-22T12:27:37Z</time>
      </trkpt>
      <trkpt lat="44.74114" lon="5.02659">
        <ele>229.89</ele>
        <time>2016-08-22T12:27:50Z</time>
      </trkpt>
      <trkpt lat="44.74114" lon="5.02691">
        <ele>231.81</ele>
        <time>2016-08-22T12:27:59Z</time>
      </trkpt>
      <trkpt lat="44.74117" lon="5.02704">
        <ele>232.3</ele>
        <time>2016-08-22T12:28:03Z</time>
      </trkpt>
      <trkpt lat="44.74118" lon="5.02707">
        <ele>232.3</ele>
        <time>2016-08-22T12:28:04Z</time>
      </trkpt>
      <trkpt lat="44.7412" lon="5.0271">
        <ele>232.3</ele>
        <time>2016-08-22T12:28:05Z</time>
      </trkpt>
      <trkpt lat="44.74123" lon="5.02712">
        <ele>232.3</ele>
        <time>2016-08-22T12:28:06Z</time>
      </trkpt>
      <trkpt lat="44.74125" lon="5.02714">
        <ele>232.78</ele>
        <time>2016-08-22T12:28:07Z</time>
      </trkpt>
      <trkpt lat="44.74127" lon="5.02716">
        <ele>233.26</ele>
        <time>2016-08-22T12:28:08Z</time>
      </trkpt>
      <trkpt lat="44.7413" lon="5.02718">
        <ele>232.78</ele>
        <time>2016-08-22T12:28:09Z</time>
      </trkpt>
      <trkpt lat="44.74152" lon="5.02727">
        <ele>231.81</ele>
        <time>2016-08-22T12:28:18Z</time>
      </trkpt>
      <trkpt lat="44.74168" lon="5.02734">
        <ele>234.22</ele>
        <time>2016-08-22T12:28:24Z</time>
      </trkpt>
      <trkpt lat="44.74194" lon="5.02744">
        <ele>233.74</ele>
        <time>2016-08-22T12:28:33Z</time>
      </trkpt>
      <trkpt lat="44.742" lon="5.02747">
        <ele>235.66</ele>
        <time>2016-08-22T12:28:35Z</time>
      </trkpt>
      <trkpt lat="44.7422" lon="5.02754">
        <ele>236.62</ele>
        <time>2016-08-22T12:28:42Z</time>
      </trkpt>
      <trkpt lat="44.74261" lon="5.02766">
        <ele>236.62</ele>
        <time>2016-08-22T12:28:56Z</time>
      </trkpt>
      <trkpt lat="44.74267" lon="5.02767">
        <ele>235.18</ele>
        <time>2016-08-22T12:28:58Z</time>
      </trkpt>
      <trkpt lat="44.74308" lon="5.02778">
        <ele>238.54</ele>
        <time>2016-08-22T12:29:12Z</time>
      </trkpt>
      <trkpt lat="44.74342" lon="5.02787">
        <ele>237.58</ele>
        <time>2016-08-22T12:29:23Z</time>
      </trkpt>
      <trkpt lat="44.74361" lon="5.02792">
        <ele>240.95</ele>
        <time>2016-08-22T12:29:30Z</time>
      </trkpt>
      <trkpt lat="44.74398" lon="5.02804">
        <ele>241.91</ele>
        <time>2016-08-22T12:29:42Z</time>
      </trkpt>
      <trkpt lat="44.74413" lon="5.0281">
        <ele>240.95</ele>
        <time>2016-08-22T12:29:47Z</time>
      </trkpt>
      <trkpt lat="44.74424" lon="5.02816">
        <ele>239.02</ele>
        <time>2016-08-22T12:29:51Z</time>
      </trkpt>
      <trkpt lat="44.74437" lon="5.02824">
        <ele>240.95</ele>
        <time>2016-08-22T12:29:56Z</time>
      </trkpt>
      <trkpt lat="44.74442" lon="5.02826">
        <ele>239.99</ele>
        <time>2016-08-22T12:29:58Z</time>
      </trkpt>
      <trkpt lat="44.74447" lon="5.02829">
        <ele>242.87</ele>
        <time>2016-08-22T12:30:00Z</time>
      </trkpt>
      <trkpt lat="44.74474" lon="5.0285">
        <ele>242.39</ele>
        <time>2016-08-22T12:30:12Z</time>
      </trkpt>
      <trkpt lat="44.74495" lon="5.02868">
        <ele>245.75</ele>
        <time>2016-08-22T12:30:21Z</time>
      </trkpt>
      <trkpt lat="44.74525" lon="5.02884">
        <ele>247.2</ele>
        <time>2016-08-22T12:30:32Z</time>
      </trkpt>
      <trkpt lat="44.74564" lon="5.02913">
        <ele>248.16</ele>
        <time>2016-08-22T12:30:46Z</time>
      </trkpt>
      <trkpt lat="44.74575" lon="5.02929">
        <ele>244.79</ele>
        <time>2016-08-22T12:30:54Z</time>
      </trkpt>
      <trkpt lat="44.74575" lon="5.02929">
        <ele>251.04</ele>
        <time>2016-08-22T12:30:55Z</time>
      </trkpt>
      <trkpt lat="44.74575" lon="5.02929">
        <ele>251.04</ele>
        <time>2016-08-22T12:30:56Z</time>
      </trkpt>
      <trkpt lat="44.74575" lon="5.02929">
        <ele>249.6</ele>
        <time>2016-08-22T12:30:59Z</time>
      </trkpt>
      <trkpt lat="44.74576" lon="5.02929">
        <ele>249.12</ele>
        <time>2016-08-22T12:31:00Z</time>
      </trkpt>
      <trkpt lat="44.74578" lon="5.0293">
        <ele>249.12</ele>
        <time>2016-08-22T12:31:01Z</time>
      </trkpt>
      <trkpt lat="44.74581" lon="5.02931">
        <ele>249.12</ele>
        <time>2016-08-22T12:31:02Z</time>
      </trkpt>
      <trkpt lat="44.74622" lon="5.02938">
        <ele>250.56</ele>
        <time>2016-08-22T12:31:13Z</time>
      </trkpt>
      <trkpt lat="44.74634" lon="5.02944">
        <ele>250.08</ele>
        <time>2016-08-22T12:31:16Z</time>
      </trkpt>
      <trkpt lat="44.74643" lon="5.02951">
        <ele>249.12</ele>
        <time>2016-08-22T12:31:18Z</time>
      </trkpt>
      <trkpt lat="44.74653" lon="5.02958">
        <ele>248.64</ele>
        <time>2016-08-22T12:31:20Z</time>
      </trkpt>
      <trkpt lat="44.74659" lon="5.02961">
        <ele>248.16</ele>
        <time>2016-08-22T12:31:21Z</time>
      </trkpt>
      <trkpt lat="44.74665" lon="5.02963">
        <ele>247.68</ele>
        <time>2016-08-22T12:31:22Z</time>
      </trkpt>
      <trkpt lat="44.7469" lon="5.02969">
        <ele>245.27</ele>
        <time>2016-08-22T12:31:26Z</time>
      </trkpt>
      <trkpt lat="44.74696" lon="5.02971">
        <ele>245.27</ele>
        <time>2016-08-22T12:31:27Z</time>
      </trkpt>
      <trkpt lat="44.74708" lon="5.02974">
        <ele>245.27</ele>
        <time>2016-08-22T12:31:29Z</time>
      </trkpt>
      <trkpt lat="44.74724" lon="5.02982">
        <ele>245.27</ele>
        <time>2016-08-22T12:31:32Z</time>
      </trkpt>
      <trkpt lat="44.74729" lon="5.02987">
        <ele>245.27</ele>
        <time>2016-08-22T12:31:33Z</time>
      </trkpt>
      <trkpt lat="44.74733" lon="5.02993">
        <ele>245.27</ele>
        <time>2016-08-22T12:31:34Z</time>
      </trkpt>
      <trkpt lat="44.74736" lon="5.03002">
        <ele>245.27</ele>
        <time>2016-08-22T12:31:35Z</time>
      </trkpt>
      <trkpt lat="44.74739" lon="5.03012">
        <ele>245.27</ele>
        <time>2016-08-22T12:31:36Z</time>
      </trkpt>
      <trkpt lat="44.74741" lon="5.03023">
        <ele>245.27</ele>
        <time>2016-08-22T12:31:37Z</time>
      </trkpt>
      <trkpt lat="44.74749" lon="5.03062">
        <ele>243.35</ele>
        <time>2016-08-22T12:31:41Z</time>
      </trkpt>
      <trkpt lat="44.74751" lon="5.03072">
        <ele>242.87</ele>
        <time>2016-08-22T12:31:42Z</time>
      </trkpt>
      <trkpt lat="44.74757" lon="5.03093">
        <ele>242.39</ele>
        <time>2016-08-22T12:31:44Z</time>
      </trkpt>
      <trkpt lat="44.74765" lon="5.03111">
        <ele>241.91</ele>
        <time>2016-08-22T12:31:46Z</time>
      </trkpt>
      <trkpt lat="44.7477" lon="5.03116">
        <ele>242.39</ele>
        <time>2016-08-22T12:31:47Z</time>
      </trkpt>
      <trkpt lat="44.74774" lon="5.03118">
        <ele>242.39</ele>
        <time>2016-08-22T12:31:48Z</time>
      </trkpt>
      <trkpt lat="44.74783" lon="5.03115">
        <ele>242.39</ele>
        <time>2016-08-22T12:31:50Z</time>
      </trkpt>
      <trkpt lat="44.74787" lon="5.03112">
        <ele>242.39</ele>
        <time>2016-08-22T12:31:51Z</time>
      </trkpt>
      <trkpt lat="44.74807" lon="5.03089">
        <ele>244.79</ele>
        <time>2016-08-22T12:31:57Z</time>
      </trkpt>
      <trkpt lat="44.74834" lon="5.03054">
        <ele>246.23</ele>
        <time>2016-08-22T12:32:07Z</time>
      </trkpt>
      <trkpt lat="44.74891" lon="5.03025">
        <ele>244.79</ele>
        <time>2016-08-22T12:32:19Z</time>
      </trkpt>
      <trkpt lat="44.74962" lon="5.03005">
        <ele>245.27</ele>
        <time>2016-08-22T12:32:33Z</time>
      </trkpt>
      <trkpt lat="44.74983" lon="5.03004">
        <ele>243.83</ele>
        <time>2016-08-22T12:32:37Z</time>
      </trkpt>
      <trkpt lat="44.75018" lon="5.03005">
        <ele>244.31</ele>
        <time>2016-08-22T12:32:44Z</time>
      </trkpt>
      <trkpt lat="44.75038" lon="5.03007">
        <ele>243.83</ele>
        <time>2016-08-22T12:32:48Z</time>
      </trkpt>
      <trkpt lat="44.75043" lon="5.03006">
        <ele>244.31</ele>
        <time>2016-08-22T12:32:49Z</time>
      </trkpt>
      <trkpt lat="44.75103" lon="5.02992">
        <ele>245.27</ele>
        <time>2016-08-22T12:33:02Z</time>
      </trkpt>
      <trkpt lat="44.75136" lon="5.02992">
        <ele>247.2</ele>
        <time>2016-08-22T12:33:10Z</time>
      </trkpt>
      <trkpt lat="44.7514" lon="5.02993">
        <ele>247.2</ele>
        <time>2016-08-22T12:33:11Z</time>
      </trkpt>
      <trkpt lat="44.75143" lon="5.02996">
        <ele>247.2</ele>
        <time>2016-08-22T12:33:12Z</time>
      </trkpt>
      <trkpt lat="44.75195" lon="5.03015">
        <ele>246.72</ele>
        <time>2016-08-22T12:33:23Z</time>
      </trkpt>
      <trkpt lat="44.752" lon="5.03014">
        <ele>247.2</ele>
        <time>2016-08-22T12:33:24Z</time>
      </trkpt>
      <trkpt lat="44.75205" lon="5.03013">
        <ele>246.72</ele>
        <time>2016-08-22T12:33:25Z</time>
      </trkpt>
      <trkpt lat="44.75231" lon="5.03008">
        <ele>247.68</ele>
        <time>2016-08-22T12:33:31Z</time>
      </trkpt>
      <trkpt lat="44.75245" lon="5.03011">
        <ele>248.64</ele>
        <time>2016-08-22T12:33:35Z</time>
      </trkpt>
      <trkpt lat="44.75267" lon="5.03016">
        <ele>248.16</ele>
        <time>2016-08-22T12:33:40Z</time>
      </trkpt>
      <trkpt lat="44.75295" lon="5.03022">
        <ele>245.75</ele>
        <time>2016-08-22T12:33:45Z</time>
      </trkpt>
      <trkpt lat="44.75373" lon="5.03037">
        <ele>244.31</ele>
        <time>2016-08-22T12:33:58Z</time>
      </trkpt>
      <trkpt lat="44.75395" lon="5.0304">
        <ele>245.75</ele>
        <time>2016-08-22T12:34:02Z</time>
      </trkpt>
      <trkpt lat="44.75422" lon="5.03045">
        <ele>246.72</ele>
        <time>2016-08-22T12:34:08Z</time>
      </trkpt>
      <trkpt lat="44.75427" lon="5.03045">
        <ele>246.23</ele>
        <time>2016-08-22T12:34:09Z</time>
      </trkpt>
      <trkpt lat="44.75433" lon="5.03045">
        <ele>246.23</ele>
        <time>2016-08-22T12:34:10Z</time>
      </trkpt>
      <trkpt lat="44.75477" lon="5.03047">
        <ele>242.87</ele>
        <time>2016-08-22T12:34:17Z</time>
      </trkpt>
      <trkpt lat="44.75508" lon="5.03046">
        <ele>239.02</ele>
        <time>2016-08-22T12:34:21Z</time>
      </trkpt>
      <trkpt lat="44.75534" lon="5.03044">
        <ele>234.7</ele>
        <time>2016-08-22T12:34:24Z</time>
      </trkpt>
      <trkpt lat="44.75565" lon="5.03042">
        <ele>234.22</ele>
        <time>2016-08-22T12:34:28Z</time>
      </trkpt>
      <trkpt lat="44.75639" lon="5.03042">
        <ele>230.85</ele>
        <time>2016-08-22T12:34:40Z</time>
      </trkpt>
      <trkpt lat="44.75653" lon="5.03042">
        <ele>227.49</ele>
        <time>2016-08-22T12:34:42Z</time>
      </trkpt>
      <trkpt lat="44.7566" lon="5.03042">
        <ele>226.53</ele>
        <time>2016-08-22T12:34:43Z</time>
      </trkpt>
      <trkpt lat="44.75667" lon="5.03042">
        <ele>226.05</ele>
        <time>2016-08-22T12:34:44Z</time>
      </trkpt>
      <trkpt lat="44.7569" lon="5.03042">
        <ele>226.53</ele>
        <time>2016-08-22T12:34:47Z</time>
      </trkpt>
      <trkpt lat="44.75697" lon="5.03044">
        <ele>226.05</ele>
        <time>2016-08-22T12:34:48Z</time>
      </trkpt>
      <trkpt lat="44.75723" lon="5.03054">
        <ele>223.16</ele>
        <time>2016-08-22T12:34:52Z</time>
      </trkpt>
      <trkpt lat="44.75729" lon="5.03057">
        <ele>223.16</ele>
        <time>2016-08-22T12:34:53Z</time>
      </trkpt>
      <trkpt lat="44.7574" lon="5.0306">
        <ele>226.53</ele>
        <time>2016-08-22T12:34:55Z</time>
      </trkpt>
      <trkpt lat="44.75745" lon="5.03062">
        <ele>225.57</ele>
        <time>2016-08-22T12:34:56Z</time>
      </trkpt>
      <trkpt lat="44.75805" lon="5.03085">
        <ele>227.01</ele>
        <time>2016-08-22T12:35:07Z</time>
      </trkpt>
      <trkpt lat="44.75882" lon="5.03114">
        <ele>225.57</ele>
        <time>2016-08-22T12:35:22Z</time>
      </trkpt>
      <trkpt lat="44.75931" lon="5.03133">
        <ele>222.2</ele>
        <time>2016-08-22T12:35:31Z</time>
      </trkpt>
      <trkpt lat="44.75937" lon="5.03135">
        <ele>222.68</ele>
        <time>2016-08-22T12:35:32Z</time>
      </trkpt>
      <trkpt lat="44.75961" lon="5.03143">
        <ele>222.2</ele>
        <time>2016-08-22T12:35:36Z</time>
      </trkpt>
      <trkpt lat="44.75978" lon="5.03141">
        <ele>222.2</ele>
        <time>2016-08-22T12:35:40Z</time>
      </trkpt>
      <trkpt lat="44.7598" lon="5.03139">
        <ele>222.68</ele>
        <time>2016-08-22T12:35:42Z</time>
      </trkpt>
      <trkpt lat="44.75982" lon="5.03139">
        <ele>222.68</ele>
        <time>2016-08-22T12:35:43Z</time>
      </trkpt>
      <trkpt lat="44.75984" lon="5.03139">
        <ele>222.68</ele>
        <time>2016-08-22T12:35:44Z</time>
      </trkpt>
      <trkpt lat="44.75986" lon="5.03139">
        <ele>222.68</ele>
        <time>2016-08-22T12:35:45Z</time>
      </trkpt>
      <trkpt lat="44.75989" lon="5.03139">
        <ele>222.2</ele>
        <time>2016-08-22T12:35:46Z</time>
      </trkpt>
      <trkpt lat="44.76006" lon="5.03138">
        <ele>221.24</ele>
        <time>2016-08-22T12:35:50Z</time>
      </trkpt>
      <trkpt lat="44.76016" lon="5.03137">
        <ele>219.8</ele>
        <time>2016-08-22T12:35:52Z</time>
      </trkpt>
      <trkpt lat="44.7602" lon="5.03137">
        <ele>219.32</ele>
        <time>2016-08-22T12:35:53Z</time>
      </trkpt>
      <trkpt lat="44.76039" lon="5.03138">
        <ele>218.84</ele>
        <time>2016-08-22T12:35:57Z</time>
      </trkpt>
      <trkpt lat="44.76066" lon="5.03141">
        <ele>219.8</ele>
        <time>2016-08-22T12:36:02Z</time>
      </trkpt>
      <trkpt lat="44.76133" lon="5.03155">
        <ele>222.2</ele>
        <time>2016-08-22T12:36:15Z</time>
      </trkpt>
      <trkpt lat="44.76137" lon="5.03156">
        <ele>222.2</ele>
        <time>2016-08-22T12:36:16Z</time>
      </trkpt>
      <trkpt lat="44.76181" lon="5.0317">
        <ele>224.61</ele>
        <time>2016-08-22T12:36:29Z</time>
      </trkpt>
      <trkpt lat="44.76184" lon="5.03172">
        <ele>225.09</ele>
        <time>2016-08-22T12:36:30Z</time>
      </trkpt>
      <trkpt lat="44.76206" lon="5.0318">
        <ele>228.45</ele>
        <time>2016-08-22T12:36:38Z</time>
      </trkpt>
      <trkpt lat="44.76214" lon="5.03184">
        <ele>232.3</ele>
        <time>2016-08-22T12:36:41Z</time>
      </trkpt>
      <trkpt lat="44.76217" lon="5.03185">
        <ele>232.3</ele>
        <time>2016-08-22T12:36:42Z</time>
      </trkpt>
      <trkpt lat="44.76222" lon="5.03187">
        <ele>229.89</ele>
        <time>2016-08-22T12:36:44Z</time>
      </trkpt>
      <trkpt lat="44.76247" lon="5.03199">
        <ele>233.74</ele>
        <time>2016-08-22T12:36:54Z</time>
      </trkpt>
      <trkpt lat="44.76249" lon="5.03201">
        <ele>233.74</ele>
        <time>2016-08-22T12:36:55Z</time>
      </trkpt>
      <trkpt lat="44.76296" lon="5.03236">
        <ele>232.3</ele>
        <time>2016-08-22T12:37:11Z</time>
      </trkpt>
      <trkpt lat="44.76328" lon="5.03265">
        <ele>229.41</ele>
        <time>2016-08-22T12:37:20Z</time>
      </trkpt>
      <trkpt lat="44.76382" lon="5.03308">
        <ele>228.45</ele>
        <time>2016-08-22T12:37:35Z</time>
      </trkpt>
      <trkpt lat="44.76393" lon="5.03313">
        <ele>228.93</ele>
        <time>2016-08-22T12:37:39Z</time>
      </trkpt>
      <trkpt lat="44.76417" lon="5.03335">
        <ele>232.78</ele>
        <time>2016-08-22T12:37:50Z</time>
      </trkpt>
      <trkpt lat="44.7642" lon="5.03339">
        <ele>233.74</ele>
        <time>2016-08-22T12:37:52Z</time>
      </trkpt>
      <trkpt lat="44.76456" lon="5.03351">
        <ele>231.81</ele>
        <time>2016-08-22T12:38:04Z</time>
      </trkpt>
      <trkpt lat="44.76472" lon="5.0336">
        <ele>231.81</ele>
        <time>2016-08-22T12:38:08Z</time>
      </trkpt>
      <trkpt lat="44.76502" lon="5.03377">
        <ele>229.41</ele>
        <time>2016-08-22T12:38:16Z</time>
      </trkpt>
      <trkpt lat="44.76507" lon="5.03377">
        <ele>228.93</ele>
        <time>2016-08-22T12:38:17Z</time>
      </trkpt>
      <trkpt lat="44.76517" lon="5.03379">
        <ele>229.41</ele>
        <time>2016-08-22T12:38:19Z</time>
      </trkpt>
      <trkpt lat="44.76562" lon="5.03393">
        <ele>226.05</ele>
        <time>2016-08-22T12:38:27Z</time>
      </trkpt>
      <trkpt lat="44.7658" lon="5.03398">
        <ele>223.16</ele>
        <time>2016-08-22T12:38:30Z</time>
      </trkpt>
      <trkpt lat="44.76586" lon="5.03399">
        <ele>223.16</ele>
        <time>2016-08-22T12:38:31Z</time>
      </trkpt>
      <trkpt lat="44.76624" lon="5.03404">
        <ele>219.8</ele>
        <time>2016-08-22T12:38:37Z</time>
      </trkpt>
      <trkpt lat="44.76647" lon="5.03407">
        <ele>217.88</ele>
        <time>2016-08-22T12:38:41Z</time>
      </trkpt>
      <trkpt lat="44.76653" lon="5.03406">
        <ele>217.88</ele>
        <time>2016-08-22T12:38:42Z</time>
      </trkpt>
      <trkpt lat="44.76658" lon="5.03403">
        <ele>218.36</ele>
        <time>2016-08-22T12:38:43Z</time>
      </trkpt>
      <trkpt lat="44.76685" lon="5.03381">
        <ele>216.43</ele>
        <time>2016-08-22T12:38:48Z</time>
      </trkpt>
      <trkpt lat="44.76702" lon="5.03362">
        <ele>219.8</ele>
        <time>2016-08-22T12:38:53Z</time>
      </trkpt>
      <trkpt lat="44.76705" lon="5.0336">
        <ele>219.8</ele>
        <time>2016-08-22T12:38:54Z</time>
      </trkpt>
      <trkpt lat="44.7672" lon="5.03346">
        <ele>223.16</ele>
        <time>2016-08-22T12:39:01Z</time>
      </trkpt>
      <trkpt lat="44.76735" lon="5.03336">
        <ele>226.53</ele>
        <time>2016-08-22T12:39:10Z</time>
      </trkpt>
      <trkpt lat="44.76748" lon="5.03327">
        <ele>229.89</ele>
        <time>2016-08-22T12:39:17Z</time>
      </trkpt>
      <trkpt lat="44.76764" lon="5.03315">
        <ele>231.81</ele>
        <time>2016-08-22T12:39:27Z</time>
      </trkpt>
      <trkpt lat="44.76769" lon="5.03314">
        <ele>233.26</ele>
        <time>2016-08-22T12:39:30Z</time>
      </trkpt>
      <trkpt lat="44.76771" lon="5.03315">
        <ele>233.74</ele>
        <time>2016-08-22T12:39:31Z</time>
      </trkpt>
      <trkpt lat="44.76772" lon="5.03317">
        <ele>234.22</ele>
        <time>2016-08-22T12:39:32Z</time>
      </trkpt>
      <trkpt lat="44.76772" lon="5.0332">
        <ele>234.7</ele>
        <time>2016-08-22T12:39:33Z</time>
      </trkpt>
      <trkpt lat="44.76772" lon="5.03322">
        <ele>235.18</ele>
        <time>2016-08-22T12:39:34Z</time>
      </trkpt>
      <trkpt lat="44.76771" lon="5.03325">
        <ele>235.66</ele>
        <time>2016-08-22T12:39:35Z</time>
      </trkpt>
      <trkpt lat="44.7677" lon="5.03327">
        <ele>235.18</ele>
        <time>2016-08-22T12:39:36Z</time>
      </trkpt>
      <trkpt lat="44.76767" lon="5.03363">
        <ele>236.14</ele>
        <time>2016-08-22T12:39:49Z</time>
      </trkpt>
      <trkpt lat="44.7677" lon="5.03383">
        <ele>236.62</ele>
        <time>2016-08-22T12:39:56Z</time>
      </trkpt>
      <trkpt lat="44.7677" lon="5.03386">
        <ele>236.62</ele>
        <time>2016-08-22T12:39:57Z</time>
      </trkpt>
      <trkpt lat="44.76782" lon="5.03417">
        <ele>236.62</ele>
        <time>2016-08-22T12:40:07Z</time>
      </trkpt>
      <trkpt lat="44.76784" lon="5.0342">
        <ele>236.62</ele>
        <time>2016-08-22T12:40:08Z</time>
      </trkpt>
      <trkpt lat="44.76785" lon="5.03423">
        <ele>237.1</ele>
        <time>2016-08-22T12:40:09Z</time>
      </trkpt>
      <trkpt lat="44.76786" lon="5.03427">
        <ele>236.62</ele>
        <time>2016-08-22T12:40:10Z</time>
      </trkpt>
      <trkpt lat="44.76787" lon="5.0343">
        <ele>236.62</ele>
        <time>2016-08-22T12:40:11Z</time>
      </trkpt>
      <trkpt lat="44.76789" lon="5.03434">
        <ele>236.62</ele>
        <time>2016-08-22T12:40:12Z</time>
      </trkpt>
      <trkpt lat="44.76789" lon="5.03439">
        <ele>236.62</ele>
        <time>2016-08-22T12:40:13Z</time>
      </trkpt>
      <trkpt lat="44.76789" lon="5.03443">
        <ele>236.14</ele>
        <time>2016-08-22T12:40:14Z</time>
      </trkpt>
      <trkpt lat="44.76789" lon="5.03448">
        <ele>236.14</ele>
        <time>2016-08-22T12:40:15Z</time>
      </trkpt>
      <trkpt lat="44.76791" lon="5.03452">
        <ele>236.62</ele>
        <time>2016-08-22T12:40:16Z</time>
      </trkpt>
      <trkpt lat="44.76793" lon="5.03456">
        <ele>236.14</ele>
        <time>2016-08-22T12:40:17Z</time>
      </trkpt>
      <trkpt lat="44.76795" lon="5.03461">
        <ele>236.14</ele>
        <time>2016-08-22T12:40:18Z</time>
      </trkpt>
      <trkpt lat="44.76805" lon="5.03483">
        <ele>235.18</ele>
        <time>2016-08-22T12:40:22Z</time>
      </trkpt>
      <trkpt lat="44.76809" lon="5.03489">
        <ele>234.7</ele>
        <time>2016-08-22T12:40:23Z</time>
      </trkpt>
      <trkpt lat="44.76812" lon="5.03495">
        <ele>234.22</ele>
        <time>2016-08-22T12:40:24Z</time>
      </trkpt>
      <trkpt lat="44.76816" lon="5.03501">
        <ele>234.22</ele>
        <time>2016-08-22T12:40:25Z</time>
      </trkpt>
      <trkpt lat="44.7682" lon="5.03507">
        <ele>233.74</ele>
        <time>2016-08-22T12:40:26Z</time>
      </trkpt>
      <trkpt lat="44.76829" lon="5.03518">
        <ele>232.78</ele>
        <time>2016-08-22T12:40:28Z</time>
      </trkpt>
      <trkpt lat="44.76834" lon="5.03521">
        <ele>232.3</ele>
        <time>2016-08-22T12:40:29Z</time>
      </trkpt>
      <trkpt lat="44.76874" lon="5.03542">
        <ele>231.81</ele>
        <time>2016-08-22T12:40:38Z</time>
      </trkpt>
      <trkpt lat="44.76878" lon="5.03545">
        <ele>232.3</ele>
        <time>2016-08-22T12:40:39Z</time>
      </trkpt>
      <trkpt lat="44.76881" lon="5.03548">
        <ele>232.78</ele>
        <time>2016-08-22T12:40:46Z</time>
      </trkpt>
      <trkpt lat="44.76881" lon="5.03548">
        <ele>233.26</ele>
        <time>2016-08-22T12:41:10Z</time>
      </trkpt>
      <trkpt lat="44.76882" lon="5.03548">
        <ele>233.74</ele>
        <time>2016-08-22T12:41:29Z</time>
      </trkpt>
      <trkpt lat="44.76883" lon="5.0355">
        <ele>233.74</ele>
        <time>2016-08-22T12:41:30Z</time>
      </trkpt>
      <trkpt lat="44.76884" lon="5.03551">
        <ele>233.26</ele>
        <time>2016-08-22T12:41:31Z</time>
      </trkpt>
      <trkpt lat="44.76886" lon="5.03553">
        <ele>233.26</ele>
        <time>2016-08-22T12:41:32Z</time>
      </trkpt>
      <trkpt lat="44.76887" lon="5.03555">
        <ele>233.74</ele>
        <time>2016-08-22T12:41:33Z</time>
      </trkpt>
      <trkpt lat="44.7691" lon="5.0358">
        <ele>232.78</ele>
        <time>2016-08-22T12:41:44Z</time>
      </trkpt>
      <trkpt lat="44.76921" lon="5.03603">
        <ele>235.66</ele>
        <time>2016-08-22T12:41:54Z</time>
      </trkpt>
      <trkpt lat="44.76921" lon="5.03608">
        <ele>236.62</ele>
        <time>2016-08-22T12:41:56Z</time>
      </trkpt>
      <trkpt lat="44.76922" lon="5.03617">
        <ele>238.54</ele>
        <time>2016-08-22T12:42:00Z</time>
      </trkpt>
      <trkpt lat="44.76923" lon="5.03618">
        <ele>239.02</ele>
        <time>2016-08-22T12:42:01Z</time>
      </trkpt>
      <trkpt lat="44.76925" lon="5.03621">
        <ele>239.99</ele>
        <time>2016-08-22T12:42:03Z</time>
      </trkpt>
      <trkpt lat="44.76926" lon="5.03622">
        <ele>240.47</ele>
        <time>2016-08-22T12:42:04Z</time>
      </trkpt>
      <trkpt lat="44.76943" lon="5.0363">
        <ele>243.35</ele>
        <time>2016-08-22T12:42:16Z</time>
      </trkpt>
      <trkpt lat="44.76947" lon="5.03632">
        <ele>244.31</ele>
        <time>2016-08-22T12:42:18Z</time>
      </trkpt>
      <trkpt lat="44.76949" lon="5.03632">
        <ele>244.31</ele>
        <time>2016-08-22T12:42:19Z</time>
      </trkpt>
      <trkpt lat="44.7695" lon="5.03633">
        <ele>244.79</ele>
        <time>2016-08-22T12:42:20Z</time>
      </trkpt>
      <trkpt lat="44.76951" lon="5.03633">
        <ele>244.79</ele>
        <time>2016-08-22T12:42:21Z</time>
      </trkpt>
      <trkpt lat="44.76953" lon="5.03633">
        <ele>244.79</ele>
        <time>2016-08-22T12:42:22Z</time>
      </trkpt>
      <trkpt lat="44.76954" lon="5.03633">
        <ele>244.79</ele>
        <time>2016-08-22T12:42:23Z</time>
      </trkpt>
      <trkpt lat="44.76956" lon="5.03633">
        <ele>245.27</ele>
        <time>2016-08-22T12:42:24Z</time>
      </trkpt>
      <trkpt lat="44.76978" lon="5.03638">
        <ele>248.16</ele>
        <time>2016-08-22T12:42:38Z</time>
      </trkpt>
      <trkpt lat="44.76987" lon="5.0364">
        <ele>249.12</ele>
        <time>2016-08-22T12:42:44Z</time>
      </trkpt>
      <trkpt lat="44.76988" lon="5.0364">
        <ele>249.6</ele>
        <time>2016-08-22T12:42:45Z</time>
      </trkpt>
      <trkpt lat="44.7699" lon="5.03641">
        <ele>249.12</ele>
        <time>2016-08-22T12:42:46Z</time>
      </trkpt>
      <trkpt lat="44.76992" lon="5.03641">
        <ele>249.6</ele>
        <time>2016-08-22T12:42:47Z</time>
      </trkpt>
      <trkpt lat="44.76993" lon="5.03641">
        <ele>250.08</ele>
        <time>2016-08-22T12:42:48Z</time>
      </trkpt>
      <trkpt lat="44.76995" lon="5.03641">
        <ele>250.08</ele>
        <time>2016-08-22T12:42:49Z</time>
      </trkpt>
      <trkpt lat="44.76997" lon="5.03641">
        <ele>250.08</ele>
        <time>2016-08-22T12:42:50Z</time>
      </trkpt>
      <trkpt lat="44.76998" lon="5.03642">
        <ele>250.08</ele>
        <time>2016-08-22T12:42:51Z</time>
      </trkpt>
      <trkpt lat="44.77" lon="5.03642">
        <ele>250.08</ele>
        <time>2016-08-22T12:42:52Z</time>
      </trkpt>
      <trkpt lat="44.77002" lon="5.03642">
        <ele>250.56</ele>
        <time>2016-08-22T12:42:53Z</time>
      </trkpt>
      <trkpt lat="44.77003" lon="5.03642">
        <ele>250.56</ele>
        <time>2016-08-22T12:42:54Z</time>
      </trkpt>
      <trkpt lat="44.77005" lon="5.03643">
        <ele>250.56</ele>
        <time>2016-08-22T12:42:55Z</time>
      </trkpt>
      <trkpt lat="44.77007" lon="5.03643">
        <ele>250.56</ele>
        <time>2016-08-22T12:42:56Z</time>
      </trkpt>
      <trkpt lat="44.77009" lon="5.03643">
        <ele>251.04</ele>
        <time>2016-08-22T12:42:57Z</time>
      </trkpt>
      <trkpt lat="44.77011" lon="5.03643">
        <ele>251.52</ele>
        <time>2016-08-22T12:42:58Z</time>
      </trkpt>
      <trkpt lat="44.77016" lon="5.03642">
        <ele>252.48</ele>
        <time>2016-08-22T12:43:10Z</time>
      </trkpt>
      <trkpt lat="44.77016" lon="5.03642">
        <ele>252.96</ele>
        <time>2016-08-22T12:43:40Z</time>
      </trkpt>
      <trkpt lat="44.77038" lon="5.03643">
        <ele>252</ele>
        <time>2016-08-22T12:43:50Z</time>
      </trkpt>
      <trkpt lat="44.7706" lon="5.03658">
        <ele>254.89</ele>
        <time>2016-08-22T12:44:01Z</time>
      </trkpt>
      <trkpt lat="44.77072" lon="5.03685">
        <ele>258.25</ele>
        <time>2016-08-22T12:44:14Z</time>
      </trkpt>
      <trkpt lat="44.77091" lon="5.03701">
        <ele>260.65</ele>
        <time>2016-08-22T12:44:27Z</time>
      </trkpt>
      <trkpt lat="44.77101" lon="5.03713">
        <ele>263.06</ele>
        <time>2016-08-22T12:44:36Z</time>
      </trkpt>
      <trkpt lat="44.77109" lon="5.03725">
        <ele>265.46</ele>
        <time>2016-08-22T12:44:47Z</time>
      </trkpt>
      <trkpt lat="44.77115" lon="5.0374">
        <ele>266.9</ele>
        <time>2016-08-22T12:44:58Z</time>
      </trkpt>
      <trkpt lat="44.77115" lon="5.03741">
        <ele>267.38</ele>
        <time>2016-08-22T12:44:59Z</time>
      </trkpt>
      <trkpt lat="44.77116" lon="5.03755">
        <ele>268.83</ele>
        <time>2016-08-22T12:45:10Z</time>
      </trkpt>
      <trkpt lat="44.77116" lon="5.0376">
        <ele>269.31</ele>
        <time>2016-08-22T12:45:17Z</time>
      </trkpt>
      <trkpt lat="44.77117" lon="5.03766">
        <ele>269.31</ele>
        <time>2016-08-22T12:45:21Z</time>
      </trkpt>
      <trkpt lat="44.77117" lon="5.03768">
        <ele>269.79</ele>
        <time>2016-08-22T12:45:22Z</time>
      </trkpt>
      <trkpt lat="44.77117" lon="5.03769">
        <ele>269.79</ele>
        <time>2016-08-22T12:45:23Z</time>
      </trkpt>
      <trkpt lat="44.77117" lon="5.03771">
        <ele>270.27</ele>
        <time>2016-08-22T12:45:24Z</time>
      </trkpt>
      <trkpt lat="44.77117" lon="5.03773">
        <ele>270.27</ele>
        <time>2016-08-22T12:45:25Z</time>
      </trkpt>
      <trkpt lat="44.77123" lon="5.03798">
        <ele>273.63</ele>
        <time>2016-08-22T12:45:38Z</time>
      </trkpt>
      <trkpt lat="44.77129" lon="5.03813">
        <ele>275.56</ele>
        <time>2016-08-22T12:45:51Z</time>
      </trkpt>
      <trkpt lat="44.7713" lon="5.03814">
        <ele>276.04</ele>
        <time>2016-08-22T12:45:52Z</time>
      </trkpt>
      <trkpt lat="44.77133" lon="5.03819">
        <ele>277.48</ele>
        <time>2016-08-22T12:45:56Z</time>
      </trkpt>
      <trkpt lat="44.77134" lon="5.03826">
        <ele>278.92</ele>
        <time>2016-08-22T12:46:00Z</time>
      </trkpt>
      <trkpt lat="44.77133" lon="5.03837">
        <ele>282.28</ele>
        <time>2016-08-22T12:46:07Z</time>
      </trkpt>
      <trkpt lat="44.77133" lon="5.03845">
        <ele>283.25</ele>
        <time>2016-08-22T12:46:18Z</time>
      </trkpt>
      <trkpt lat="44.77133" lon="5.03849">
        <ele>284.21</ele>
        <time>2016-08-22T12:46:21Z</time>
      </trkpt>
      <trkpt lat="44.77134" lon="5.03866">
        <ele>285.65</ele>
        <time>2016-08-22T12:46:30Z</time>
      </trkpt>
      <trkpt lat="44.77133" lon="5.03875">
        <ele>286.61</ele>
        <time>2016-08-22T12:46:38Z</time>
      </trkpt>
      <trkpt lat="44.77133" lon="5.03876">
        <ele>287.09</ele>
        <time>2016-08-22T12:46:39Z</time>
      </trkpt>
      <trkpt lat="44.77134" lon="5.03893">
        <ele>289.97</ele>
        <time>2016-08-22T12:46:51Z</time>
      </trkpt>
      <trkpt lat="44.77135" lon="5.03907">
        <ele>293.34</ele>
        <time>2016-08-22T12:47:02Z</time>
      </trkpt>
      <trkpt lat="44.77137" lon="5.03908">
        <ele>293.82</ele>
        <time>2016-08-22T12:47:04Z</time>
      </trkpt>
      <trkpt lat="44.77144" lon="5.03919">
        <ele>296.22</ele>
        <time>2016-08-22T12:47:16Z</time>
      </trkpt>
      <trkpt lat="44.77147" lon="5.03924">
        <ele>296.7</ele>
        <time>2016-08-22T12:47:19Z</time>
      </trkpt>
      <trkpt lat="44.77148" lon="5.03926">
        <ele>296.7</ele>
        <time>2016-08-22T12:47:20Z</time>
      </trkpt>
      <trkpt lat="44.77149" lon="5.03933">
        <ele>298.63</ele>
        <time>2016-08-22T12:47:26Z</time>
      </trkpt>
      <trkpt lat="44.77148" lon="5.03951">
        <ele>301.51</ele>
        <time>2016-08-22T12:47:38Z</time>
      </trkpt>
      <trkpt lat="44.77147" lon="5.03963">
        <ele>304.39</ele>
        <time>2016-08-22T12:47:47Z</time>
      </trkpt>
      <trkpt lat="44.77143" lon="5.03977">
        <ele>307.28</ele>
        <time>2016-08-22T12:47:59Z</time>
      </trkpt>
      <trkpt lat="44.77142" lon="5.03984">
        <ele>308.72</ele>
        <time>2016-08-22T12:48:05Z</time>
      </trkpt>
      <trkpt lat="44.77142" lon="5.03989">
        <ele>309.68</ele>
        <time>2016-08-22T12:48:08Z</time>
      </trkpt>
      <trkpt lat="44.77142" lon="5.03997">
        <ele>311.6</ele>
        <time>2016-08-22T12:48:25Z</time>
      </trkpt>
      <trkpt lat="44.77142" lon="5.03998">
        <ele>311.6</ele>
        <time>2016-08-22T12:48:41Z</time>
      </trkpt>
      <trkpt lat="44.77142" lon="5.04005">
        <ele>312.09</ele>
        <time>2016-08-22T12:48:50Z</time>
      </trkpt>
      <trkpt lat="44.77142" lon="5.04018">
        <ele>314.49</ele>
        <time>2016-08-22T12:49:01Z</time>
      </trkpt>
      <trkpt lat="44.7714" lon="5.04035">
        <ele>317.85</ele>
        <time>2016-08-22T12:49:13Z</time>
      </trkpt>
      <trkpt lat="44.77138" lon="5.04056">
        <ele>320.74</ele>
        <time>2016-08-22T12:49:26Z</time>
      </trkpt>
      <trkpt lat="44.77139" lon="5.04075">
        <ele>323.14</ele>
        <time>2016-08-22T12:49:40Z</time>
      </trkpt>
      <trkpt lat="44.77141" lon="5.04085">
        <ele>324.1</ele>
        <time>2016-08-22T12:49:51Z</time>
      </trkpt>
      <trkpt lat="44.77142" lon="5.04087">
        <ele>323.62</ele>
        <time>2016-08-22T12:49:52Z</time>
      </trkpt>
      <trkpt lat="44.77143" lon="5.04089">
        <ele>324.1</ele>
        <time>2016-08-22T12:49:53Z</time>
      </trkpt>
      <trkpt lat="44.77143" lon="5.04091">
        <ele>324.1</ele>
        <time>2016-08-22T12:49:54Z</time>
      </trkpt>
      <trkpt lat="44.77144" lon="5.04093">
        <ele>324.58</ele>
        <time>2016-08-22T12:49:55Z</time>
      </trkpt>
      <trkpt lat="44.77147" lon="5.04106">
        <ele>326.99</ele>
        <time>2016-08-22T12:50:00Z</time>
      </trkpt>
      <trkpt lat="44.77147" lon="5.04109">
        <ele>327.47</ele>
        <time>2016-08-22T12:50:01Z</time>
      </trkpt>
      <trkpt lat="44.77148" lon="5.04111">
        <ele>327.47</ele>
        <time>2016-08-22T12:50:02Z</time>
      </trkpt>
      <trkpt lat="44.77148" lon="5.04114">
        <ele>327.47</ele>
        <time>2016-08-22T12:50:03Z</time>
      </trkpt>
      <trkpt lat="44.77149" lon="5.04117">
        <ele>327.95</ele>
        <time>2016-08-22T12:50:04Z</time>
      </trkpt>
      <trkpt lat="44.77149" lon="5.04119">
        <ele>327.95</ele>
        <time>2016-08-22T12:50:05Z</time>
      </trkpt>
      <trkpt lat="44.77154" lon="5.04135">
        <ele>329.39</ele>
        <time>2016-08-22T12:50:12Z</time>
      </trkpt>
      <trkpt lat="44.77139" lon="5.04159">
        <ele>327.95</ele>
        <time>2016-08-22T12:50:18Z</time>
      </trkpt>
      <trkpt lat="44.77121" lon="5.04183">
        <ele>323.62</ele>
        <time>2016-08-22T12:50:23Z</time>
      </trkpt>
      <trkpt lat="44.77117" lon="5.0419">
        <ele>323.62</ele>
        <time>2016-08-22T12:50:24Z</time>
      </trkpt>
      <trkpt lat="44.77113" lon="5.04196">
        <ele>323.14</ele>
        <time>2016-08-22T12:50:25Z</time>
      </trkpt>
      <trkpt lat="44.77109" lon="5.04201">
        <ele>323.62</ele>
        <time>2016-08-22T12:50:26Z</time>
      </trkpt>
      <trkpt lat="44.77106" lon="5.04206">
        <ele>323.62</ele>
        <time>2016-08-22T12:50:27Z</time>
      </trkpt>
      <trkpt lat="44.77103" lon="5.04211">
        <ele>324.1</ele>
        <time>2016-08-22T12:50:28Z</time>
      </trkpt>
      <trkpt lat="44.771" lon="5.04215">
        <ele>325.06</ele>
        <time>2016-08-22T12:50:29Z</time>
      </trkpt>
      <trkpt lat="44.77098" lon="5.04218">
        <ele>325.54</ele>
        <time>2016-08-22T12:50:30Z</time>
      </trkpt>
      <trkpt lat="44.77096" lon="5.0422">
        <ele>325.54</ele>
        <time>2016-08-22T12:50:31Z</time>
      </trkpt>
      <trkpt lat="44.77093" lon="5.04222">
        <ele>326.02</ele>
        <time>2016-08-22T12:50:33Z</time>
      </trkpt>
      <trkpt lat="44.77091" lon="5.04225">
        <ele>326.02</ele>
        <time>2016-08-22T12:50:34Z</time>
      </trkpt>
      <trkpt lat="44.77088" lon="5.04227">
        <ele>326.5</ele>
        <time>2016-08-22T12:50:35Z</time>
      </trkpt>
      <trkpt lat="44.7707" lon="5.04257">
        <ele>328.43</ele>
        <time>2016-08-22T12:50:46Z</time>
      </trkpt>
      <trkpt lat="44.77068" lon="5.04259">
        <ele>329.39</ele>
        <time>2016-08-22T12:50:47Z</time>
      </trkpt>
      <trkpt lat="44.77052" lon="5.04288">
        <ele>330.35</ele>
        <time>2016-08-22T12:50:58Z</time>
      </trkpt>
      <trkpt lat="44.77051" lon="5.04291">
        <ele>330.35</ele>
        <time>2016-08-22T12:50:59Z</time>
      </trkpt>
      <trkpt lat="44.77049" lon="5.04296">
        <ele>330.83</ele>
        <time>2016-08-22T12:51:01Z</time>
      </trkpt>
      <trkpt lat="44.77048" lon="5.04299">
        <ele>330.83</ele>
        <time>2016-08-22T12:51:02Z</time>
      </trkpt>
      <trkpt lat="44.77047" lon="5.04302">
        <ele>330.83</ele>
        <time>2016-08-22T12:51:03Z</time>
      </trkpt>
      <trkpt lat="44.77046" lon="5.04305">
        <ele>330.83</ele>
        <time>2016-08-22T12:51:04Z</time>
      </trkpt>
      <trkpt lat="44.77045" lon="5.04308">
        <ele>331.79</ele>
        <time>2016-08-22T12:51:05Z</time>
      </trkpt>
      <trkpt lat="44.77044" lon="5.04311">
        <ele>331.79</ele>
        <time>2016-08-22T12:51:06Z</time>
      </trkpt>
      <trkpt lat="44.77043" lon="5.04313">
        <ele>332.75</ele>
        <time>2016-08-22T12:51:07Z</time>
      </trkpt>
      <trkpt lat="44.77042" lon="5.04316">
        <ele>332.75</ele>
        <time>2016-08-22T12:51:08Z</time>
      </trkpt>
      <trkpt lat="44.77041" lon="5.04318">
        <ele>333.23</ele>
        <time>2016-08-22T12:51:09Z</time>
      </trkpt>
      <trkpt lat="44.77041" lon="5.04321">
        <ele>333.71</ele>
        <time>2016-08-22T12:51:10Z</time>
      </trkpt>
      <trkpt lat="44.7704" lon="5.04324">
        <ele>333.71</ele>
        <time>2016-08-22T12:51:11Z</time>
      </trkpt>
      <trkpt lat="44.77039" lon="5.04326">
        <ele>333.23</ele>
        <time>2016-08-22T12:51:12Z</time>
      </trkpt>
      <trkpt lat="44.77038" lon="5.04327">
        <ele>333.71</ele>
        <time>2016-08-22T12:51:13Z</time>
      </trkpt>
      <trkpt lat="44.77037" lon="5.04329">
        <ele>333.23</ele>
        <time>2016-08-22T12:51:14Z</time>
      </trkpt>
      <trkpt lat="44.77036" lon="5.04332">
        <ele>333.23</ele>
        <time>2016-08-22T12:51:15Z</time>
      </trkpt>
      <trkpt lat="44.77032" lon="5.04339">
        <ele>333.71</ele>
        <time>2016-08-22T12:51:18Z</time>
      </trkpt>
      <trkpt lat="44.77031" lon="5.04341">
        <ele>333.23</ele>
        <time>2016-08-22T12:51:19Z</time>
      </trkpt>
      <trkpt lat="44.77012" lon="5.04374">
        <ele>335.16</ele>
        <time>2016-08-22T12:51:32Z</time>
      </trkpt>
      <trkpt lat="44.77009" lon="5.04379">
        <ele>335.64</ele>
        <time>2016-08-22T12:51:34Z</time>
      </trkpt>
      <trkpt lat="44.77008" lon="5.04383">
        <ele>336.12</ele>
        <time>2016-08-22T12:51:35Z</time>
      </trkpt>
      <trkpt lat="44.77008" lon="5.04387">
        <ele>335.64</ele>
        <time>2016-08-22T12:51:36Z</time>
      </trkpt>
      <trkpt lat="44.77009" lon="5.04391">
        <ele>336.12</ele>
        <time>2016-08-22T12:51:37Z</time>
      </trkpt>
      <trkpt lat="44.77009" lon="5.04394">
        <ele>336.12</ele>
        <time>2016-08-22T12:51:38Z</time>
      </trkpt>
      <trkpt lat="44.7701" lon="5.04398">
        <ele>336.12</ele>
        <time>2016-08-22T12:51:39Z</time>
      </trkpt>
      <trkpt lat="44.77009" lon="5.04401">
        <ele>336.12</ele>
        <time>2016-08-22T12:51:40Z</time>
      </trkpt>
      <trkpt lat="44.77009" lon="5.04405">
        <ele>336.12</ele>
        <time>2016-08-22T12:51:41Z</time>
      </trkpt>
      <trkpt lat="44.77009" lon="5.04408">
        <ele>336.12</ele>
        <time>2016-08-22T12:51:42Z</time>
      </trkpt>
      <trkpt lat="44.77008" lon="5.04411">
        <ele>336.6</ele>
        <time>2016-08-22T12:51:43Z</time>
      </trkpt>
      <trkpt lat="44.77007" lon="5.04414">
        <ele>336.6</ele>
        <time>2016-08-22T12:51:44Z</time>
      </trkpt>
      <trkpt lat="44.77006" lon="5.04417">
        <ele>337.08</ele>
        <time>2016-08-22T12:51:45Z</time>
      </trkpt>
      <trkpt lat="44.77005" lon="5.04419">
        <ele>337.08</ele>
        <time>2016-08-22T12:51:46Z</time>
      </trkpt>
      <trkpt lat="44.77004" lon="5.04422">
        <ele>337.56</ele>
        <time>2016-08-22T12:51:47Z</time>
      </trkpt>
      <trkpt lat="44.77004" lon="5.04425">
        <ele>337.56</ele>
        <time>2016-08-22T12:51:48Z</time>
      </trkpt>
      <trkpt lat="44.77004" lon="5.04427">
        <ele>338.04</ele>
        <time>2016-08-22T12:51:49Z</time>
      </trkpt>
      <trkpt lat="44.77004" lon="5.04429">
        <ele>338.04</ele>
        <time>2016-08-22T12:51:50Z</time>
      </trkpt>
      <trkpt lat="44.77004" lon="5.04431">
        <ele>338.04</ele>
        <time>2016-08-22T12:51:51Z</time>
      </trkpt>
      <trkpt lat="44.77003" lon="5.04465">
        <ele>341.41</ele>
        <time>2016-08-22T12:52:07Z</time>
      </trkpt>
      <trkpt lat="44.77" lon="5.04471">
        <ele>342.37</ele>
        <time>2016-08-22T12:52:16Z</time>
      </trkpt>
      <trkpt lat="44.76998" lon="5.04487">
        <ele>344.29</ele>
        <time>2016-08-22T12:52:25Z</time>
      </trkpt>
      <trkpt lat="44.76999" lon="5.04494">
        <ele>343.81</ele>
        <time>2016-08-22T12:52:37Z</time>
      </trkpt>
      <trkpt lat="44.77" lon="5.04495">
        <ele>343.81</ele>
        <time>2016-08-22T12:52:39Z</time>
      </trkpt>
      <trkpt lat="44.77004" lon="5.04506">
        <ele>343.33</ele>
        <time>2016-08-22T12:52:46Z</time>
      </trkpt>
      <trkpt lat="44.77005" lon="5.04509">
        <ele>343.33</ele>
        <time>2016-08-22T12:52:47Z</time>
      </trkpt>
      <trkpt lat="44.77011" lon="5.04531">
        <ele>343.81</ele>
        <time>2016-08-22T12:52:55Z</time>
      </trkpt>
      <trkpt lat="44.77013" lon="5.04533">
        <ele>343.81</ele>
        <time>2016-08-22T12:52:56Z</time>
      </trkpt>
      <trkpt lat="44.77017" lon="5.04536">
        <ele>343.33</ele>
        <time>2016-08-22T12:52:58Z</time>
      </trkpt>
      <trkpt lat="44.77029" lon="5.04535">
        <ele>341.89</ele>
        <time>2016-08-22T12:53:01Z</time>
      </trkpt>
      <trkpt lat="44.77033" lon="5.04533">
        <ele>341.89</ele>
        <time>2016-08-22T12:53:02Z</time>
      </trkpt>
      <trkpt lat="44.77038" lon="5.0453">
        <ele>340.44</ele>
        <time>2016-08-22T12:53:03Z</time>
      </trkpt>
      <trkpt lat="44.77049" lon="5.04525">
        <ele>337.08</ele>
        <time>2016-08-22T12:53:05Z</time>
      </trkpt>
      <trkpt lat="44.7706" lon="5.04521">
        <ele>335.16</ele>
        <time>2016-08-22T12:53:07Z</time>
      </trkpt>
      <trkpt lat="44.77065" lon="5.04521">
        <ele>334.68</ele>
        <time>2016-08-22T12:53:08Z</time>
      </trkpt>
      <trkpt lat="44.77069" lon="5.04522">
        <ele>335.64</ele>
        <time>2016-08-22T12:53:09Z</time>
      </trkpt>
      <trkpt lat="44.77073" lon="5.04523">
        <ele>335.64</ele>
        <time>2016-08-22T12:53:10Z</time>
      </trkpt>
      <trkpt lat="44.77077" lon="5.04525">
        <ele>335.16</ele>
        <time>2016-08-22T12:53:11Z</time>
      </trkpt>
      <trkpt lat="44.77082" lon="5.04526">
        <ele>334.2</ele>
        <time>2016-08-22T12:53:12Z</time>
      </trkpt>
      <trkpt lat="44.77086" lon="5.04528">
        <ele>333.23</ele>
        <time>2016-08-22T12:53:13Z</time>
      </trkpt>
      <trkpt lat="44.77098" lon="5.04533">
        <ele>332.27</ele>
        <time>2016-08-22T12:53:15Z</time>
      </trkpt>
      <trkpt lat="44.7711" lon="5.0454">
        <ele>329.87</ele>
        <time>2016-08-22T12:53:17Z</time>
      </trkpt>
      <trkpt lat="44.77116" lon="5.04544">
        <ele>328.91</ele>
        <time>2016-08-22T12:53:18Z</time>
      </trkpt>
      <trkpt lat="44.77132" lon="5.04557">
        <ele>325.54</ele>
        <time>2016-08-22T12:53:21Z</time>
      </trkpt>
      <trkpt lat="44.7715" lon="5.04571">
        <ele>322.66</ele>
        <time>2016-08-22T12:53:24Z</time>
      </trkpt>
      <trkpt lat="44.77171" lon="5.04586">
        <ele>320.26</ele>
        <time>2016-08-22T12:53:28Z</time>
      </trkpt>
      <trkpt lat="44.77177" lon="5.04587">
        <ele>319.3</ele>
        <time>2016-08-22T12:53:29Z</time>
      </trkpt>
      <trkpt lat="44.77182" lon="5.04585">
        <ele>318.81</ele>
        <time>2016-08-22T12:53:30Z</time>
      </trkpt>
      <trkpt lat="44.77187" lon="5.04581">
        <ele>317.85</ele>
        <time>2016-08-22T12:53:31Z</time>
      </trkpt>
      <trkpt lat="44.77191" lon="5.04579">
        <ele>317.37</ele>
        <time>2016-08-22T12:53:32Z</time>
      </trkpt>
      <trkpt lat="44.77195" lon="5.04579">
        <ele>316.41</ele>
        <time>2016-08-22T12:53:33Z</time>
      </trkpt>
      <trkpt lat="44.77199" lon="5.04581">
        <ele>315.93</ele>
        <time>2016-08-22T12:53:34Z</time>
      </trkpt>
      <trkpt lat="44.77203" lon="5.04585">
        <ele>315.45</ele>
        <time>2016-08-22T12:53:35Z</time>
      </trkpt>
      <trkpt lat="44.77208" lon="5.04588">
        <ele>314.97</ele>
        <time>2016-08-22T12:53:36Z</time>
      </trkpt>
      <trkpt lat="44.77213" lon="5.04591">
        <ele>314.01</ele>
        <time>2016-08-22T12:53:37Z</time>
      </trkpt>
      <trkpt lat="44.77217" lon="5.04591">
        <ele>313.05</ele>
        <time>2016-08-22T12:53:38Z</time>
      </trkpt>
      <trkpt lat="44.7722" lon="5.04588">
        <ele>312.57</ele>
        <time>2016-08-22T12:53:39Z</time>
      </trkpt>
      <trkpt lat="44.77221" lon="5.04584">
        <ele>312.09</ele>
        <time>2016-08-22T12:53:40Z</time>
      </trkpt>
      <trkpt lat="44.7722" lon="5.04579">
        <ele>311.6</ele>
        <time>2016-08-22T12:53:41Z</time>
      </trkpt>
      <trkpt lat="44.77217" lon="5.04573">
        <ele>310.64</ele>
        <time>2016-08-22T12:53:42Z</time>
      </trkpt>
      <trkpt lat="44.77214" lon="5.04566">
        <ele>309.68</ele>
        <time>2016-08-22T12:53:43Z</time>
      </trkpt>
      <trkpt lat="44.77212" lon="5.04559">
        <ele>309.68</ele>
        <time>2016-08-22T12:53:44Z</time>
      </trkpt>
      <trkpt lat="44.77211" lon="5.04552">
        <ele>309.68</ele>
        <time>2016-08-22T12:53:45Z</time>
      </trkpt>
      <trkpt lat="44.77209" lon="5.04547">
        <ele>309.68</ele>
        <time>2016-08-22T12:53:46Z</time>
      </trkpt>
      <trkpt lat="44.77208" lon="5.0454">
        <ele>309.68</ele>
        <time>2016-08-22T12:53:47Z</time>
      </trkpt>
      <trkpt lat="44.77204" lon="5.04523">
        <ele>310.16</ele>
        <time>2016-08-22T12:53:50Z</time>
      </trkpt>
      <trkpt lat="44.77203" lon="5.04517">
        <ele>310.64</ele>
        <time>2016-08-22T12:53:51Z</time>
      </trkpt>
      <trkpt lat="44.77202" lon="5.04492">
        <ele>311.6</ele>
        <time>2016-08-22T12:53:56Z</time>
      </trkpt>
      <trkpt lat="44.77203" lon="5.04488">
        <ele>312.09</ele>
        <time>2016-08-22T12:53:57Z</time>
      </trkpt>
      <trkpt lat="44.77203" lon="5.04485">
        <ele>312.57</ele>
        <time>2016-08-22T12:53:58Z</time>
      </trkpt>
      <trkpt lat="44.77204" lon="5.04475">
        <ele>313.53</ele>
        <time>2016-08-22T12:54:01Z</time>
      </trkpt>
      <trkpt lat="44.77204" lon="5.04471">
        <ele>314.01</ele>
        <time>2016-08-22T12:54:02Z</time>
      </trkpt>
      <trkpt lat="44.77205" lon="5.04468">
        <ele>314.01</ele>
        <time>2016-08-22T12:54:03Z</time>
      </trkpt>
      <trkpt lat="44.77205" lon="5.04449">
        <ele>315.93</ele>
        <time>2016-08-22T12:54:09Z</time>
      </trkpt>
      <trkpt lat="44.77204" lon="5.04446">
        <ele>315.93</ele>
        <time>2016-08-22T12:54:10Z</time>
      </trkpt>
      <trkpt lat="44.77204" lon="5.04444">
        <ele>316.41</ele>
        <time>2016-08-22T12:54:11Z</time>
      </trkpt>
      <trkpt lat="44.77204" lon="5.0444">
        <ele>316.41</ele>
        <time>2016-08-22T12:54:12Z</time>
      </trkpt>
      <trkpt lat="44.77203" lon="5.04438">
        <ele>316.41</ele>
        <time>2016-08-22T12:54:13Z</time>
      </trkpt>
      <trkpt lat="44.77203" lon="5.04435">
        <ele>316.89</ele>
        <time>2016-08-22T12:54:14Z</time>
      </trkpt>
      <trkpt lat="44.77199" lon="5.04388">
        <ele>317.85</ele>
        <time>2016-08-22T12:54:27Z</time>
      </trkpt>
      <trkpt lat="44.77199" lon="5.04355">
        <ele>315.93</ele>
        <time>2016-08-22T12:54:33Z</time>
      </trkpt>
      <trkpt lat="44.77201" lon="5.0435">
        <ele>314.97</ele>
        <time>2016-08-22T12:54:34Z</time>
      </trkpt>
      <trkpt lat="44.77205" lon="5.04345">
        <ele>314.97</ele>
        <time>2016-08-22T12:54:35Z</time>
      </trkpt>
      <trkpt lat="44.77209" lon="5.04342">
        <ele>314.49</ele>
        <time>2016-08-22T12:54:36Z</time>
      </trkpt>
      <trkpt lat="44.77214" lon="5.0434">
        <ele>314.01</ele>
        <time>2016-08-22T12:54:37Z</time>
      </trkpt>
      <trkpt lat="44.77218" lon="5.04338">
        <ele>314.49</ele>
        <time>2016-08-22T12:54:38Z</time>
      </trkpt>
      <trkpt lat="44.7725" lon="5.0433">
        <ele>315.93</ele>
        <time>2016-08-22T12:54:48Z</time>
      </trkpt>
      <trkpt lat="44.77251" lon="5.04331">
        <ele>315.93</ele>
        <time>2016-08-22T12:54:49Z</time>
      </trkpt>
      <trkpt lat="44.77252" lon="5.04333">
        <ele>316.41</ele>
        <time>2016-08-22T12:54:50Z</time>
      </trkpt>
      <trkpt lat="44.77251" lon="5.04334">
        <ele>316.41</ele>
        <time>2016-08-22T12:54:51Z</time>
      </trkpt>
      <trkpt lat="44.7725" lon="5.04335">
        <ele>316.89</ele>
        <time>2016-08-22T12:54:52Z</time>
      </trkpt>
      <trkpt lat="44.77248" lon="5.04336">
        <ele>316.89</ele>
        <time>2016-08-22T12:54:53Z</time>
      </trkpt>
      <trkpt lat="44.77245" lon="5.04337">
        <ele>317.37</ele>
        <time>2016-08-22T12:54:54Z</time>
      </trkpt>
      <trkpt lat="44.77234" lon="5.04351">
        <ele>319.3</ele>
        <time>2016-08-22T12:55:01Z</time>
      </trkpt>
      <trkpt lat="44.77236" lon="5.04385">
        <ele>322.18</ele>
        <time>2016-08-22T12:55:14Z</time>
      </trkpt>
      <trkpt lat="44.77249" lon="5.04404">
        <ele>325.54</ele>
        <time>2016-08-22T12:55:26Z</time>
      </trkpt>
      <trkpt lat="44.77262" lon="5.04422">
        <ele>327.95</ele>
        <time>2016-08-22T12:55:38Z</time>
      </trkpt>
      <trkpt lat="44.77263" lon="5.04424">
        <ele>328.43</ele>
        <time>2016-08-22T12:55:39Z</time>
      </trkpt>
      <trkpt lat="44.77264" lon="5.04425">
        <ele>328.43</ele>
        <time>2016-08-22T12:55:40Z</time>
      </trkpt>
      <trkpt lat="44.77265" lon="5.04427">
        <ele>328.91</ele>
        <time>2016-08-22T12:55:41Z</time>
      </trkpt>
      <trkpt lat="44.77266" lon="5.04429">
        <ele>328.91</ele>
        <time>2016-08-22T12:55:42Z</time>
      </trkpt>
      <trkpt lat="44.77282" lon="5.04452">
        <ele>331.79</ele>
        <time>2016-08-22T12:55:57Z</time>
      </trkpt>
      <trkpt lat="44.77298" lon="5.04474">
        <ele>333.23</ele>
        <time>2016-08-22T12:56:12Z</time>
      </trkpt>
      <trkpt lat="44.77299" lon="5.04475">
        <ele>333.23</ele>
        <time>2016-08-22T12:56:13Z</time>
      </trkpt>
      <trkpt lat="44.773" lon="5.04476">
        <ele>333.71</ele>
        <time>2016-08-22T12:56:14Z</time>
      </trkpt>
      <trkpt lat="44.77318" lon="5.04488">
        <ele>337.08</ele>
        <time>2016-08-22T12:56:27Z</time>
      </trkpt>
      <trkpt lat="44.77319" lon="5.04489">
        <ele>337.08</ele>
        <time>2016-08-22T12:56:28Z</time>
      </trkpt>
      <trkpt lat="44.77322" lon="5.04493">
        <ele>338.52</ele>
        <time>2016-08-22T12:56:31Z</time>
      </trkpt>
      <trkpt lat="44.77333" lon="5.04508">
        <ele>341.89</ele>
        <time>2016-08-22T12:56:41Z</time>
      </trkpt>
      <trkpt lat="44.77336" lon="5.04539">
        <ele>344.77</ele>
        <time>2016-08-22T12:56:56Z</time>
      </trkpt>
      <trkpt lat="44.77343" lon="5.04563">
        <ele>348.13</ele>
        <time>2016-08-22T12:57:08Z</time>
      </trkpt>
      <trkpt lat="44.7736" lon="5.04599">
        <ele>351.02</ele>
        <time>2016-08-22T12:57:27Z</time>
      </trkpt>
      <trkpt lat="44.77361" lon="5.04615">
        <ele>352.94</ele>
        <time>2016-08-22T12:57:34Z</time>
      </trkpt>
      <trkpt lat="44.77361" lon="5.04617">
        <ele>352.94</ele>
        <time>2016-08-22T12:57:35Z</time>
      </trkpt>
      <trkpt lat="44.77361" lon="5.0462">
        <ele>353.42</ele>
        <time>2016-08-22T12:57:36Z</time>
      </trkpt>
      <trkpt lat="44.7736" lon="5.04622">
        <ele>353.42</ele>
        <time>2016-08-22T12:57:37Z</time>
      </trkpt>
      <trkpt lat="44.7736" lon="5.04624">
        <ele>353.42</ele>
        <time>2016-08-22T12:57:38Z</time>
      </trkpt>
      <trkpt lat="44.77358" lon="5.04626">
        <ele>353.42</ele>
        <time>2016-08-22T12:57:39Z</time>
      </trkpt>
      <trkpt lat="44.77357" lon="5.04628">
        <ele>353.42</ele>
        <time>2016-08-22T12:57:40Z</time>
      </trkpt>
      <trkpt lat="44.77336" lon="5.04642">
        <ele>355.34</ele>
        <time>2016-08-22T12:57:52Z</time>
      </trkpt>
      <trkpt lat="44.77321" lon="5.04676">
        <ele>355.34</ele>
        <time>2016-08-22T12:58:04Z</time>
      </trkpt>
      <trkpt lat="44.77314" lon="5.04715">
        <ele>357.75</ele>
        <time>2016-08-22T12:58:17Z</time>
      </trkpt>
      <trkpt lat="44.77312" lon="5.04747">
        <ele>359.67</ele>
        <time>2016-08-22T12:58:29Z</time>
      </trkpt>
      <trkpt lat="44.77306" lon="5.0478">
        <ele>361.59</ele>
        <time>2016-08-22T12:58:43Z</time>
      </trkpt>
      <trkpt lat="44.77302" lon="5.04814">
        <ele>363.04</ele>
        <time>2016-08-22T12:58:56Z</time>
      </trkpt>
      <trkpt lat="44.77313" lon="5.04843">
        <ele>365.92</ele>
        <time>2016-08-22T12:59:10Z</time>
      </trkpt>
      <trkpt lat="44.77315" lon="5.04848">
        <ele>367.36</ele>
        <time>2016-08-22T12:59:13Z</time>
      </trkpt>
      <trkpt lat="44.77316" lon="5.0485">
        <ele>367.36</ele>
        <time>2016-08-22T12:59:14Z</time>
      </trkpt>
      <trkpt lat="44.77317" lon="5.04851">
        <ele>367.36</ele>
        <time>2016-08-22T12:59:15Z</time>
      </trkpt>
      <trkpt lat="44.77318" lon="5.04853">
        <ele>367.84</ele>
        <time>2016-08-22T12:59:16Z</time>
      </trkpt>
      <trkpt lat="44.77318" lon="5.04855">
        <ele>367.84</ele>
        <time>2016-08-22T12:59:17Z</time>
      </trkpt>
      <trkpt lat="44.77319" lon="5.04856">
        <ele>368.32</ele>
        <time>2016-08-22T12:59:18Z</time>
      </trkpt>
      <trkpt lat="44.7732" lon="5.04857">
        <ele>368.8</ele>
        <time>2016-08-22T12:59:19Z</time>
      </trkpt>
      <trkpt lat="44.77321" lon="5.04859">
        <ele>368.8</ele>
        <time>2016-08-22T12:59:20Z</time>
      </trkpt>
      <trkpt lat="44.77321" lon="5.0486">
        <ele>369.28</ele>
        <time>2016-08-22T12:59:21Z</time>
      </trkpt>
      <trkpt lat="44.77322" lon="5.04862">
        <ele>369.28</ele>
        <time>2016-08-22T12:59:22Z</time>
      </trkpt>
      <trkpt lat="44.77323" lon="5.04864">
        <ele>369.28</ele>
        <time>2016-08-22T12:59:23Z</time>
      </trkpt>
      <trkpt lat="44.77324" lon="5.04866">
        <ele>369.76</ele>
        <time>2016-08-22T12:59:24Z</time>
      </trkpt>
      <trkpt lat="44.77324" lon="5.04867">
        <ele>369.76</ele>
        <time>2016-08-22T12:59:25Z</time>
      </trkpt>
      <trkpt lat="44.77324" lon="5.04869">
        <ele>370.24</ele>
        <time>2016-08-22T12:59:26Z</time>
      </trkpt>
      <trkpt lat="44.77325" lon="5.0487">
        <ele>370.24</ele>
        <time>2016-08-22T12:59:27Z</time>
      </trkpt>
      <trkpt lat="44.77326" lon="5.04872">
        <ele>370.73</ele>
        <time>2016-08-22T12:59:28Z</time>
      </trkpt>
      <trkpt lat="44.77327" lon="5.04873">
        <ele>371.21</ele>
        <time>2016-08-22T12:59:29Z</time>
      </trkpt>
      <trkpt lat="44.77328" lon="5.04874">
        <ele>371.21</ele>
        <time>2016-08-22T12:59:30Z</time>
      </trkpt>
      <trkpt lat="44.77328" lon="5.04875">
        <ele>371.69</ele>
        <time>2016-08-22T12:59:31Z</time>
      </trkpt>
      <trkpt lat="44.7733" lon="5.04877">
        <ele>371.69</ele>
        <time>2016-08-22T12:59:32Z</time>
      </trkpt>
      <trkpt lat="44.77343" lon="5.04896">
        <ele>374.09</ele>
        <time>2016-08-22T12:59:45Z</time>
      </trkpt>
      <trkpt lat="44.77357" lon="5.04912">
        <ele>376.97</ele>
        <time>2016-08-22T12:59:58Z</time>
      </trkpt>
      <trkpt lat="44.77367" lon="5.04922">
        <ele>377.45</ele>
        <time>2016-08-22T13:00:06Z</time>
      </trkpt>
      <trkpt lat="44.77368" lon="5.04924">
        <ele>376.97</ele>
        <time>2016-08-22T13:00:07Z</time>
      </trkpt>
      <trkpt lat="44.77369" lon="5.04925">
        <ele>376.97</ele>
        <time>2016-08-22T13:00:08Z</time>
      </trkpt>
      <trkpt lat="44.7737" lon="5.04927">
        <ele>376.97</ele>
        <time>2016-08-22T13:00:09Z</time>
      </trkpt>
      <trkpt lat="44.77371" lon="5.04929">
        <ele>376.97</ele>
        <time>2016-08-22T13:00:10Z</time>
      </trkpt>
      <trkpt lat="44.77372" lon="5.04931">
        <ele>377.45</ele>
        <time>2016-08-22T13:00:11Z</time>
      </trkpt>
      <trkpt lat="44.77373" lon="5.04932">
        <ele>377.94</ele>
        <time>2016-08-22T13:00:12Z</time>
      </trkpt>
      <trkpt lat="44.77374" lon="5.04933">
        <ele>377.94</ele>
        <time>2016-08-22T13:00:13Z</time>
      </trkpt>
      <trkpt lat="44.77375" lon="5.04934">
        <ele>377.94</ele>
        <time>2016-08-22T13:00:14Z</time>
      </trkpt>
      <trkpt lat="44.77377" lon="5.04935">
        <ele>378.42</ele>
        <time>2016-08-22T13:00:15Z</time>
      </trkpt>
      <trkpt lat="44.77397" lon="5.04952">
        <ele>381.3</ele>
        <time>2016-08-22T13:00:29Z</time>
      </trkpt>
      <trkpt lat="44.77399" lon="5.04955">
        <ele>382.26</ele>
        <time>2016-08-22T13:00:31Z</time>
      </trkpt>
      <trkpt lat="44.77402" lon="5.04957">
        <ele>381.78</ele>
        <time>2016-08-22T13:00:33Z</time>
      </trkpt>
      <trkpt lat="44.77403" lon="5.04958">
        <ele>381.78</ele>
        <time>2016-08-22T13:00:34Z</time>
      </trkpt>
      <trkpt lat="44.77425" lon="5.04972">
        <ele>384.18</ele>
        <time>2016-08-22T13:00:50Z</time>
      </trkpt>
      <trkpt lat="44.77432" lon="5.04976">
        <ele>385.15</ele>
        <time>2016-08-22T13:00:55Z</time>
      </trkpt>
      <trkpt lat="44.77433" lon="5.04977">
        <ele>385.63</ele>
        <time>2016-08-22T13:00:56Z</time>
      </trkpt>
      <trkpt lat="44.77434" lon="5.04978">
        <ele>385.63</ele>
        <time>2016-08-22T13:00:57Z</time>
      </trkpt>
      <trkpt lat="44.77436" lon="5.04979">
        <ele>386.59</ele>
        <time>2016-08-22T13:00:58Z</time>
      </trkpt>
      <trkpt lat="44.77437" lon="5.0498">
        <ele>386.59</ele>
        <time>2016-08-22T13:00:59Z</time>
      </trkpt>
      <trkpt lat="44.77439" lon="5.04981">
        <ele>387.07</ele>
        <time>2016-08-22T13:01:00Z</time>
      </trkpt>
      <trkpt lat="44.7744" lon="5.04982">
        <ele>387.55</ele>
        <time>2016-08-22T13:01:01Z</time>
      </trkpt>
      <trkpt lat="44.77448" lon="5.04989">
        <ele>388.51</ele>
        <time>2016-08-22T13:01:07Z</time>
      </trkpt>
      <trkpt lat="44.77449" lon="5.0499">
        <ele>388.99</ele>
        <time>2016-08-22T13:01:08Z</time>
      </trkpt>
      <trkpt lat="44.77451" lon="5.04992">
        <ele>388.51</ele>
        <time>2016-08-22T13:01:09Z</time>
      </trkpt>
      <trkpt lat="44.77452" lon="5.04993">
        <ele>388.51</ele>
        <time>2016-08-22T13:01:10Z</time>
      </trkpt>
      <trkpt lat="44.77453" lon="5.04995">
        <ele>388.51</ele>
        <time>2016-08-22T13:01:11Z</time>
      </trkpt>
      <trkpt lat="44.77455" lon="5.04997">
        <ele>388.51</ele>
        <time>2016-08-22T13:01:12Z</time>
      </trkpt>
      <trkpt lat="44.7747" lon="5.05016">
        <ele>388.51</ele>
        <time>2016-08-22T13:01:22Z</time>
      </trkpt>
      <trkpt lat="44.77471" lon="5.05018">
        <ele>388.03</ele>
        <time>2016-08-22T13:01:23Z</time>
      </trkpt>
      <trkpt lat="44.77476" lon="5.05025">
        <ele>388.51</ele>
        <time>2016-08-22T13:01:26Z</time>
      </trkpt>
      <trkpt lat="44.77501" lon="5.05054">
        <ele>389.95</ele>
        <time>2016-08-22T13:01:41Z</time>
      </trkpt>
      <trkpt lat="44.77508" lon="5.05065">
        <ele>389.95</ele>
        <time>2016-08-22T13:01:46Z</time>
      </trkpt>
      <trkpt lat="44.7751" lon="5.05067">
        <ele>390.43</ele>
        <time>2016-08-22T13:01:47Z</time>
      </trkpt>
      <trkpt lat="44.77533" lon="5.05097">
        <ele>392.36</ele>
        <time>2016-08-22T13:02:03Z</time>
      </trkpt>
      <trkpt lat="44.77549" lon="5.05116">
        <ele>394.76</ele>
        <time>2016-08-22T13:02:15Z</time>
      </trkpt>
      <trkpt lat="44.7755" lon="5.05118">
        <ele>395.24</ele>
        <time>2016-08-22T13:02:16Z</time>
      </trkpt>
      <trkpt lat="44.77552" lon="5.05119">
        <ele>395.24</ele>
        <time>2016-08-22T13:02:17Z</time>
      </trkpt>
      <trkpt lat="44.77553" lon="5.05121">
        <ele>395.72</ele>
        <time>2016-08-22T13:02:18Z</time>
      </trkpt>
      <trkpt lat="44.77554" lon="5.05123">
        <ele>395.72</ele>
        <time>2016-08-22T13:02:19Z</time>
      </trkpt>
      <trkpt lat="44.77556" lon="5.05125">
        <ele>395.72</ele>
        <time>2016-08-22T13:02:20Z</time>
      </trkpt>
      <trkpt lat="44.77557" lon="5.05127">
        <ele>396.2</ele>
        <time>2016-08-22T13:02:21Z</time>
      </trkpt>
      <trkpt lat="44.77559" lon="5.05129">
        <ele>396.2</ele>
        <time>2016-08-22T13:02:22Z</time>
      </trkpt>
      <trkpt lat="44.7756" lon="5.0513">
        <ele>396.2</ele>
        <time>2016-08-22T13:02:23Z</time>
      </trkpt>
      <trkpt lat="44.77579" lon="5.05147">
        <ele>397.16</ele>
        <time>2016-08-22T13:02:35Z</time>
      </trkpt>
      <trkpt lat="44.77596" lon="5.05165">
        <ele>398.6</ele>
        <time>2016-08-22T13:02:46Z</time>
      </trkpt>
      <trkpt lat="44.77618" lon="5.05195">
        <ele>401.49</ele>
        <time>2016-08-22T13:03:00Z</time>
      </trkpt>
      <trkpt lat="44.77634" lon="5.05225">
        <ele>403.89</ele>
        <time>2016-08-22T13:03:15Z</time>
      </trkpt>
      <trkpt lat="44.7764" lon="5.0523">
        <ele>404.37</ele>
        <time>2016-08-22T13:03:24Z</time>
      </trkpt>
      <trkpt lat="44.77652" lon="5.05232">
        <ele>407.74</ele>
        <time>2016-08-22T13:03:35Z</time>
      </trkpt>
      <trkpt lat="44.77658" lon="5.05236">
        <ele>408.7</ele>
        <time>2016-08-22T13:03:42Z</time>
      </trkpt>
      <trkpt lat="44.77659" lon="5.05237">
        <ele>409.18</ele>
        <time>2016-08-22T13:03:43Z</time>
      </trkpt>
      <trkpt lat="44.77663" lon="5.05242">
        <ele>410.14</ele>
        <time>2016-08-22T13:03:49Z</time>
      </trkpt>
      <trkpt lat="44.77665" lon="5.05244">
        <ele>410.14</ele>
        <time>2016-08-22T13:03:51Z</time>
      </trkpt>
      <trkpt lat="44.77665" lon="5.05245">
        <ele>410.62</ele>
        <time>2016-08-22T13:03:52Z</time>
      </trkpt>
      <trkpt lat="44.77669" lon="5.05255">
        <ele>413.02</ele>
        <time>2016-08-22T13:04:00Z</time>
      </trkpt>
      <trkpt lat="44.77673" lon="5.05261">
        <ele>414.47</ele>
        <time>2016-08-22T13:04:06Z</time>
      </trkpt>
      <trkpt lat="44.77675" lon="5.05262">
        <ele>414.95</ele>
        <time>2016-08-22T13:04:08Z</time>
      </trkpt>
      <trkpt lat="44.77679" lon="5.05266">
        <ele>415.43</ele>
        <time>2016-08-22T13:04:13Z</time>
      </trkpt>
      <trkpt lat="44.77689" lon="5.05276">
        <ele>418.31</ele>
        <time>2016-08-22T13:04:27Z</time>
      </trkpt>
      <trkpt lat="44.77691" lon="5.0528">
        <ele>419.27</ele>
        <time>2016-08-22T13:04:37Z</time>
      </trkpt>
      <trkpt lat="44.77692" lon="5.05282">
        <ele>419.27</ele>
        <time>2016-08-22T13:04:38Z</time>
      </trkpt>
      <trkpt lat="44.77693" lon="5.05283">
        <ele>419.75</ele>
        <time>2016-08-22T13:04:39Z</time>
      </trkpt>
      <trkpt lat="44.77694" lon="5.05285">
        <ele>419.75</ele>
        <time>2016-08-22T13:04:40Z</time>
      </trkpt>
      <trkpt lat="44.77694" lon="5.05287">
        <ele>420.23</ele>
        <time>2016-08-22T13:04:41Z</time>
      </trkpt>
      <trkpt lat="44.77695" lon="5.05289">
        <ele>420.23</ele>
        <time>2016-08-22T13:04:42Z</time>
      </trkpt>
      <trkpt lat="44.77696" lon="5.0529">
        <ele>420.23</ele>
        <time>2016-08-22T13:04:43Z</time>
      </trkpt>
      <trkpt lat="44.77703" lon="5.05307">
        <ele>423.6</ele>
        <time>2016-08-22T13:04:54Z</time>
      </trkpt>
      <trkpt lat="44.77705" lon="5.05314">
        <ele>425.04</ele>
        <time>2016-08-22T13:05:02Z</time>
      </trkpt>
      <trkpt lat="44.77706" lon="5.0532">
        <ele>426</ele>
        <time>2016-08-22T13:05:06Z</time>
      </trkpt>
      <trkpt lat="44.7771" lon="5.05329">
        <ele>427.44</ele>
        <time>2016-08-22T13:05:13Z</time>
      </trkpt>
      <trkpt lat="44.7771" lon="5.05331">
        <ele>427.92</ele>
        <time>2016-08-22T13:05:15Z</time>
      </trkpt>
      <trkpt lat="44.77718" lon="5.05349">
        <ele>431.29</ele>
        <time>2016-08-22T13:05:29Z</time>
      </trkpt>
      <trkpt lat="44.77722" lon="5.05364">
        <ele>434.65</ele>
        <time>2016-08-22T13:05:41Z</time>
      </trkpt>
      <trkpt lat="44.77722" lon="5.05365">
        <ele>434.65</ele>
        <time>2016-08-22T13:05:42Z</time>
      </trkpt>
      <trkpt lat="44.77722" lon="5.05367">
        <ele>434.65</ele>
        <time>2016-08-22T13:05:43Z</time>
      </trkpt>
      <trkpt lat="44.77722" lon="5.05369">
        <ele>435.13</ele>
        <time>2016-08-22T13:05:44Z</time>
      </trkpt>
      <trkpt lat="44.77723" lon="5.05371">
        <ele>435.13</ele>
        <time>2016-08-22T13:05:45Z</time>
      </trkpt>
      <trkpt lat="44.77725" lon="5.0538">
        <ele>436.1</ele>
        <time>2016-08-22T13:05:51Z</time>
      </trkpt>
      <trkpt lat="44.77726" lon="5.05381">
        <ele>436.1</ele>
        <time>2016-08-22T13:05:52Z</time>
      </trkpt>
      <trkpt lat="44.77727" lon="5.05383">
        <ele>436.58</ele>
        <time>2016-08-22T13:05:53Z</time>
      </trkpt>
      <trkpt lat="44.77728" lon="5.05384">
        <ele>437.06</ele>
        <time>2016-08-22T13:05:54Z</time>
      </trkpt>
      <trkpt lat="44.77729" lon="5.05385">
        <ele>437.06</ele>
        <time>2016-08-22T13:05:55Z</time>
      </trkpt>
      <trkpt lat="44.7773" lon="5.05385">
        <ele>437.06</ele>
        <time>2016-08-22T13:06:09Z</time>
      </trkpt>
      <trkpt lat="44.7773" lon="5.05385">
        <ele>437.06</ele>
        <time>2016-08-22T13:06:11Z</time>
      </trkpt>
      <trkpt lat="44.77728" lon="5.05383">
        <ele>437.54</ele>
        <time>2016-08-22T13:07:18Z</time>
      </trkpt>
      <trkpt lat="44.77728" lon="5.05384">
        <ele>437.54</ele>
        <time>2016-08-22T13:07:19Z</time>
      </trkpt>
      <trkpt lat="44.77745" lon="5.05384">
        <ele>438.5</ele>
        <time>2016-08-22T13:07:30Z</time>
      </trkpt>
      <trkpt lat="44.77757" lon="5.05383">
        <ele>440.42</ele>
        <time>2016-08-22T13:07:38Z</time>
      </trkpt>
      <trkpt lat="44.7777" lon="5.0538">
        <ele>440.42</ele>
        <time>2016-08-22T13:07:45Z</time>
      </trkpt>
      <trkpt lat="44.77782" lon="5.05377">
        <ele>443.31</ele>
        <time>2016-08-22T13:07:52Z</time>
      </trkpt>
      <trkpt lat="44.77805" lon="5.05372">
        <ele>443.31</ele>
        <time>2016-08-22T13:08:04Z</time>
      </trkpt>
      <trkpt lat="44.77825" lon="5.05375">
        <ele>445.23</ele>
        <time>2016-08-22T13:08:14Z</time>
      </trkpt>
      <trkpt lat="44.77832" lon="5.05376">
        <ele>446.19</ele>
        <time>2016-08-22T13:08:19Z</time>
      </trkpt>
      <trkpt lat="44.77834" lon="5.05376">
        <ele>446.67</ele>
        <time>2016-08-22T13:08:20Z</time>
      </trkpt>
      <trkpt lat="44.77846" lon="5.05374">
        <ele>448.59</ele>
        <time>2016-08-22T13:08:27Z</time>
      </trkpt>
      <trkpt lat="44.77862" lon="5.0537">
        <ele>451.48</ele>
        <time>2016-08-22T13:08:40Z</time>
      </trkpt>
      <trkpt lat="44.77865" lon="5.0537">
        <ele>452.44</ele>
        <time>2016-08-22T13:08:43Z</time>
      </trkpt>
      <trkpt lat="44.7787" lon="5.05369">
        <ele>453.4</ele>
        <time>2016-08-22T13:08:48Z</time>
      </trkpt>
      <trkpt lat="44.77873" lon="5.05369">
        <ele>453.88</ele>
        <time>2016-08-22T13:08:50Z</time>
      </trkpt>
      <trkpt lat="44.77886" lon="5.05368">
        <ele>456.28</ele>
        <time>2016-08-22T13:09:03Z</time>
      </trkpt>
      <trkpt lat="44.7789" lon="5.05367">
        <ele>457.24</ele>
        <time>2016-08-22T13:09:06Z</time>
      </trkpt>
      <trkpt lat="44.77904" lon="5.05365">
        <ele>460.61</ele>
        <time>2016-08-22T13:09:21Z</time>
      </trkpt>
      <trkpt lat="44.77906" lon="5.05366">
        <ele>460.61</ele>
        <time>2016-08-22T13:09:23Z</time>
      </trkpt>
      <trkpt lat="44.77919" lon="5.05376">
        <ele>463.49</ele>
        <time>2016-08-22T13:09:36Z</time>
      </trkpt>
      <trkpt lat="44.77923" lon="5.05378">
        <ele>464.45</ele>
        <time>2016-08-22T13:09:46Z</time>
      </trkpt>
      <trkpt lat="44.77936" lon="5.0538">
        <ele>467.82</ele>
        <time>2016-08-22T13:09:58Z</time>
      </trkpt>
      <trkpt lat="44.77937" lon="5.0538">
        <ele>468.3</ele>
        <time>2016-08-22T13:10:11Z</time>
      </trkpt>
      <trkpt lat="44.77943" lon="5.05381">
        <ele>469.26</ele>
        <time>2016-08-22T13:10:23Z</time>
      </trkpt>
      <trkpt lat="44.77956" lon="5.05379">
        <ele>472.63</ele>
        <time>2016-08-22T13:10:36Z</time>
      </trkpt>
      <trkpt lat="44.77969" lon="5.05377">
        <ele>475.03</ele>
        <time>2016-08-22T13:10:48Z</time>
      </trkpt>
      <trkpt lat="44.77985" lon="5.05373">
        <ele>478.39</ele>
        <time>2016-08-22T13:11:02Z</time>
      </trkpt>
      <trkpt lat="44.77991" lon="5.0537">
        <ele>479.84</ele>
        <time>2016-08-22T13:11:08Z</time>
      </trkpt>
      <trkpt lat="44.77999" lon="5.05362">
        <ele>480.32</ele>
        <time>2016-08-22T13:11:20Z</time>
      </trkpt>
      <trkpt lat="44.78005" lon="5.05358">
        <ele>480.32</ele>
        <time>2016-08-22T13:11:24Z</time>
      </trkpt>
      <trkpt lat="44.78014" lon="5.05359">
        <ele>482.72</ele>
        <time>2016-08-22T13:11:31Z</time>
      </trkpt>
      <trkpt lat="44.78014" lon="5.05368">
        <ele>482.72</ele>
        <time>2016-08-22T13:11:36Z</time>
      </trkpt>
      <trkpt lat="44.78003" lon="5.05402">
        <ele>483.68</ele>
        <time>2016-08-22T13:11:49Z</time>
      </trkpt>
      <trkpt lat="44.77986" lon="5.05429">
        <ele>484.16</ele>
        <time>2016-08-22T13:12:00Z</time>
      </trkpt>
      <trkpt lat="44.77969" lon="5.05447">
        <ele>485.12</ele>
        <time>2016-08-22T13:12:10Z</time>
      </trkpt>
      <trkpt lat="44.77948" lon="5.0547">
        <ele>487.53</ele>
        <time>2016-08-22T13:12:24Z</time>
      </trkpt>
      <trkpt lat="44.77943" lon="5.05478">
        <ele>488.49</ele>
        <time>2016-08-22T13:12:28Z</time>
      </trkpt>
      <trkpt lat="44.77929" lon="5.05489">
        <ele>490.89</ele>
        <time>2016-08-22T13:12:39Z</time>
      </trkpt>
      <trkpt lat="44.77913" lon="5.05505">
        <ele>492.33</ele>
        <time>2016-08-22T13:12:49Z</time>
      </trkpt>
      <trkpt lat="44.77897" lon="5.05527">
        <ele>494.74</ele>
        <time>2016-08-22T13:13:02Z</time>
      </trkpt>
      <trkpt lat="44.77891" lon="5.05537">
        <ele>495.7</ele>
        <time>2016-08-22T13:13:07Z</time>
      </trkpt>
      <trkpt lat="44.77882" lon="5.05547">
        <ele>497.62</ele>
        <time>2016-08-22T13:13:13Z</time>
      </trkpt>
      <trkpt lat="44.77874" lon="5.05555">
        <ele>498.58</ele>
        <time>2016-08-22T13:13:18Z</time>
      </trkpt>
      <trkpt lat="44.77866" lon="5.0558">
        <ele>499.06</ele>
        <time>2016-08-22T13:13:29Z</time>
      </trkpt>
      <trkpt lat="44.77864" lon="5.05615">
        <ele>500.5</ele>
        <time>2016-08-22T13:13:40Z</time>
      </trkpt>
      <trkpt lat="44.77857" lon="5.05624">
        <ele>500.02</ele>
        <time>2016-08-22T13:13:44Z</time>
      </trkpt>
      <trkpt lat="44.77826" lon="5.0564">
        <ele>500.5</ele>
        <time>2016-08-22T13:13:58Z</time>
      </trkpt>
      <trkpt lat="44.77809" lon="5.05657">
        <ele>502.43</ele>
        <time>2016-08-22T13:14:08Z</time>
      </trkpt>
      <trkpt lat="44.77803" lon="5.05669">
        <ele>503.87</ele>
        <time>2016-08-22T13:14:14Z</time>
      </trkpt>
      <trkpt lat="44.77793" lon="5.05698">
        <ele>505.79</ele>
        <time>2016-08-22T13:14:27Z</time>
      </trkpt>
      <trkpt lat="44.7779" lon="5.05708">
        <ele>505.79</ele>
        <time>2016-08-22T13:14:31Z</time>
      </trkpt>
      <trkpt lat="44.77785" lon="5.05717">
        <ele>506.27</ele>
        <time>2016-08-22T13:14:35Z</time>
      </trkpt>
      <trkpt lat="44.77773" lon="5.05749">
        <ele>507.23</ele>
        <time>2016-08-22T13:14:47Z</time>
      </trkpt>
      <trkpt lat="44.77762" lon="5.05782">
        <ele>509.16</ele>
        <time>2016-08-22T13:15:01Z</time>
      </trkpt>
      <trkpt lat="44.77759" lon="5.05804">
        <ele>512.52</ele>
        <time>2016-08-22T13:15:11Z</time>
      </trkpt>
      <trkpt lat="44.77758" lon="5.05809">
        <ele>513</ele>
        <time>2016-08-22T13:15:13Z</time>
      </trkpt>
      <trkpt lat="44.77756" lon="5.05814">
        <ele>513.96</ele>
        <time>2016-08-22T13:15:16Z</time>
      </trkpt>
      <trkpt lat="44.77756" lon="5.05835">
        <ele>514.92</ele>
        <time>2016-08-22T13:15:24Z</time>
      </trkpt>
      <trkpt lat="44.7776" lon="5.05849">
        <ele>515.4</ele>
        <time>2016-08-22T13:15:30Z</time>
      </trkpt>
      <trkpt lat="44.77766" lon="5.0587">
        <ele>515.4</ele>
        <time>2016-08-22T13:15:36Z</time>
      </trkpt>
      <trkpt lat="44.77777" lon="5.05911">
        <ele>516.85</ele>
        <time>2016-08-22T13:15:49Z</time>
      </trkpt>
      <trkpt lat="44.77782" lon="5.0592">
        <ele>517.81</ele>
        <time>2016-08-22T13:15:53Z</time>
      </trkpt>
      <trkpt lat="44.77793" lon="5.05931">
        <ele>519.73</ele>
        <time>2016-08-22T13:16:01Z</time>
      </trkpt>
      <trkpt lat="44.77791" lon="5.05948">
        <ele>521.65</ele>
        <time>2016-08-22T13:16:12Z</time>
      </trkpt>
      <trkpt lat="44.7779" lon="5.05949">
        <ele>521.65</ele>
        <time>2016-08-22T13:16:13Z</time>
      </trkpt>
      <trkpt lat="44.77776" lon="5.05976">
        <ele>521.65</ele>
        <time>2016-08-22T13:16:25Z</time>
      </trkpt>
      <trkpt lat="44.77777" lon="5.05977">
        <ele>521.65</ele>
        <time>2016-08-22T13:16:27Z</time>
      </trkpt>
      <trkpt lat="44.77787" lon="5.06005">
        <ele>520.69</ele>
        <time>2016-08-22T13:16:37Z</time>
      </trkpt>
      <trkpt lat="44.77788" lon="5.06014">
        <ele>520.69</ele>
        <time>2016-08-22T13:16:39Z</time>
      </trkpt>
      <trkpt lat="44.77774" lon="5.0606">
        <ele>521.65</ele>
        <time>2016-08-22T13:16:51Z</time>
      </trkpt>
      <trkpt lat="44.77772" lon="5.06091">
        <ele>524.06</ele>
        <time>2016-08-22T13:17:00Z</time>
      </trkpt>
      <trkpt lat="44.77773" lon="5.06125">
        <ele>525.02</ele>
        <time>2016-08-22T13:17:09Z</time>
      </trkpt>
      <trkpt lat="44.77792" lon="5.06164">
        <ele>525.5</ele>
        <time>2016-08-22T13:17:19Z</time>
      </trkpt>
      <trkpt lat="44.77799" lon="5.06175">
        <ele>525.5</ele>
        <time>2016-08-22T13:17:22Z</time>
      </trkpt>
      <trkpt lat="44.77798" lon="5.06196">
        <ele>525.98</ele>
        <time>2016-08-22T13:17:27Z</time>
      </trkpt>
      <trkpt lat="44.77797" lon="5.06207">
        <ele>526.46</ele>
        <time>2016-08-22T13:17:30Z</time>
      </trkpt>
      <trkpt lat="44.77793" lon="5.06213">
        <ele>528.86</ele>
        <time>2016-08-22T13:17:36Z</time>
      </trkpt>
      <trkpt lat="44.77791" lon="5.0621">
        <ele>528.86</ele>
        <time>2016-08-22T13:17:38Z</time>
      </trkpt>
      <trkpt lat="44.77787" lon="5.06212">
        <ele>529.82</ele>
        <time>2016-08-22T13:17:43Z</time>
      </trkpt>
      <trkpt lat="44.77784" lon="5.06214">
        <ele>530.79</ele>
        <time>2016-08-22T13:17:46Z</time>
      </trkpt>
      <trkpt lat="44.77779" lon="5.06214">
        <ele>531.27</ele>
        <time>2016-08-22T13:17:50Z</time>
      </trkpt>
      <trkpt lat="44.77769" lon="5.06224">
        <ele>532.71</ele>
        <time>2016-08-22T13:18:00Z</time>
      </trkpt>
      <trkpt lat="44.77758" lon="5.06233">
        <ele>531.75</ele>
        <time>2016-08-22T13:18:07Z</time>
      </trkpt>
      <trkpt lat="44.77739" lon="5.06239">
        <ele>532.23</ele>
        <time>2016-08-22T13:18:15Z</time>
      </trkpt>
      <trkpt lat="44.77732" lon="5.06235">
        <ele>533.19</ele>
        <time>2016-08-22T13:18:19Z</time>
      </trkpt>
      <trkpt lat="44.77725" lon="5.06232">
        <ele>536.55</ele>
        <time>2016-08-22T13:18:26Z</time>
      </trkpt>
      <trkpt lat="44.77722" lon="5.06231">
        <ele>537.51</ele>
        <time>2016-08-22T13:18:32Z</time>
      </trkpt>
      <trkpt lat="44.77706" lon="5.0623">
        <ele>538.96</ele>
        <time>2016-08-22T13:18:41Z</time>
      </trkpt>
      <trkpt lat="44.77703" lon="5.06237">
        <ele>540.4</ele>
        <time>2016-08-22T13:18:45Z</time>
      </trkpt>
      <trkpt lat="44.77697" lon="5.06242">
        <ele>541.36</ele>
        <time>2016-08-22T13:18:50Z</time>
      </trkpt>
      <trkpt lat="44.77693" lon="5.06245">
        <ele>541.84</ele>
        <time>2016-08-22T13:18:59Z</time>
      </trkpt>
      <trkpt lat="44.77692" lon="5.06246">
        <ele>541.84</ele>
        <time>2016-08-22T13:19:00Z</time>
      </trkpt>
      <trkpt lat="44.7769" lon="5.06253">
        <ele>543.28</ele>
        <time>2016-08-22T13:19:05Z</time>
      </trkpt>
      <trkpt lat="44.77684" lon="5.06259">
        <ele>545.2</ele>
        <time>2016-08-22T13:19:12Z</time>
      </trkpt>
      <trkpt lat="44.77683" lon="5.06261">
        <ele>545.69</ele>
        <time>2016-08-22T13:19:14Z</time>
      </trkpt>
      <trkpt lat="44.77676" lon="5.06279">
        <ele>549.05</ele>
        <time>2016-08-22T13:19:29Z</time>
      </trkpt>
      <trkpt lat="44.7767" lon="5.06292">
        <ele>551.93</ele>
        <time>2016-08-22T13:19:40Z</time>
      </trkpt>
      <trkpt lat="44.77662" lon="5.06301">
        <ele>554.34</ele>
        <time>2016-08-22T13:19:51Z</time>
      </trkpt>
      <trkpt lat="44.77659" lon="5.06303">
        <ele>554.82</ele>
        <time>2016-08-22T13:19:54Z</time>
      </trkpt>
      <trkpt lat="44.77653" lon="5.06311">
        <ele>557.7</ele>
        <time>2016-08-22T13:20:02Z</time>
      </trkpt>
      <trkpt lat="44.77652" lon="5.06312">
        <ele>558.18</ele>
        <time>2016-08-22T13:20:03Z</time>
      </trkpt>
      <trkpt lat="44.77649" lon="5.06315">
        <ele>559.14</ele>
        <time>2016-08-22T13:20:07Z</time>
      </trkpt>
      <trkpt lat="44.77646" lon="5.06317">
        <ele>560.11</ele>
        <time>2016-08-22T13:20:10Z</time>
      </trkpt>
      <trkpt lat="44.77643" lon="5.06318">
        <ele>560.59</ele>
        <time>2016-08-22T13:20:13Z</time>
      </trkpt>
      <trkpt lat="44.77637" lon="5.06324">
        <ele>562.03</ele>
        <time>2016-08-22T13:20:26Z</time>
      </trkpt>
      <trkpt lat="44.77635" lon="5.06325">
        <ele>562.51</ele>
        <time>2016-08-22T13:20:28Z</time>
      </trkpt>
      <trkpt lat="44.77632" lon="5.06327">
        <ele>562.99</ele>
        <time>2016-08-22T13:20:31Z</time>
      </trkpt>
      <trkpt lat="44.77627" lon="5.0633">
        <ele>563.95</ele>
        <time>2016-08-22T13:20:35Z</time>
      </trkpt>
      <trkpt lat="44.7762" lon="5.06333">
        <ele>565.39</ele>
        <time>2016-08-22T13:20:41Z</time>
      </trkpt>
      <trkpt lat="44.77608" lon="5.06342">
        <ele>568.76</ele>
        <time>2016-08-22T13:20:51Z</time>
      </trkpt>
      <trkpt lat="44.77608" lon="5.06343">
        <ele>568.76</ele>
        <time>2016-08-22T13:20:52Z</time>
      </trkpt>
      <trkpt lat="44.77605" lon="5.06346">
        <ele>569.72</ele>
        <time>2016-08-22T13:20:56Z</time>
      </trkpt>
      <trkpt lat="44.77603" lon="5.06348">
        <ele>570.2</ele>
        <time>2016-08-22T13:20:58Z</time>
      </trkpt>
      <trkpt lat="44.77584" lon="5.0636">
        <ele>573.08</ele>
        <time>2016-08-22T13:21:12Z</time>
      </trkpt>
      <trkpt lat="44.77581" lon="5.06361">
        <ele>574.04</ele>
        <time>2016-08-22T13:21:14Z</time>
      </trkpt>
      <trkpt lat="44.77578" lon="5.06362">
        <ele>574.53</ele>
        <time>2016-08-22T13:21:16Z</time>
      </trkpt>
      <trkpt lat="44.77562" lon="5.06369">
        <ele>577.41</ele>
        <time>2016-08-22T13:21:29Z</time>
      </trkpt>
      <trkpt lat="44.7756" lon="5.06369">
        <ele>577.89</ele>
        <time>2016-08-22T13:21:30Z</time>
      </trkpt>
      <trkpt lat="44.77546" lon="5.06374">
        <ele>580.77</ele>
        <time>2016-08-22T13:21:42Z</time>
      </trkpt>
      <trkpt lat="44.77539" lon="5.06374">
        <ele>582.22</ele>
        <time>2016-08-22T13:21:48Z</time>
      </trkpt>
      <trkpt lat="44.77534" lon="5.06373">
        <ele>583.66</ele>
        <time>2016-08-22T13:21:52Z</time>
      </trkpt>
      <trkpt lat="44.77522" lon="5.06369">
        <ele>586.06</ele>
        <time>2016-08-22T13:22:04Z</time>
      </trkpt>
      <trkpt lat="44.77516" lon="5.06364">
        <ele>588.46</ele>
        <time>2016-08-22T13:22:12Z</time>
      </trkpt>
      <trkpt lat="44.7751" lon="5.0636">
        <ele>589.43</ele>
        <time>2016-08-22T13:22:17Z</time>
      </trkpt>
      <trkpt lat="44.77501" lon="5.06357">
        <ele>591.35</ele>
        <time>2016-08-22T13:22:25Z</time>
      </trkpt>
      <trkpt lat="44.77499" lon="5.06365">
        <ele>594.23</ele>
        <time>2016-08-22T13:22:33Z</time>
      </trkpt>
      <trkpt lat="44.77499" lon="5.06369">
        <ele>594.23</ele>
        <time>2016-08-22T13:22:35Z</time>
      </trkpt>
      <trkpt lat="44.77497" lon="5.06375">
        <ele>593.75</ele>
        <time>2016-08-22T13:22:39Z</time>
      </trkpt>
      <trkpt lat="44.77497" lon="5.06389">
        <ele>594.23</ele>
        <time>2016-08-22T13:22:46Z</time>
      </trkpt>
      <trkpt lat="44.77495" lon="5.06389">
        <ele>593.75</ele>
        <time>2016-08-22T13:22:55Z</time>
      </trkpt>
      <trkpt lat="44.77495" lon="5.0639">
        <ele>594.23</ele>
        <time>2016-08-22T13:23:06Z</time>
      </trkpt>
      <trkpt lat="44.77495" lon="5.0639">
        <ele>594.71</ele>
        <time>2016-08-22T13:23:10Z</time>
      </trkpt>
      <trkpt lat="44.77501" lon="5.06363">
        <ele>593.27</ele>
        <time>2016-08-22T13:28:38Z</time>
      </trkpt>
      <trkpt lat="44.77496" lon="5.06383">
        <ele>595.67</ele>
        <time>2016-08-22T13:28:46Z</time>
      </trkpt>
      <trkpt lat="44.77499" lon="5.06376">
        <ele>597.12</ele>
        <time>2016-08-22T13:28:51Z</time>
      </trkpt>
      <trkpt lat="44.77495" lon="5.06347">
        <ele>600.48</ele>
        <time>2016-08-22T13:29:00Z</time>
      </trkpt>
      <trkpt lat="44.77488" lon="5.06337">
        <ele>602.4</ele>
        <time>2016-08-22T13:29:04Z</time>
      </trkpt>
      <trkpt lat="44.77487" lon="5.06306">
        <ele>602.88</ele>
        <time>2016-08-22T13:29:11Z</time>
      </trkpt>
      <trkpt lat="44.77486" lon="5.063">
        <ele>602.4</ele>
        <time>2016-08-22T13:29:12Z</time>
      </trkpt>
      <trkpt lat="44.77486" lon="5.06294">
        <ele>602.88</ele>
        <time>2016-08-22T13:29:13Z</time>
      </trkpt>
      <trkpt lat="44.77486" lon="5.0629">
        <ele>602.88</ele>
        <time>2016-08-22T13:29:14Z</time>
      </trkpt>
      <trkpt lat="44.77487" lon="5.06287">
        <ele>602.88</ele>
        <time>2016-08-22T13:29:15Z</time>
      </trkpt>
      <trkpt lat="44.77487" lon="5.06282">
        <ele>602.88</ele>
        <time>2016-08-22T13:29:16Z</time>
      </trkpt>
      <trkpt lat="44.77489" lon="5.06277">
        <ele>602.4</ele>
        <time>2016-08-22T13:29:17Z</time>
      </trkpt>
      <trkpt lat="44.7749" lon="5.06273">
        <ele>601.92</ele>
        <time>2016-08-22T13:29:18Z</time>
      </trkpt>
      <trkpt lat="44.77491" lon="5.06269">
        <ele>601.92</ele>
        <time>2016-08-22T13:29:19Z</time>
      </trkpt>
      <trkpt lat="44.77491" lon="5.06265">
        <ele>601.92</ele>
        <time>2016-08-22T13:29:20Z</time>
      </trkpt>
      <trkpt lat="44.77492" lon="5.06261">
        <ele>601.44</ele>
        <time>2016-08-22T13:29:21Z</time>
      </trkpt>
      <trkpt lat="44.77492" lon="5.06257">
        <ele>600.96</ele>
        <time>2016-08-22T13:29:22Z</time>
      </trkpt>
      <trkpt lat="44.77493" lon="5.06254">
        <ele>600.48</ele>
        <time>2016-08-22T13:29:23Z</time>
      </trkpt>
      <trkpt lat="44.77494" lon="5.06249">
        <ele>600</ele>
        <time>2016-08-22T13:29:24Z</time>
      </trkpt>
      <trkpt lat="44.77495" lon="5.06246">
        <ele>600</ele>
        <time>2016-08-22T13:29:25Z</time>
      </trkpt>
      <trkpt lat="44.77496" lon="5.06243">
        <ele>600</ele>
        <time>2016-08-22T13:29:26Z</time>
      </trkpt>
      <trkpt lat="44.77496" lon="5.0624">
        <ele>599.52</ele>
        <time>2016-08-22T13:29:27Z</time>
      </trkpt>
      <trkpt lat="44.77497" lon="5.06238">
        <ele>599.04</ele>
        <time>2016-08-22T13:29:28Z</time>
      </trkpt>
      <trkpt lat="44.77498" lon="5.06235">
        <ele>599.04</ele>
        <time>2016-08-22T13:29:29Z</time>
      </trkpt>
      <trkpt lat="44.77499" lon="5.06233">
        <ele>598.56</ele>
        <time>2016-08-22T13:29:30Z</time>
      </trkpt>
      <trkpt lat="44.775" lon="5.06231">
        <ele>598.08</ele>
        <time>2016-08-22T13:29:31Z</time>
      </trkpt>
      <trkpt lat="44.77501" lon="5.06228">
        <ele>597.12</ele>
        <time>2016-08-22T13:29:32Z</time>
      </trkpt>
      <trkpt lat="44.77501" lon="5.06227">
        <ele>596.15</ele>
        <time>2016-08-22T13:29:33Z</time>
      </trkpt>
      <trkpt lat="44.77504" lon="5.06218">
        <ele>594.23</ele>
        <time>2016-08-22T13:29:44Z</time>
      </trkpt>
      <trkpt lat="44.77507" lon="5.06209">
        <ele>592.79</ele>
        <time>2016-08-22T13:29:53Z</time>
      </trkpt>
      <trkpt lat="44.77508" lon="5.06207">
        <ele>591.83</ele>
        <time>2016-08-22T13:29:54Z</time>
      </trkpt>
      <trkpt lat="44.77508" lon="5.06204">
        <ele>591.35</ele>
        <time>2016-08-22T13:29:55Z</time>
      </trkpt>
      <trkpt lat="44.77509" lon="5.06199">
        <ele>589.91</ele>
        <time>2016-08-22T13:29:57Z</time>
      </trkpt>
      <trkpt lat="44.7751" lon="5.06196">
        <ele>589.43</ele>
        <time>2016-08-22T13:29:58Z</time>
      </trkpt>
      <trkpt lat="44.77511" lon="5.06193">
        <ele>588.95</ele>
        <time>2016-08-22T13:29:59Z</time>
      </trkpt>
      <trkpt lat="44.77515" lon="5.06178">
        <ele>585.1</ele>
        <time>2016-08-22T13:30:05Z</time>
      </trkpt>
      <trkpt lat="44.77515" lon="5.06175">
        <ele>584.14</ele>
        <time>2016-08-22T13:30:06Z</time>
      </trkpt>
      <trkpt lat="44.77514" lon="5.06171">
        <ele>584.14</ele>
        <time>2016-08-22T13:30:07Z</time>
      </trkpt>
      <trkpt lat="44.77514" lon="5.06168">
        <ele>583.66</ele>
        <time>2016-08-22T13:30:08Z</time>
      </trkpt>
      <trkpt lat="44.77518" lon="5.06152">
        <ele>580.29</ele>
        <time>2016-08-22T13:30:12Z</time>
      </trkpt>
      <trkpt lat="44.77519" lon="5.06147">
        <ele>579.33</ele>
        <time>2016-08-22T13:30:14Z</time>
      </trkpt>
      <trkpt lat="44.7752" lon="5.06134">
        <ele>577.41</ele>
        <time>2016-08-22T13:30:18Z</time>
      </trkpt>
      <trkpt lat="44.77522" lon="5.06129">
        <ele>576.93</ele>
        <time>2016-08-22T13:30:20Z</time>
      </trkpt>
      <trkpt lat="44.77525" lon="5.06124">
        <ele>573.56</ele>
        <time>2016-08-22T13:30:27Z</time>
      </trkpt>
      <trkpt lat="44.77525" lon="5.06117">
        <ele>571.64</ele>
        <time>2016-08-22T13:30:35Z</time>
      </trkpt>
      <trkpt lat="44.77526" lon="5.06114">
        <ele>571.16</ele>
        <time>2016-08-22T13:30:36Z</time>
      </trkpt>
      <trkpt lat="44.77526" lon="5.0611">
        <ele>570.68</ele>
        <time>2016-08-22T13:30:37Z</time>
      </trkpt>
      <trkpt lat="44.77526" lon="5.06106">
        <ele>569.72</ele>
        <time>2016-08-22T13:30:38Z</time>
      </trkpt>
      <trkpt lat="44.77526" lon="5.06102">
        <ele>569.24</ele>
        <time>2016-08-22T13:30:39Z</time>
      </trkpt>
      <trkpt lat="44.77527" lon="5.06093">
        <ele>568.28</ele>
        <time>2016-08-22T13:30:41Z</time>
      </trkpt>
      <trkpt lat="44.77528" lon="5.06088">
        <ele>567.32</ele>
        <time>2016-08-22T13:30:42Z</time>
      </trkpt>
      <trkpt lat="44.77528" lon="5.06085">
        <ele>566.83</ele>
        <time>2016-08-22T13:30:43Z</time>
      </trkpt>
      <trkpt lat="44.77528" lon="5.06071">
        <ele>564.91</ele>
        <time>2016-08-22T13:30:47Z</time>
      </trkpt>
      <trkpt lat="44.77526" lon="5.06053">
        <ele>562.51</ele>
        <time>2016-08-22T13:30:53Z</time>
      </trkpt>
      <trkpt lat="44.77523" lon="5.06046">
        <ele>561.07</ele>
        <time>2016-08-22T13:30:57Z</time>
      </trkpt>
      <trkpt lat="44.7752" lon="5.06031">
        <ele>558.66</ele>
        <time>2016-08-22T13:31:02Z</time>
      </trkpt>
      <trkpt lat="44.77518" lon="5.06027">
        <ele>558.18</ele>
        <time>2016-08-22T13:31:04Z</time>
      </trkpt>
      <trkpt lat="44.77513" lon="5.06014">
        <ele>555.78</ele>
        <time>2016-08-22T13:31:09Z</time>
      </trkpt>
      <trkpt lat="44.77512" lon="5.0599">
        <ele>553.38</ele>
        <time>2016-08-22T13:31:16Z</time>
      </trkpt>
      <trkpt lat="44.77511" lon="5.05983">
        <ele>552.41</ele>
        <time>2016-08-22T13:31:18Z</time>
      </trkpt>
      <trkpt lat="44.7751" lon="5.0598">
        <ele>552.9</ele>
        <time>2016-08-22T13:31:22Z</time>
      </trkpt>
      <trkpt lat="44.77509" lon="5.05961">
        <ele>550.01</ele>
        <time>2016-08-22T13:31:28Z</time>
      </trkpt>
      <trkpt lat="44.77508" lon="5.0595">
        <ele>550.01</ele>
        <time>2016-08-22T13:31:30Z</time>
      </trkpt>
      <trkpt lat="44.77501" lon="5.05932">
        <ele>548.57</ele>
        <time>2016-08-22T13:31:35Z</time>
      </trkpt>
      <trkpt lat="44.77487" lon="5.05916">
        <ele>546.65</ele>
        <time>2016-08-22T13:31:39Z</time>
      </trkpt>
      <trkpt lat="44.77475" lon="5.05904">
        <ele>546.17</ele>
        <time>2016-08-22T13:31:42Z</time>
      </trkpt>
      <trkpt lat="44.77473" lon="5.05899">
        <ele>546.17</ele>
        <time>2016-08-22T13:31:43Z</time>
      </trkpt>
      <trkpt lat="44.7747" lon="5.05894">
        <ele>545.69</ele>
        <time>2016-08-22T13:31:44Z</time>
      </trkpt>
      <trkpt lat="44.7745" lon="5.05855">
        <ele>542.8</ele>
        <time>2016-08-22T13:31:51Z</time>
      </trkpt>
      <trkpt lat="44.77446" lon="5.05849">
        <ele>542.8</ele>
        <time>2016-08-22T13:31:52Z</time>
      </trkpt>
      <trkpt lat="44.77444" lon="5.05844">
        <ele>542.32</ele>
        <time>2016-08-22T13:31:53Z</time>
      </trkpt>
      <trkpt lat="44.77441" lon="5.05838">
        <ele>541.84</ele>
        <time>2016-08-22T13:31:54Z</time>
      </trkpt>
      <trkpt lat="44.77438" lon="5.05833">
        <ele>542.32</ele>
        <time>2016-08-22T13:31:55Z</time>
      </trkpt>
      <trkpt lat="44.77421" lon="5.05804">
        <ele>542.8</ele>
        <time>2016-08-22T13:32:02Z</time>
      </trkpt>
      <trkpt lat="44.77412" lon="5.05788">
        <ele>544.24</ele>
        <time>2016-08-22T13:32:05Z</time>
      </trkpt>
      <trkpt lat="44.77408" lon="5.05784">
        <ele>544.72</ele>
        <time>2016-08-22T13:32:06Z</time>
      </trkpt>
      <trkpt lat="44.77405" lon="5.0578">
        <ele>544.72</ele>
        <time>2016-08-22T13:32:07Z</time>
      </trkpt>
      <trkpt lat="44.77403" lon="5.05774">
        <ele>544.72</ele>
        <time>2016-08-22T13:32:08Z</time>
      </trkpt>
      <trkpt lat="44.77401" lon="5.05768">
        <ele>545.2</ele>
        <time>2016-08-22T13:32:09Z</time>
      </trkpt>
      <trkpt lat="44.77398" lon="5.05762">
        <ele>545.2</ele>
        <time>2016-08-22T13:32:10Z</time>
      </trkpt>
      <trkpt lat="44.77394" lon="5.05757">
        <ele>545.2</ele>
        <time>2016-08-22T13:32:11Z</time>
      </trkpt>
      <trkpt lat="44.77385" lon="5.05733">
        <ele>547.13</ele>
        <time>2016-08-22T13:32:17Z</time>
      </trkpt>
      <trkpt lat="44.77383" lon="5.05727">
        <ele>547.61</ele>
        <time>2016-08-22T13:32:19Z</time>
      </trkpt>
      <trkpt lat="44.77382" lon="5.05725">
        <ele>548.57</ele>
        <time>2016-08-22T13:32:20Z</time>
      </trkpt>
      <trkpt lat="44.77373" lon="5.05697">
        <ele>547.61</ele>
        <time>2016-08-22T13:32:30Z</time>
      </trkpt>
      <trkpt lat="44.77359" lon="5.05671">
        <ele>548.57</ele>
        <time>2016-08-22T13:32:37Z</time>
      </trkpt>
      <trkpt lat="44.77358" lon="5.05666">
        <ele>548.57</ele>
        <time>2016-08-22T13:32:38Z</time>
      </trkpt>
      <trkpt lat="44.77357" lon="5.05664">
        <ele>549.53</ele>
        <time>2016-08-22T13:32:39Z</time>
      </trkpt>
      <trkpt lat="44.77355" lon="5.05661">
        <ele>549.53</ele>
        <time>2016-08-22T13:32:40Z</time>
      </trkpt>
      <trkpt lat="44.77352" lon="5.05658">
        <ele>549.53</ele>
        <time>2016-08-22T13:32:41Z</time>
      </trkpt>
      <trkpt lat="44.77327" lon="5.05633">
        <ele>550.49</ele>
        <time>2016-08-22T13:32:51Z</time>
      </trkpt>
      <trkpt lat="44.77302" lon="5.05617">
        <ele>551.45</ele>
        <time>2016-08-22T13:33:00Z</time>
      </trkpt>
      <trkpt lat="44.77269" lon="5.0559">
        <ele>552.41</ele>
        <time>2016-08-22T13:33:11Z</time>
      </trkpt>
      <trkpt lat="44.77248" lon="5.05579">
        <ele>551.45</ele>
        <time>2016-08-22T13:33:17Z</time>
      </trkpt>
      <trkpt lat="44.77246" lon="5.05576">
        <ele>551.45</ele>
        <time>2016-08-22T13:33:18Z</time>
      </trkpt>
      <trkpt lat="44.77216" lon="5.0555">
        <ele>554.34</ele>
        <time>2016-08-22T13:33:28Z</time>
      </trkpt>
      <trkpt lat="44.77187" lon="5.05525">
        <ele>553.38</ele>
        <time>2016-08-22T13:33:36Z</time>
      </trkpt>
      <trkpt lat="44.77183" lon="5.05523">
        <ele>552.9</ele>
        <time>2016-08-22T13:33:37Z</time>
      </trkpt>
      <trkpt lat="44.77179" lon="5.0552">
        <ele>551.93</ele>
        <time>2016-08-22T13:33:38Z</time>
      </trkpt>
      <trkpt lat="44.77175" lon="5.05517">
        <ele>551.93</ele>
        <time>2016-08-22T13:33:39Z</time>
      </trkpt>
      <trkpt lat="44.77172" lon="5.05515">
        <ele>551.93</ele>
        <time>2016-08-22T13:33:40Z</time>
      </trkpt>
      <trkpt lat="44.77168" lon="5.05511">
        <ele>550.49</ele>
        <time>2016-08-22T13:33:41Z</time>
      </trkpt>
      <trkpt lat="44.77164" lon="5.05508">
        <ele>549.53</ele>
        <time>2016-08-22T13:33:42Z</time>
      </trkpt>
      <trkpt lat="44.7716" lon="5.05503">
        <ele>548.09</ele>
        <time>2016-08-22T13:33:43Z</time>
      </trkpt>
      <trkpt lat="44.77157" lon="5.05499">
        <ele>547.61</ele>
        <time>2016-08-22T13:33:44Z</time>
      </trkpt>
      <trkpt lat="44.77155" lon="5.05494">
        <ele>547.13</ele>
        <time>2016-08-22T13:33:45Z</time>
      </trkpt>
      <trkpt lat="44.77152" lon="5.0549">
        <ele>546.65</ele>
        <time>2016-08-22T13:33:46Z</time>
      </trkpt>
      <trkpt lat="44.77148" lon="5.05487">
        <ele>545.69</ele>
        <time>2016-08-22T13:33:47Z</time>
      </trkpt>
      <trkpt lat="44.77144" lon="5.05485">
        <ele>544.72</ele>
        <time>2016-08-22T13:33:48Z</time>
      </trkpt>
      <trkpt lat="44.77139" lon="5.05481">
        <ele>543.76</ele>
        <time>2016-08-22T13:33:49Z</time>
      </trkpt>
      <trkpt lat="44.77135" lon="5.05478">
        <ele>542.8</ele>
        <time>2016-08-22T13:33:50Z</time>
      </trkpt>
      <trkpt lat="44.7713" lon="5.05477">
        <ele>542.32</ele>
        <time>2016-08-22T13:33:51Z</time>
      </trkpt>
      <trkpt lat="44.77121" lon="5.05475">
        <ele>542.32</ele>
        <time>2016-08-22T13:33:53Z</time>
      </trkpt>
      <trkpt lat="44.77116" lon="5.05476">
        <ele>540.88</ele>
        <time>2016-08-22T13:33:54Z</time>
      </trkpt>
      <trkpt lat="44.77111" lon="5.05475">
        <ele>540.4</ele>
        <time>2016-08-22T13:33:55Z</time>
      </trkpt>
      <trkpt lat="44.77106" lon="5.05473">
        <ele>539.44</ele>
        <time>2016-08-22T13:33:56Z</time>
      </trkpt>
      <trkpt lat="44.77101" lon="5.05471">
        <ele>539.44</ele>
        <time>2016-08-22T13:33:57Z</time>
      </trkpt>
      <trkpt lat="44.77096" lon="5.0547">
        <ele>538.96</ele>
        <time>2016-08-22T13:33:58Z</time>
      </trkpt>
      <trkpt lat="44.77091" lon="5.0547">
        <ele>538.48</ele>
        <time>2016-08-22T13:33:59Z</time>
      </trkpt>
      <trkpt lat="44.77087" lon="5.05469">
        <ele>537.99</ele>
        <time>2016-08-22T13:34:00Z</time>
      </trkpt>
      <trkpt lat="44.77083" lon="5.05467">
        <ele>537.51</ele>
        <time>2016-08-22T13:34:01Z</time>
      </trkpt>
      <trkpt lat="44.77078" lon="5.05465">
        <ele>537.03</ele>
        <time>2016-08-22T13:34:02Z</time>
      </trkpt>
      <trkpt lat="44.77067" lon="5.0546">
        <ele>536.07</ele>
        <time>2016-08-22T13:34:04Z</time>
      </trkpt>
      <trkpt lat="44.77062" lon="5.05459">
        <ele>536.07</ele>
        <time>2016-08-22T13:34:05Z</time>
      </trkpt>
      <trkpt lat="44.77051" lon="5.05456">
        <ele>535.11</ele>
        <time>2016-08-22T13:34:07Z</time>
      </trkpt>
      <trkpt lat="44.77046" lon="5.05454">
        <ele>535.11</ele>
        <time>2016-08-22T13:34:08Z</time>
      </trkpt>
      <trkpt lat="44.77041" lon="5.05451">
        <ele>534.63</ele>
        <time>2016-08-22T13:34:09Z</time>
      </trkpt>
      <trkpt lat="44.77037" lon="5.05448">
        <ele>534.15</ele>
        <time>2016-08-22T13:34:10Z</time>
      </trkpt>
      <trkpt lat="44.77029" lon="5.05443">
        <ele>533.67</ele>
        <time>2016-08-22T13:34:12Z</time>
      </trkpt>
      <trkpt lat="44.77025" lon="5.0544">
        <ele>534.15</ele>
        <time>2016-08-22T13:34:13Z</time>
      </trkpt>
      <trkpt lat="44.77022" lon="5.05437">
        <ele>534.15</ele>
        <time>2016-08-22T13:34:14Z</time>
      </trkpt>
      <trkpt lat="44.77019" lon="5.05435">
        <ele>534.15</ele>
        <time>2016-08-22T13:34:15Z</time>
      </trkpt>
      <trkpt lat="44.77016" lon="5.05433">
        <ele>534.15</ele>
        <time>2016-08-22T13:34:16Z</time>
      </trkpt>
      <trkpt lat="44.77012" lon="5.05431">
        <ele>534.15</ele>
        <time>2016-08-22T13:34:17Z</time>
      </trkpt>
      <trkpt lat="44.77009" lon="5.05429">
        <ele>533.67</ele>
        <time>2016-08-22T13:34:18Z</time>
      </trkpt>
      <trkpt lat="44.76998" lon="5.05425">
        <ele>533.67</ele>
        <time>2016-08-22T13:34:21Z</time>
      </trkpt>
      <trkpt lat="44.76995" lon="5.05422">
        <ele>533.19</ele>
        <time>2016-08-22T13:34:22Z</time>
      </trkpt>
      <trkpt lat="44.76991" lon="5.05418">
        <ele>532.23</ele>
        <time>2016-08-22T13:34:23Z</time>
      </trkpt>
      <trkpt lat="44.76988" lon="5.05417">
        <ele>532.23</ele>
        <time>2016-08-22T13:34:24Z</time>
      </trkpt>
      <trkpt lat="44.76986" lon="5.05416">
        <ele>532.71</ele>
        <time>2016-08-22T13:34:25Z</time>
      </trkpt>
      <trkpt lat="44.76985" lon="5.05415">
        <ele>533.19</ele>
        <time>2016-08-22T13:34:39Z</time>
      </trkpt>
      <trkpt lat="44.76985" lon="5.05415">
        <ele>533.19</ele>
        <time>2016-08-22T13:35:06Z</time>
      </trkpt>
      <trkpt lat="44.76985" lon="5.05415">
        <ele>532.23</ele>
        <time>2016-08-22T13:35:30Z</time>
      </trkpt>
      <trkpt lat="44.76985" lon="5.05415">
        <ele>531.27</ele>
        <time>2016-08-22T13:35:43Z</time>
      </trkpt>
      <trkpt lat="44.76984" lon="5.05404">
        <ele>532.23</ele>
        <time>2016-08-22T13:37:06Z</time>
      </trkpt>
      <trkpt lat="44.76984" lon="5.05404">
        <ele>532.23</ele>
        <time>2016-08-22T13:37:07Z</time>
      </trkpt>
      <trkpt lat="44.7698" lon="5.05407">
        <ele>532.71</ele>
        <time>2016-08-22T13:37:11Z</time>
      </trkpt>
      <trkpt lat="44.76977" lon="5.05398">
        <ele>528.86</ele>
        <time>2016-08-22T13:37:16Z</time>
      </trkpt>
      <trkpt lat="44.76971" lon="5.05389">
        <ele>525.98</ele>
        <time>2016-08-22T13:37:18Z</time>
      </trkpt>
      <trkpt lat="44.76968" lon="5.05384">
        <ele>525.5</ele>
        <time>2016-08-22T13:37:19Z</time>
      </trkpt>
      <trkpt lat="44.76965" lon="5.0538">
        <ele>524.06</ele>
        <time>2016-08-22T13:37:20Z</time>
      </trkpt>
      <trkpt lat="44.76964" lon="5.05375">
        <ele>523.09</ele>
        <time>2016-08-22T13:37:21Z</time>
      </trkpt>
      <trkpt lat="44.76963" lon="5.05368">
        <ele>522.61</ele>
        <time>2016-08-22T13:37:22Z</time>
      </trkpt>
      <trkpt lat="44.76963" lon="5.05359">
        <ele>522.13</ele>
        <time>2016-08-22T13:37:23Z</time>
      </trkpt>
      <trkpt lat="44.76963" lon="5.05351">
        <ele>521.17</ele>
        <time>2016-08-22T13:37:24Z</time>
      </trkpt>
      <trkpt lat="44.76962" lon="5.05344">
        <ele>520.69</ele>
        <time>2016-08-22T13:37:25Z</time>
      </trkpt>
      <trkpt lat="44.7696" lon="5.05337">
        <ele>520.69</ele>
        <time>2016-08-22T13:37:26Z</time>
      </trkpt>
      <trkpt lat="44.76959" lon="5.05329">
        <ele>519.73</ele>
        <time>2016-08-22T13:37:27Z</time>
      </trkpt>
      <trkpt lat="44.76958" lon="5.05321">
        <ele>519.25</ele>
        <time>2016-08-22T13:37:28Z</time>
      </trkpt>
      <trkpt lat="44.76958" lon="5.05314">
        <ele>518.29</ele>
        <time>2016-08-22T13:37:29Z</time>
      </trkpt>
      <trkpt lat="44.76957" lon="5.05291">
        <ele>515.88</ele>
        <time>2016-08-22T13:37:32Z</time>
      </trkpt>
      <trkpt lat="44.76955" lon="5.05283">
        <ele>515.4</ele>
        <time>2016-08-22T13:37:33Z</time>
      </trkpt>
      <trkpt lat="44.76952" lon="5.05273">
        <ele>515.88</ele>
        <time>2016-08-22T13:37:34Z</time>
      </trkpt>
      <trkpt lat="44.76946" lon="5.05264">
        <ele>515.88</ele>
        <time>2016-08-22T13:37:35Z</time>
      </trkpt>
      <trkpt lat="44.76938" lon="5.05259">
        <ele>517.33</ele>
        <time>2016-08-22T13:37:36Z</time>
      </trkpt>
      <trkpt lat="44.76932" lon="5.05256">
        <ele>517.81</ele>
        <time>2016-08-22T13:37:37Z</time>
      </trkpt>
      <trkpt lat="44.76888" lon="5.05236">
        <ele>516.37</ele>
        <time>2016-08-22T13:37:45Z</time>
      </trkpt>
      <trkpt lat="44.76883" lon="5.05232">
        <ele>516.37</ele>
        <time>2016-08-22T13:37:46Z</time>
      </trkpt>
      <trkpt lat="44.76879" lon="5.05229">
        <ele>516.37</ele>
        <time>2016-08-22T13:37:47Z</time>
      </trkpt>
      <trkpt lat="44.76874" lon="5.05226">
        <ele>515.88</ele>
        <time>2016-08-22T13:37:48Z</time>
      </trkpt>
      <trkpt lat="44.76869" lon="5.05223">
        <ele>515.4</ele>
        <time>2016-08-22T13:37:49Z</time>
      </trkpt>
      <trkpt lat="44.76863" lon="5.05221">
        <ele>515.4</ele>
        <time>2016-08-22T13:37:50Z</time>
      </trkpt>
      <trkpt lat="44.76858" lon="5.05218">
        <ele>513.96</ele>
        <time>2016-08-22T13:37:51Z</time>
      </trkpt>
      <trkpt lat="44.76852" lon="5.05215">
        <ele>514.44</ele>
        <time>2016-08-22T13:37:52Z</time>
      </trkpt>
      <trkpt lat="44.76842" lon="5.0521">
        <ele>513.96</ele>
        <time>2016-08-22T13:37:54Z</time>
      </trkpt>
      <trkpt lat="44.76832" lon="5.05208">
        <ele>514.44</ele>
        <time>2016-08-22T13:37:56Z</time>
      </trkpt>
      <trkpt lat="44.76829" lon="5.05205">
        <ele>514.44</ele>
        <time>2016-08-22T13:37:57Z</time>
      </trkpt>
      <trkpt lat="44.76825" lon="5.05201">
        <ele>513.96</ele>
        <time>2016-08-22T13:37:58Z</time>
      </trkpt>
      <trkpt lat="44.7682" lon="5.05195">
        <ele>513.48</ele>
        <time>2016-08-22T13:38:00Z</time>
      </trkpt>
      <trkpt lat="44.76816" lon="5.05191">
        <ele>513.48</ele>
        <time>2016-08-22T13:38:01Z</time>
      </trkpt>
      <trkpt lat="44.76812" lon="5.05188">
        <ele>513</ele>
        <time>2016-08-22T13:38:02Z</time>
      </trkpt>
      <trkpt lat="44.76807" lon="5.05184">
        <ele>512.52</ele>
        <time>2016-08-22T13:38:03Z</time>
      </trkpt>
      <trkpt lat="44.76802" lon="5.0518">
        <ele>512.52</ele>
        <time>2016-08-22T13:38:04Z</time>
      </trkpt>
      <trkpt lat="44.76796" lon="5.05177">
        <ele>512.04</ele>
        <time>2016-08-22T13:38:05Z</time>
      </trkpt>
      <trkpt lat="44.76785" lon="5.05169">
        <ele>511.56</ele>
        <time>2016-08-22T13:38:07Z</time>
      </trkpt>
      <trkpt lat="44.7676" lon="5.05146">
        <ele>512.52</ele>
        <time>2016-08-22T13:38:12Z</time>
      </trkpt>
      <trkpt lat="44.76755" lon="5.05142">
        <ele>512.52</ele>
        <time>2016-08-22T13:38:13Z</time>
      </trkpt>
      <trkpt lat="44.7675" lon="5.05138">
        <ele>513</ele>
        <time>2016-08-22T13:38:14Z</time>
      </trkpt>
      <trkpt lat="44.76732" lon="5.05121">
        <ele>513.96</ele>
        <time>2016-08-22T13:38:18Z</time>
      </trkpt>
      <trkpt lat="44.76717" lon="5.05099">
        <ele>516.85</ele>
        <time>2016-08-22T13:38:23Z</time>
      </trkpt>
      <trkpt lat="44.76699" lon="5.05076">
        <ele>513.96</ele>
        <time>2016-08-22T13:38:30Z</time>
      </trkpt>
      <trkpt lat="44.76691" lon="5.05071">
        <ele>511.56</ele>
        <time>2016-08-22T13:38:32Z</time>
      </trkpt>
      <trkpt lat="44.76678" lon="5.05064">
        <ele>510.6</ele>
        <time>2016-08-22T13:38:34Z</time>
      </trkpt>
      <trkpt lat="44.76672" lon="5.0506">
        <ele>509.64</ele>
        <time>2016-08-22T13:38:35Z</time>
      </trkpt>
      <trkpt lat="44.76667" lon="5.05057">
        <ele>509.64</ele>
        <time>2016-08-22T13:38:36Z</time>
      </trkpt>
      <trkpt lat="44.76647" lon="5.05048">
        <ele>507.71</ele>
        <time>2016-08-22T13:38:39Z</time>
      </trkpt>
      <trkpt lat="44.76629" lon="5.05045">
        <ele>505.31</ele>
        <time>2016-08-22T13:38:42Z</time>
      </trkpt>
      <trkpt lat="44.7661" lon="5.05039">
        <ele>504.83</ele>
        <time>2016-08-22T13:38:45Z</time>
      </trkpt>
      <trkpt lat="44.76603" lon="5.05036">
        <ele>504.83</ele>
        <time>2016-08-22T13:38:46Z</time>
      </trkpt>
      <trkpt lat="44.76597" lon="5.05034">
        <ele>504.83</ele>
        <time>2016-08-22T13:38:47Z</time>
      </trkpt>
      <trkpt lat="44.76584" lon="5.05031">
        <ele>504.35</ele>
        <time>2016-08-22T13:38:49Z</time>
      </trkpt>
      <trkpt lat="44.76579" lon="5.0503">
        <ele>503.87</ele>
        <time>2016-08-22T13:38:50Z</time>
      </trkpt>
      <trkpt lat="44.76573" lon="5.05028">
        <ele>503.87</ele>
        <time>2016-08-22T13:38:51Z</time>
      </trkpt>
      <trkpt lat="44.76548" lon="5.0502">
        <ele>502.91</ele>
        <time>2016-08-22T13:38:56Z</time>
      </trkpt>
      <trkpt lat="44.76537" lon="5.05019">
        <ele>502.43</ele>
        <time>2016-08-22T13:38:58Z</time>
      </trkpt>
      <trkpt lat="44.76532" lon="5.05018">
        <ele>502.43</ele>
        <time>2016-08-22T13:38:59Z</time>
      </trkpt>
      <trkpt lat="44.76527" lon="5.05016">
        <ele>502.43</ele>
        <time>2016-08-22T13:39:00Z</time>
      </trkpt>
      <trkpt lat="44.76515" lon="5.05015">
        <ele>500.98</ele>
        <time>2016-08-22T13:39:02Z</time>
      </trkpt>
      <trkpt lat="44.76493" lon="5.05014">
        <ele>497.62</ele>
        <time>2016-08-22T13:39:06Z</time>
      </trkpt>
      <trkpt lat="44.76488" lon="5.05014">
        <ele>496.18</ele>
        <time>2016-08-22T13:39:07Z</time>
      </trkpt>
      <trkpt lat="44.76462" lon="5.0501">
        <ele>492.81</ele>
        <time>2016-08-22T13:39:11Z</time>
      </trkpt>
      <trkpt lat="44.76441" lon="5.05006">
        <ele>489.93</ele>
        <time>2016-08-22T13:39:14Z</time>
      </trkpt>
      <trkpt lat="44.76435" lon="5.05006">
        <ele>489.45</ele>
        <time>2016-08-22T13:39:15Z</time>
      </trkpt>
      <trkpt lat="44.76423" lon="5.05007">
        <ele>488.97</ele>
        <time>2016-08-22T13:39:17Z</time>
      </trkpt>
      <trkpt lat="44.76419" lon="5.05009">
        <ele>488.97</ele>
        <time>2016-08-22T13:39:18Z</time>
      </trkpt>
      <trkpt lat="44.76415" lon="5.05011">
        <ele>488.01</ele>
        <time>2016-08-22T13:39:19Z</time>
      </trkpt>
      <trkpt lat="44.76412" lon="5.05013">
        <ele>488.49</ele>
        <time>2016-08-22T13:39:27Z</time>
      </trkpt>
      <trkpt lat="44.76412" lon="5.05013">
        <ele>488.49</ele>
        <time>2016-08-22T13:39:56Z</time>
      </trkpt>
      <trkpt lat="44.76408" lon="5.05014">
        <ele>487.05</ele>
        <time>2016-08-22T13:40:03Z</time>
      </trkpt>
      <trkpt lat="44.76404" lon="5.05014">
        <ele>487.05</ele>
        <time>2016-08-22T13:40:04Z</time>
      </trkpt>
      <trkpt lat="44.76401" lon="5.05015">
        <ele>486.56</ele>
        <time>2016-08-22T13:40:05Z</time>
      </trkpt>
      <trkpt lat="44.76397" lon="5.05016">
        <ele>486.08</ele>
        <time>2016-08-22T13:40:06Z</time>
      </trkpt>
      <trkpt lat="44.76394" lon="5.05015">
        <ele>485.6</ele>
        <time>2016-08-22T13:40:07Z</time>
      </trkpt>
      <trkpt lat="44.7639" lon="5.05014">
        <ele>485.12</ele>
        <time>2016-08-22T13:40:08Z</time>
      </trkpt>
      <trkpt lat="44.76385" lon="5.05014">
        <ele>484.64</ele>
        <time>2016-08-22T13:40:09Z</time>
      </trkpt>
      <trkpt lat="44.76381" lon="5.05014">
        <ele>484.64</ele>
        <time>2016-08-22T13:40:10Z</time>
      </trkpt>
      <trkpt lat="44.76376" lon="5.05014">
        <ele>484.16</ele>
        <time>2016-08-22T13:40:11Z</time>
      </trkpt>
      <trkpt lat="44.76349" lon="5.05008">
        <ele>481.28</ele>
        <time>2016-08-22T13:40:17Z</time>
      </trkpt>
      <trkpt lat="44.76345" lon="5.05005">
        <ele>480.32</ele>
        <time>2016-08-22T13:40:18Z</time>
      </trkpt>
      <trkpt lat="44.7634" lon="5.05003">
        <ele>479.84</ele>
        <time>2016-08-22T13:40:19Z</time>
      </trkpt>
      <trkpt lat="44.76337" lon="5.05003">
        <ele>478.87</ele>
        <time>2016-08-22T13:40:20Z</time>
      </trkpt>
      <trkpt lat="44.76333" lon="5.05002">
        <ele>477.91</ele>
        <time>2016-08-22T13:40:21Z</time>
      </trkpt>
      <trkpt lat="44.7633" lon="5.05001">
        <ele>477.91</ele>
        <time>2016-08-22T13:40:22Z</time>
      </trkpt>
      <trkpt lat="44.76326" lon="5.04999">
        <ele>476.47</ele>
        <time>2016-08-22T13:40:23Z</time>
      </trkpt>
      <trkpt lat="44.76321" lon="5.04997">
        <ele>475.99</ele>
        <time>2016-08-22T13:40:24Z</time>
      </trkpt>
      <trkpt lat="44.76316" lon="5.04996">
        <ele>475.51</ele>
        <time>2016-08-22T13:40:25Z</time>
      </trkpt>
      <trkpt lat="44.76313" lon="5.04995">
        <ele>474.55</ele>
        <time>2016-08-22T13:40:26Z</time>
      </trkpt>
      <trkpt lat="44.76309" lon="5.04994">
        <ele>474.07</ele>
        <time>2016-08-22T13:40:27Z</time>
      </trkpt>
      <trkpt lat="44.76306" lon="5.04992">
        <ele>473.11</ele>
        <time>2016-08-22T13:40:28Z</time>
      </trkpt>
      <trkpt lat="44.76279" lon="5.04981">
        <ele>469.74</ele>
        <time>2016-08-22T13:40:32Z</time>
      </trkpt>
      <trkpt lat="44.76272" lon="5.04978">
        <ele>469.74</ele>
        <time>2016-08-22T13:40:33Z</time>
      </trkpt>
      <trkpt lat="44.76265" lon="5.04977">
        <ele>468.78</ele>
        <time>2016-08-22T13:40:34Z</time>
      </trkpt>
      <trkpt lat="44.76258" lon="5.04976">
        <ele>467.82</ele>
        <time>2016-08-22T13:40:35Z</time>
      </trkpt>
      <trkpt lat="44.76252" lon="5.04974">
        <ele>467.34</ele>
        <time>2016-08-22T13:40:36Z</time>
      </trkpt>
      <trkpt lat="44.76246" lon="5.04971">
        <ele>466.86</ele>
        <time>2016-08-22T13:40:37Z</time>
      </trkpt>
      <trkpt lat="44.7624" lon="5.0497">
        <ele>466.38</ele>
        <time>2016-08-22T13:40:38Z</time>
      </trkpt>
      <trkpt lat="44.76234" lon="5.04969">
        <ele>466.38</ele>
        <time>2016-08-22T13:40:39Z</time>
      </trkpt>
      <trkpt lat="44.76228" lon="5.04968">
        <ele>465.9</ele>
        <time>2016-08-22T13:40:40Z</time>
      </trkpt>
      <trkpt lat="44.76223" lon="5.04967">
        <ele>465.9</ele>
        <time>2016-08-22T13:40:41Z</time>
      </trkpt>
      <trkpt lat="44.76219" lon="5.04965">
        <ele>465.9</ele>
        <time>2016-08-22T13:40:42Z</time>
      </trkpt>
      <trkpt lat="44.76194" lon="5.04962">
        <ele>465.9</ele>
        <time>2016-08-22T13:40:49Z</time>
      </trkpt>
      <trkpt lat="44.76191" lon="5.04962">
        <ele>465.9</ele>
        <time>2016-08-22T13:40:50Z</time>
      </trkpt>
      <trkpt lat="44.76188" lon="5.04961">
        <ele>466.38</ele>
        <time>2016-08-22T13:40:51Z</time>
      </trkpt>
      <trkpt lat="44.76174" lon="5.04956">
        <ele>467.34</ele>
        <time>2016-08-22T13:40:55Z</time>
      </trkpt>
      <trkpt lat="44.76172" lon="5.04953">
        <ele>467.34</ele>
        <time>2016-08-22T13:40:56Z</time>
      </trkpt>
      <trkpt lat="44.76169" lon="5.04952">
        <ele>467.82</ele>
        <time>2016-08-22T13:40:57Z</time>
      </trkpt>
      <trkpt lat="44.76166" lon="5.04951">
        <ele>468.3</ele>
        <time>2016-08-22T13:40:58Z</time>
      </trkpt>
      <trkpt lat="44.76162" lon="5.04951">
        <ele>467.82</ele>
        <time>2016-08-22T13:40:59Z</time>
      </trkpt>
      <trkpt lat="44.76159" lon="5.0495">
        <ele>468.3</ele>
        <time>2016-08-22T13:41:00Z</time>
      </trkpt>
      <trkpt lat="44.76156" lon="5.04949">
        <ele>468.3</ele>
        <time>2016-08-22T13:41:01Z</time>
      </trkpt>
      <trkpt lat="44.76153" lon="5.04949">
        <ele>468.3</ele>
        <time>2016-08-22T13:41:02Z</time>
      </trkpt>
      <trkpt lat="44.7615" lon="5.04948">
        <ele>468.78</ele>
        <time>2016-08-22T13:41:03Z</time>
      </trkpt>
      <trkpt lat="44.76133" lon="5.04946">
        <ele>469.26</ele>
        <time>2016-08-22T13:41:08Z</time>
      </trkpt>
      <trkpt lat="44.7613" lon="5.04945">
        <ele>469.26</ele>
        <time>2016-08-22T13:41:09Z</time>
      </trkpt>
      <trkpt lat="44.76126" lon="5.04944">
        <ele>469.26</ele>
        <time>2016-08-22T13:41:10Z</time>
      </trkpt>
      <trkpt lat="44.76112" lon="5.04942">
        <ele>468.78</ele>
        <time>2016-08-22T13:41:13Z</time>
      </trkpt>
      <trkpt lat="44.76107" lon="5.04942">
        <ele>468.3</ele>
        <time>2016-08-22T13:41:14Z</time>
      </trkpt>
      <trkpt lat="44.76102" lon="5.0494">
        <ele>468.3</ele>
        <time>2016-08-22T13:41:15Z</time>
      </trkpt>
      <trkpt lat="44.76097" lon="5.04939">
        <ele>468.78</ele>
        <time>2016-08-22T13:41:16Z</time>
      </trkpt>
      <trkpt lat="44.76091" lon="5.04939">
        <ele>468.3</ele>
        <time>2016-08-22T13:41:17Z</time>
      </trkpt>
      <trkpt lat="44.76085" lon="5.04938">
        <ele>468.3</ele>
        <time>2016-08-22T13:41:18Z</time>
      </trkpt>
      <trkpt lat="44.7608" lon="5.04938">
        <ele>468.3</ele>
        <time>2016-08-22T13:41:19Z</time>
      </trkpt>
      <trkpt lat="44.76075" lon="5.04938">
        <ele>468.3</ele>
        <time>2016-08-22T13:41:20Z</time>
      </trkpt>
      <trkpt lat="44.7606" lon="5.04933">
        <ele>468.3</ele>
        <time>2016-08-22T13:41:23Z</time>
      </trkpt>
      <trkpt lat="44.76055" lon="5.04931">
        <ele>468.3</ele>
        <time>2016-08-22T13:41:24Z</time>
      </trkpt>
      <trkpt lat="44.7605" lon="5.04929">
        <ele>468.3</ele>
        <time>2016-08-22T13:41:25Z</time>
      </trkpt>
      <trkpt lat="44.76031" lon="5.04924">
        <ele>470.22</ele>
        <time>2016-08-22T13:41:29Z</time>
      </trkpt>
      <trkpt lat="44.76027" lon="5.04922">
        <ele>469.74</ele>
        <time>2016-08-22T13:41:30Z</time>
      </trkpt>
      <trkpt lat="44.75988" lon="5.04911">
        <ele>473.11</ele>
        <time>2016-08-22T13:41:41Z</time>
      </trkpt>
      <trkpt lat="44.75961" lon="5.04901">
        <ele>475.03</ele>
        <time>2016-08-22T13:41:52Z</time>
      </trkpt>
      <trkpt lat="44.75931" lon="5.04886">
        <ele>478.39</ele>
        <time>2016-08-22T13:42:04Z</time>
      </trkpt>
      <trkpt lat="44.75897" lon="5.04872">
        <ele>481.76</ele>
        <time>2016-08-22T13:42:17Z</time>
      </trkpt>
      <trkpt lat="44.75881" lon="5.04864">
        <ele>481.28</ele>
        <time>2016-08-22T13:42:23Z</time>
      </trkpt>
      <trkpt lat="44.75876" lon="5.04861">
        <ele>480.8</ele>
        <time>2016-08-22T13:42:24Z</time>
      </trkpt>
      <trkpt lat="44.75871" lon="5.04856">
        <ele>480.32</ele>
        <time>2016-08-22T13:42:25Z</time>
      </trkpt>
      <trkpt lat="44.75867" lon="5.0485">
        <ele>479.84</ele>
        <time>2016-08-22T13:42:26Z</time>
      </trkpt>
      <trkpt lat="44.75864" lon="5.04844">
        <ele>478.87</ele>
        <time>2016-08-22T13:42:27Z</time>
      </trkpt>
      <trkpt lat="44.7586" lon="5.04838">
        <ele>477.91</ele>
        <time>2016-08-22T13:42:28Z</time>
      </trkpt>
      <trkpt lat="44.75856" lon="5.04833">
        <ele>477.43</ele>
        <time>2016-08-22T13:42:29Z</time>
      </trkpt>
      <trkpt lat="44.75853" lon="5.04828">
        <ele>476.47</ele>
        <time>2016-08-22T13:42:30Z</time>
      </trkpt>
      <trkpt lat="44.75846" lon="5.04818">
        <ele>475.51</ele>
        <time>2016-08-22T13:42:32Z</time>
      </trkpt>
      <trkpt lat="44.75841" lon="5.04813">
        <ele>475.03</ele>
        <time>2016-08-22T13:42:33Z</time>
      </trkpt>
      <trkpt lat="44.75835" lon="5.0481">
        <ele>473.59</ele>
        <time>2016-08-22T13:42:34Z</time>
      </trkpt>
      <trkpt lat="44.7583" lon="5.04805">
        <ele>472.63</ele>
        <time>2016-08-22T13:42:35Z</time>
      </trkpt>
      <trkpt lat="44.75824" lon="5.048">
        <ele>472.14</ele>
        <time>2016-08-22T13:42:36Z</time>
      </trkpt>
      <trkpt lat="44.75819" lon="5.04795">
        <ele>471.18</ele>
        <time>2016-08-22T13:42:37Z</time>
      </trkpt>
      <trkpt lat="44.75815" lon="5.04789">
        <ele>470.7</ele>
        <time>2016-08-22T13:42:38Z</time>
      </trkpt>
      <trkpt lat="44.75811" lon="5.04783">
        <ele>469.74</ele>
        <time>2016-08-22T13:42:39Z</time>
      </trkpt>
      <trkpt lat="44.75807" lon="5.04776">
        <ele>468.78</ele>
        <time>2016-08-22T13:42:40Z</time>
      </trkpt>
      <trkpt lat="44.75803" lon="5.04767">
        <ele>467.82</ele>
        <time>2016-08-22T13:42:41Z</time>
      </trkpt>
      <trkpt lat="44.758" lon="5.04757">
        <ele>466.86</ele>
        <time>2016-08-22T13:42:42Z</time>
      </trkpt>
      <trkpt lat="44.75797" lon="5.04747">
        <ele>465.9</ele>
        <time>2016-08-22T13:42:43Z</time>
      </trkpt>
      <trkpt lat="44.75786" lon="5.04709">
        <ele>462.53</ele>
        <time>2016-08-22T13:42:47Z</time>
      </trkpt>
      <trkpt lat="44.75782" lon="5.04701">
        <ele>462.53</ele>
        <time>2016-08-22T13:42:48Z</time>
      </trkpt>
      <trkpt lat="44.75778" lon="5.04693">
        <ele>461.09</ele>
        <time>2016-08-22T13:42:49Z</time>
      </trkpt>
      <trkpt lat="44.75769" lon="5.04679">
        <ele>460.13</ele>
        <time>2016-08-22T13:42:51Z</time>
      </trkpt>
      <trkpt lat="44.75757" lon="5.04667">
        <ele>459.65</ele>
        <time>2016-08-22T13:42:53Z</time>
      </trkpt>
      <trkpt lat="44.75732" lon="5.04632">
        <ele>458.21</ele>
        <time>2016-08-22T13:42:58Z</time>
      </trkpt>
      <trkpt lat="44.75727" lon="5.04625">
        <ele>458.21</ele>
        <time>2016-08-22T13:42:59Z</time>
      </trkpt>
      <trkpt lat="44.75721" lon="5.0462">
        <ele>457.24</ele>
        <time>2016-08-22T13:43:00Z</time>
      </trkpt>
      <trkpt lat="44.75704" lon="5.04606">
        <ele>455.8</ele>
        <time>2016-08-22T13:43:03Z</time>
      </trkpt>
      <trkpt lat="44.75699" lon="5.04603">
        <ele>455.8</ele>
        <time>2016-08-22T13:43:04Z</time>
      </trkpt>
      <trkpt lat="44.75688" lon="5.04597">
        <ele>454.84</ele>
        <time>2016-08-22T13:43:06Z</time>
      </trkpt>
      <trkpt lat="44.75683" lon="5.04592">
        <ele>453.88</ele>
        <time>2016-08-22T13:43:07Z</time>
      </trkpt>
      <trkpt lat="44.7567" lon="5.04578">
        <ele>452.92</ele>
        <time>2016-08-22T13:43:10Z</time>
      </trkpt>
      <trkpt lat="44.75666" lon="5.04574">
        <ele>452.44</ele>
        <time>2016-08-22T13:43:11Z</time>
      </trkpt>
      <trkpt lat="44.75661" lon="5.04571">
        <ele>452.44</ele>
        <time>2016-08-22T13:43:12Z</time>
      </trkpt>
      <trkpt lat="44.75657" lon="5.04569">
        <ele>452.44</ele>
        <time>2016-08-22T13:43:13Z</time>
      </trkpt>
      <trkpt lat="44.75654" lon="5.04568">
        <ele>452.44</ele>
        <time>2016-08-22T13:43:14Z</time>
      </trkpt>
      <trkpt lat="44.7565" lon="5.04568">
        <ele>452.44</ele>
        <time>2016-08-22T13:43:15Z</time>
      </trkpt>
      <trkpt lat="44.75647" lon="5.04568">
        <ele>450.52</ele>
        <time>2016-08-22T13:43:16Z</time>
      </trkpt>
      <trkpt lat="44.75643" lon="5.04569">
        <ele>449.07</ele>
        <time>2016-08-22T13:43:17Z</time>
      </trkpt>
      <trkpt lat="44.75639" lon="5.04568">
        <ele>447.63</ele>
        <time>2016-08-22T13:43:18Z</time>
      </trkpt>
      <trkpt lat="44.75629" lon="5.04566">
        <ele>447.15</ele>
        <time>2016-08-22T13:43:21Z</time>
      </trkpt>
      <trkpt lat="44.75626" lon="5.04565">
        <ele>446.67</ele>
        <time>2016-08-22T13:43:22Z</time>
      </trkpt>
      <trkpt lat="44.75623" lon="5.04564">
        <ele>445.71</ele>
        <time>2016-08-22T13:43:23Z</time>
      </trkpt>
      <trkpt lat="44.75618" lon="5.04563">
        <ele>444.75</ele>
        <time>2016-08-22T13:43:24Z</time>
      </trkpt>
      <trkpt lat="44.75612" lon="5.04561">
        <ele>443.79</ele>
        <time>2016-08-22T13:43:25Z</time>
      </trkpt>
      <trkpt lat="44.75601" lon="5.04557">
        <ele>442.34</ele>
        <time>2016-08-22T13:43:27Z</time>
      </trkpt>
      <trkpt lat="44.75596" lon="5.04556">
        <ele>441.86</ele>
        <time>2016-08-22T13:43:28Z</time>
      </trkpt>
      <trkpt lat="44.75586" lon="5.04551">
        <ele>440.42</ele>
        <time>2016-08-22T13:43:30Z</time>
      </trkpt>
      <trkpt lat="44.7558" lon="5.0455">
        <ele>439.94</ele>
        <time>2016-08-22T13:43:32Z</time>
      </trkpt>
      <trkpt lat="44.75579" lon="5.0455">
        <ele>440.42</ele>
        <time>2016-08-22T13:43:45Z</time>
      </trkpt>
      <trkpt lat="44.75577" lon="5.04549">
        <ele>440.9</ele>
        <time>2016-08-22T13:44:09Z</time>
      </trkpt>
      <trkpt lat="44.75576" lon="5.04548">
        <ele>440.42</ele>
        <time>2016-08-22T13:44:10Z</time>
      </trkpt>
      <trkpt lat="44.75573" lon="5.04548">
        <ele>439.94</ele>
        <time>2016-08-22T13:44:11Z</time>
      </trkpt>
      <trkpt lat="44.75556" lon="5.04551">
        <ele>438.02</ele>
        <time>2016-08-22T13:44:16Z</time>
      </trkpt>
      <trkpt lat="44.75552" lon="5.04554">
        <ele>437.06</ele>
        <time>2016-08-22T13:44:17Z</time>
      </trkpt>
      <trkpt lat="44.75548" lon="5.04558">
        <ele>435.61</ele>
        <time>2016-08-22T13:44:18Z</time>
      </trkpt>
      <trkpt lat="44.75544" lon="5.04561">
        <ele>434.65</ele>
        <time>2016-08-22T13:44:19Z</time>
      </trkpt>
      <trkpt lat="44.75539" lon="5.04563">
        <ele>433.69</ele>
        <time>2016-08-22T13:44:20Z</time>
      </trkpt>
      <trkpt lat="44.75533" lon="5.04563">
        <ele>432.73</ele>
        <time>2016-08-22T13:44:21Z</time>
      </trkpt>
      <trkpt lat="44.75527" lon="5.04563">
        <ele>431.77</ele>
        <time>2016-08-22T13:44:22Z</time>
      </trkpt>
      <trkpt lat="44.75521" lon="5.04563">
        <ele>430.81</ele>
        <time>2016-08-22T13:44:23Z</time>
      </trkpt>
      <trkpt lat="44.75515" lon="5.04565">
        <ele>429.85</ele>
        <time>2016-08-22T13:44:24Z</time>
      </trkpt>
      <trkpt lat="44.7551" lon="5.04567">
        <ele>428.89</ele>
        <time>2016-08-22T13:44:25Z</time>
      </trkpt>
      <trkpt lat="44.75504" lon="5.0457">
        <ele>427.92</ele>
        <time>2016-08-22T13:44:26Z</time>
      </trkpt>
      <trkpt lat="44.75499" lon="5.04574">
        <ele>427.92</ele>
        <time>2016-08-22T13:44:27Z</time>
      </trkpt>
      <trkpt lat="44.75493" lon="5.04577">
        <ele>427.44</ele>
        <time>2016-08-22T13:44:28Z</time>
      </trkpt>
      <trkpt lat="44.75487" lon="5.04579">
        <ele>426.96</ele>
        <time>2016-08-22T13:44:29Z</time>
      </trkpt>
      <trkpt lat="44.7548" lon="5.0458">
        <ele>426.48</ele>
        <time>2016-08-22T13:44:30Z</time>
      </trkpt>
      <trkpt lat="44.75474" lon="5.04581">
        <ele>426</ele>
        <time>2016-08-22T13:44:31Z</time>
      </trkpt>
      <trkpt lat="44.75468" lon="5.04582">
        <ele>424.56</ele>
        <time>2016-08-22T13:44:32Z</time>
      </trkpt>
      <trkpt lat="44.75451" lon="5.04587">
        <ele>423.12</ele>
        <time>2016-08-22T13:44:35Z</time>
      </trkpt>
      <trkpt lat="44.75431" lon="5.04592">
        <ele>420.23</ele>
        <time>2016-08-22T13:44:38Z</time>
      </trkpt>
      <trkpt lat="44.7541" lon="5.04597">
        <ele>416.39</ele>
        <time>2016-08-22T13:44:41Z</time>
      </trkpt>
      <trkpt lat="44.75404" lon="5.046">
        <ele>415.91</ele>
        <time>2016-08-22T13:44:42Z</time>
      </trkpt>
      <trkpt lat="44.754" lon="5.04604">
        <ele>416.39</ele>
        <time>2016-08-22T13:44:43Z</time>
      </trkpt>
      <trkpt lat="44.75396" lon="5.04608">
        <ele>416.39</ele>
        <time>2016-08-22T13:44:44Z</time>
      </trkpt>
      <trkpt lat="44.75392" lon="5.04613">
        <ele>415.91</ele>
        <time>2016-08-22T13:44:45Z</time>
      </trkpt>
      <trkpt lat="44.75387" lon="5.04616">
        <ele>415.43</ele>
        <time>2016-08-22T13:44:46Z</time>
      </trkpt>
      <trkpt lat="44.75383" lon="5.04618">
        <ele>415.43</ele>
        <time>2016-08-22T13:44:47Z</time>
      </trkpt>
      <trkpt lat="44.75378" lon="5.04619">
        <ele>415.91</ele>
        <time>2016-08-22T13:44:48Z</time>
      </trkpt>
      <trkpt lat="44.75349" lon="5.04624">
        <ele>413.02</ele>
        <time>2016-08-22T13:44:53Z</time>
      </trkpt>
      <trkpt lat="44.75343" lon="5.04626">
        <ele>412.06</ele>
        <time>2016-08-22T13:44:54Z</time>
      </trkpt>
      <trkpt lat="44.75325" lon="5.0463">
        <ele>412.06</ele>
        <time>2016-08-22T13:44:57Z</time>
      </trkpt>
      <trkpt lat="44.75319" lon="5.04633">
        <ele>411.58</ele>
        <time>2016-08-22T13:44:58Z</time>
      </trkpt>
      <trkpt lat="44.75314" lon="5.04636">
        <ele>411.58</ele>
        <time>2016-08-22T13:44:59Z</time>
      </trkpt>
      <trkpt lat="44.75308" lon="5.0464">
        <ele>411.1</ele>
        <time>2016-08-22T13:45:00Z</time>
      </trkpt>
      <trkpt lat="44.75303" lon="5.04643">
        <ele>410.14</ele>
        <time>2016-08-22T13:45:01Z</time>
      </trkpt>
      <trkpt lat="44.75297" lon="5.04647">
        <ele>409.18</ele>
        <time>2016-08-22T13:45:02Z</time>
      </trkpt>
      <trkpt lat="44.75291" lon="5.04649">
        <ele>409.18</ele>
        <time>2016-08-22T13:45:03Z</time>
      </trkpt>
      <trkpt lat="44.75285" lon="5.0465">
        <ele>408.7</ele>
        <time>2016-08-22T13:45:04Z</time>
      </trkpt>
      <trkpt lat="44.75281" lon="5.04652">
        <ele>408.22</ele>
        <time>2016-08-22T13:45:05Z</time>
      </trkpt>
      <trkpt lat="44.75278" lon="5.04655">
        <ele>408.22</ele>
        <time>2016-08-22T13:45:06Z</time>
      </trkpt>
      <trkpt lat="44.75274" lon="5.04661">
        <ele>408.7</ele>
        <time>2016-08-22T13:45:14Z</time>
      </trkpt>
      <trkpt lat="44.75272" lon="5.04663">
        <ele>408.22</ele>
        <time>2016-08-22T13:45:18Z</time>
      </trkpt>
      <trkpt lat="44.7527" lon="5.04666">
        <ele>408.22</ele>
        <time>2016-08-22T13:45:19Z</time>
      </trkpt>
      <trkpt lat="44.75242" lon="5.04691">
        <ele>405.81</ele>
        <time>2016-08-22T13:45:28Z</time>
      </trkpt>
      <trkpt lat="44.75217" lon="5.04702">
        <ele>404.37</ele>
        <time>2016-08-22T13:45:33Z</time>
      </trkpt>
      <trkpt lat="44.75211" lon="5.04703">
        <ele>403.89</ele>
        <time>2016-08-22T13:45:34Z</time>
      </trkpt>
      <trkpt lat="44.75205" lon="5.04702">
        <ele>403.41</ele>
        <time>2016-08-22T13:45:35Z</time>
      </trkpt>
      <trkpt lat="44.75198" lon="5.04702">
        <ele>402.93</ele>
        <time>2016-08-22T13:45:36Z</time>
      </trkpt>
      <trkpt lat="44.75192" lon="5.047">
        <ele>402.93</ele>
        <time>2016-08-22T13:45:37Z</time>
      </trkpt>
      <trkpt lat="44.75165" lon="5.04694">
        <ele>399.08</ele>
        <time>2016-08-22T13:45:41Z</time>
      </trkpt>
      <trkpt lat="44.75146" lon="5.04692">
        <ele>398.6</ele>
        <time>2016-08-22T13:45:44Z</time>
      </trkpt>
      <trkpt lat="44.75133" lon="5.04695">
        <ele>397.16</ele>
        <time>2016-08-22T13:45:46Z</time>
      </trkpt>
      <trkpt lat="44.75102" lon="5.04703">
        <ele>396.2</ele>
        <time>2016-08-22T13:45:51Z</time>
      </trkpt>
      <trkpt lat="44.75091" lon="5.04707">
        <ele>395.72</ele>
        <time>2016-08-22T13:45:53Z</time>
      </trkpt>
      <trkpt lat="44.75085" lon="5.04709">
        <ele>395.72</ele>
        <time>2016-08-22T13:45:54Z</time>
      </trkpt>
      <trkpt lat="44.7508" lon="5.04712">
        <ele>396.2</ele>
        <time>2016-08-22T13:45:55Z</time>
      </trkpt>
      <trkpt lat="44.75071" lon="5.04718">
        <ele>396.2</ele>
        <time>2016-08-22T13:45:57Z</time>
      </trkpt>
      <trkpt lat="44.75061" lon="5.04721">
        <ele>396.68</ele>
        <time>2016-08-22T13:45:59Z</time>
      </trkpt>
      <trkpt lat="44.75014" lon="5.0475">
        <ele>395.72</ele>
        <time>2016-08-22T13:46:07Z</time>
      </trkpt>
      <trkpt lat="44.74995" lon="5.04758">
        <ele>399.57</ele>
        <time>2016-08-22T13:46:11Z</time>
      </trkpt>
      <trkpt lat="44.74984" lon="5.04762">
        <ele>401.49</ele>
        <time>2016-08-22T13:46:15Z</time>
      </trkpt>
      <trkpt lat="44.74983" lon="5.04763">
        <ele>401.49</ele>
        <time>2016-08-22T13:46:16Z</time>
      </trkpt>
      <trkpt lat="44.74974" lon="5.04765">
        <ele>401.97</ele>
        <time>2016-08-22T13:46:26Z</time>
      </trkpt>
      <trkpt lat="44.74956" lon="5.04781">
        <ele>400.53</ele>
        <time>2016-08-22T13:46:33Z</time>
      </trkpt>
      <trkpt lat="44.74952" lon="5.04784">
        <ele>399.57</ele>
        <time>2016-08-22T13:46:34Z</time>
      </trkpt>
      <trkpt lat="44.74947" lon="5.04786">
        <ele>398.6</ele>
        <time>2016-08-22T13:46:35Z</time>
      </trkpt>
      <trkpt lat="44.74942" lon="5.04789">
        <ele>398.12</ele>
        <time>2016-08-22T13:46:36Z</time>
      </trkpt>
      <trkpt lat="44.74932" lon="5.04795">
        <ele>397.16</ele>
        <time>2016-08-22T13:46:38Z</time>
      </trkpt>
      <trkpt lat="44.74868" lon="5.04803">
        <ele>399.08</ele>
        <time>2016-08-22T13:46:50Z</time>
      </trkpt>
      <trkpt lat="44.74863" lon="5.04804">
        <ele>399.57</ele>
        <time>2016-08-22T13:46:51Z</time>
      </trkpt>
      <trkpt lat="44.74858" lon="5.04806">
        <ele>399.57</ele>
        <time>2016-08-22T13:46:52Z</time>
      </trkpt>
      <trkpt lat="44.74853" lon="5.04807">
        <ele>399.57</ele>
        <time>2016-08-22T13:46:53Z</time>
      </trkpt>
      <trkpt lat="44.74848" lon="5.04808">
        <ele>399.57</ele>
        <time>2016-08-22T13:46:54Z</time>
      </trkpt>
      <trkpt lat="44.74842" lon="5.04809">
        <ele>399.57</ele>
        <time>2016-08-22T13:46:55Z</time>
      </trkpt>
      <trkpt lat="44.74816" lon="5.04811">
        <ele>398.6</ele>
        <time>2016-08-22T13:47:00Z</time>
      </trkpt>
      <trkpt lat="44.74806" lon="5.04811">
        <ele>397.64</ele>
        <time>2016-08-22T13:47:02Z</time>
      </trkpt>
      <trkpt lat="44.74801" lon="5.04812">
        <ele>397.16</ele>
        <time>2016-08-22T13:47:03Z</time>
      </trkpt>
      <trkpt lat="44.7478" lon="5.04814">
        <ele>396.68</ele>
        <time>2016-08-22T13:47:07Z</time>
      </trkpt>
      <trkpt lat="44.74716" lon="5.04811">
        <ele>394.28</ele>
        <time>2016-08-22T13:47:19Z</time>
      </trkpt>
      <trkpt lat="44.74697" lon="5.04811">
        <ele>392.84</ele>
        <time>2016-08-22T13:47:22Z</time>
      </trkpt>
      <trkpt lat="44.7469" lon="5.04809">
        <ele>392.36</ele>
        <time>2016-08-22T13:47:23Z</time>
      </trkpt>
      <trkpt lat="44.74683" lon="5.04808">
        <ele>391.39</ele>
        <time>2016-08-22T13:47:24Z</time>
      </trkpt>
      <trkpt lat="44.74661" lon="5.04807">
        <ele>388.51</ele>
        <time>2016-08-22T13:47:27Z</time>
      </trkpt>
      <trkpt lat="44.74654" lon="5.04805">
        <ele>388.51</ele>
        <time>2016-08-22T13:47:28Z</time>
      </trkpt>
      <trkpt lat="44.74647" lon="5.04803">
        <ele>388.03</ele>
        <time>2016-08-22T13:47:29Z</time>
      </trkpt>
      <trkpt lat="44.74639" lon="5.04802">
        <ele>387.55</ele>
        <time>2016-08-22T13:47:30Z</time>
      </trkpt>
      <trkpt lat="44.74632" lon="5.04802">
        <ele>387.07</ele>
        <time>2016-08-22T13:47:31Z</time>
      </trkpt>
      <trkpt lat="44.74617" lon="5.04801">
        <ele>384.66</ele>
        <time>2016-08-22T13:47:33Z</time>
      </trkpt>
      <trkpt lat="44.74602" lon="5.04801">
        <ele>385.15</ele>
        <time>2016-08-22T13:47:35Z</time>
      </trkpt>
      <trkpt lat="44.74594" lon="5.048">
        <ele>384.18</ele>
        <time>2016-08-22T13:47:36Z</time>
      </trkpt>
      <trkpt lat="44.7458" lon="5.04797">
        <ele>383.7</ele>
        <time>2016-08-22T13:47:38Z</time>
      </trkpt>
      <trkpt lat="44.74566" lon="5.04793">
        <ele>381.78</ele>
        <time>2016-08-22T13:47:40Z</time>
      </trkpt>
      <trkpt lat="44.74546" lon="5.04794">
        <ele>381.78</ele>
        <time>2016-08-22T13:47:43Z</time>
      </trkpt>
      <trkpt lat="44.74539" lon="5.04794">
        <ele>381.3</ele>
        <time>2016-08-22T13:47:44Z</time>
      </trkpt>
      <trkpt lat="44.74525" lon="5.04795">
        <ele>380.82</ele>
        <time>2016-08-22T13:47:46Z</time>
      </trkpt>
      <trkpt lat="44.74518" lon="5.04794">
        <ele>380.34</ele>
        <time>2016-08-22T13:47:47Z</time>
      </trkpt>
      <trkpt lat="44.74492" lon="5.04791">
        <ele>379.86</ele>
        <time>2016-08-22T13:47:51Z</time>
      </trkpt>
      <trkpt lat="44.74484" lon="5.0479">
        <ele>380.34</ele>
        <time>2016-08-22T13:47:52Z</time>
      </trkpt>
      <trkpt lat="44.74477" lon="5.0479">
        <ele>381.3</ele>
        <time>2016-08-22T13:47:53Z</time>
      </trkpt>
      <trkpt lat="44.74465" lon="5.0479">
        <ele>382.26</ele>
        <time>2016-08-22T13:47:55Z</time>
      </trkpt>
      <trkpt lat="44.7444" lon="5.04788">
        <ele>384.18</ele>
        <time>2016-08-22T13:47:59Z</time>
      </trkpt>
      <trkpt lat="44.74435" lon="5.04788">
        <ele>384.18</ele>
        <time>2016-08-22T13:48:00Z</time>
      </trkpt>
      <trkpt lat="44.7443" lon="5.04788">
        <ele>384.18</ele>
        <time>2016-08-22T13:48:01Z</time>
      </trkpt>
      <trkpt lat="44.74415" lon="5.04785">
        <ele>384.18</ele>
        <time>2016-08-22T13:48:04Z</time>
      </trkpt>
      <trkpt lat="44.74405" lon="5.04782">
        <ele>385.15</ele>
        <time>2016-08-22T13:48:06Z</time>
      </trkpt>
      <trkpt lat="44.74372" lon="5.04773">
        <ele>386.11</ele>
        <time>2016-08-22T13:48:13Z</time>
      </trkpt>
      <trkpt lat="44.74368" lon="5.0477">
        <ele>386.11</ele>
        <time>2016-08-22T13:48:14Z</time>
      </trkpt>
      <trkpt lat="44.74365" lon="5.04767">
        <ele>386.11</ele>
        <time>2016-08-22T13:48:15Z</time>
      </trkpt>
      <trkpt lat="44.74361" lon="5.04763">
        <ele>386.11</ele>
        <time>2016-08-22T13:48:16Z</time>
      </trkpt>
      <trkpt lat="44.74357" lon="5.04762">
        <ele>386.11</ele>
        <time>2016-08-22T13:48:17Z</time>
      </trkpt>
      <trkpt lat="44.74352" lon="5.04762">
        <ele>386.11</ele>
        <time>2016-08-22T13:48:18Z</time>
      </trkpt>
      <trkpt lat="44.74347" lon="5.04762">
        <ele>385.63</ele>
        <time>2016-08-22T13:48:19Z</time>
      </trkpt>
      <trkpt lat="44.74342" lon="5.04761">
        <ele>385.15</ele>
        <time>2016-08-22T13:48:20Z</time>
      </trkpt>
      <trkpt lat="44.74337" lon="5.04761">
        <ele>384.18</ele>
        <time>2016-08-22T13:48:21Z</time>
      </trkpt>
      <trkpt lat="44.74331" lon="5.04761">
        <ele>384.18</ele>
        <time>2016-08-22T13:48:22Z</time>
      </trkpt>
      <trkpt lat="44.74325" lon="5.0476">
        <ele>383.7</ele>
        <time>2016-08-22T13:48:23Z</time>
      </trkpt>
      <trkpt lat="44.7432" lon="5.04758">
        <ele>383.22</ele>
        <time>2016-08-22T13:48:24Z</time>
      </trkpt>
      <trkpt lat="44.74314" lon="5.04755">
        <ele>382.74</ele>
        <time>2016-08-22T13:48:25Z</time>
      </trkpt>
      <trkpt lat="44.74308" lon="5.04754">
        <ele>382.26</ele>
        <time>2016-08-22T13:48:26Z</time>
      </trkpt>
      <trkpt lat="44.74302" lon="5.04752">
        <ele>381.78</ele>
        <time>2016-08-22T13:48:27Z</time>
      </trkpt>
      <trkpt lat="44.7429" lon="5.04747">
        <ele>380.82</ele>
        <time>2016-08-22T13:48:29Z</time>
      </trkpt>
      <trkpt lat="44.74285" lon="5.04742">
        <ele>380.34</ele>
        <time>2016-08-22T13:48:30Z</time>
      </trkpt>
      <trkpt lat="44.74279" lon="5.04737">
        <ele>379.86</ele>
        <time>2016-08-22T13:48:31Z</time>
      </trkpt>
      <trkpt lat="44.74273" lon="5.04733">
        <ele>379.38</ele>
        <time>2016-08-22T13:48:32Z</time>
      </trkpt>
      <trkpt lat="44.74267" lon="5.04729">
        <ele>378.9</ele>
        <time>2016-08-22T13:48:33Z</time>
      </trkpt>
      <trkpt lat="44.74257" lon="5.04722">
        <ele>377.94</ele>
        <time>2016-08-22T13:48:35Z</time>
      </trkpt>
      <trkpt lat="44.74252" lon="5.04721">
        <ele>377.45</ele>
        <time>2016-08-22T13:48:36Z</time>
      </trkpt>
      <trkpt lat="44.74248" lon="5.0472">
        <ele>376.49</ele>
        <time>2016-08-22T13:48:37Z</time>
      </trkpt>
      <trkpt lat="44.74244" lon="5.0472">
        <ele>375.53</ele>
        <time>2016-08-22T13:48:38Z</time>
      </trkpt>
      <trkpt lat="44.74241" lon="5.04719">
        <ele>374.57</ele>
        <time>2016-08-22T13:48:39Z</time>
      </trkpt>
      <trkpt lat="44.74238" lon="5.04715">
        <ele>374.09</ele>
        <time>2016-08-22T13:48:40Z</time>
      </trkpt>
      <trkpt lat="44.74236" lon="5.04712">
        <ele>373.61</ele>
        <time>2016-08-22T13:48:41Z</time>
      </trkpt>
      <trkpt lat="44.74236" lon="5.04709">
        <ele>373.61</ele>
        <time>2016-08-22T13:48:42Z</time>
      </trkpt>
      <trkpt lat="44.74236" lon="5.04704">
        <ele>373.13</ele>
        <time>2016-08-22T13:48:43Z</time>
      </trkpt>
      <trkpt lat="44.74234" lon="5.047">
        <ele>372.17</ele>
        <time>2016-08-22T13:48:44Z</time>
      </trkpt>
      <trkpt lat="44.74231" lon="5.04697">
        <ele>371.69</ele>
        <time>2016-08-22T13:48:45Z</time>
      </trkpt>
      <trkpt lat="44.74228" lon="5.04693">
        <ele>370.73</ele>
        <time>2016-08-22T13:48:46Z</time>
      </trkpt>
      <trkpt lat="44.74218" lon="5.04682">
        <ele>366.88</ele>
        <time>2016-08-22T13:48:49Z</time>
      </trkpt>
      <trkpt lat="44.74213" lon="5.04679">
        <ele>365.44</ele>
        <time>2016-08-22T13:48:51Z</time>
      </trkpt>
      <trkpt lat="44.74211" lon="5.04678">
        <ele>364.48</ele>
        <time>2016-08-22T13:48:52Z</time>
      </trkpt>
      <trkpt lat="44.7421" lon="5.04675">
        <ele>364</ele>
        <time>2016-08-22T13:48:53Z</time>
      </trkpt>
      <trkpt lat="44.7421" lon="5.04673">
        <ele>363.04</ele>
        <time>2016-08-22T13:48:54Z</time>
      </trkpt>
      <trkpt lat="44.74207" lon="5.04659">
        <ele>358.71</ele>
        <time>2016-08-22T13:48:59Z</time>
      </trkpt>
      <trkpt lat="44.74203" lon="5.04645">
        <ele>354.38</ele>
        <time>2016-08-22T13:49:02Z</time>
      </trkpt>
      <trkpt lat="44.74201" lon="5.04632">
        <ele>349.1</ele>
        <time>2016-08-22T13:49:05Z</time>
      </trkpt>
      <trkpt lat="44.74195" lon="5.04622">
        <ele>347.17</ele>
        <time>2016-08-22T13:49:07Z</time>
      </trkpt>
      <trkpt lat="44.74193" lon="5.04615">
        <ele>345.73</ele>
        <time>2016-08-22T13:49:08Z</time>
      </trkpt>
      <trkpt lat="44.74192" lon="5.04607">
        <ele>343.81</ele>
        <time>2016-08-22T13:49:09Z</time>
      </trkpt>
      <trkpt lat="44.74191" lon="5.046">
        <ele>343.33</ele>
        <time>2016-08-22T13:49:10Z</time>
      </trkpt>
      <trkpt lat="44.74192" lon="5.04589">
        <ele>342.37</ele>
        <time>2016-08-22T13:49:12Z</time>
      </trkpt>
      <trkpt lat="44.74194" lon="5.04586">
        <ele>341.89</ele>
        <time>2016-08-22T13:49:13Z</time>
      </trkpt>
      <trkpt lat="44.74196" lon="5.04582">
        <ele>340.92</ele>
        <time>2016-08-22T13:49:14Z</time>
      </trkpt>
      <trkpt lat="44.74201" lon="5.04577">
        <ele>340.92</ele>
        <time>2016-08-22T13:49:16Z</time>
      </trkpt>
      <trkpt lat="44.74205" lon="5.04573">
        <ele>340.44</ele>
        <time>2016-08-22T13:49:17Z</time>
      </trkpt>
      <trkpt lat="44.74209" lon="5.0457">
        <ele>339</ele>
        <time>2016-08-22T13:49:18Z</time>
      </trkpt>
      <trkpt lat="44.74212" lon="5.04566">
        <ele>338.04</ele>
        <time>2016-08-22T13:49:19Z</time>
      </trkpt>
      <trkpt lat="44.74213" lon="5.04562">
        <ele>337.56</ele>
        <time>2016-08-22T13:49:20Z</time>
      </trkpt>
      <trkpt lat="44.74212" lon="5.04556">
        <ele>336.12</ele>
        <time>2016-08-22T13:49:21Z</time>
      </trkpt>
      <trkpt lat="44.74212" lon="5.04551">
        <ele>333.71</ele>
        <time>2016-08-22T13:49:22Z</time>
      </trkpt>
      <trkpt lat="44.74209" lon="5.04549">
        <ele>333.23</ele>
        <time>2016-08-22T13:49:23Z</time>
      </trkpt>
      <trkpt lat="44.74204" lon="5.04548">
        <ele>333.23</ele>
        <time>2016-08-22T13:49:24Z</time>
      </trkpt>
      <trkpt lat="44.74185" lon="5.04548">
        <ele>332.27</ele>
        <time>2016-08-22T13:49:29Z</time>
      </trkpt>
      <trkpt lat="44.74177" lon="5.04543">
        <ele>331.79</ele>
        <time>2016-08-22T13:49:33Z</time>
      </trkpt>
      <trkpt lat="44.74187" lon="5.04535">
        <ele>328.43</ele>
        <time>2016-08-22T13:49:38Z</time>
      </trkpt>
      <trkpt lat="44.74196" lon="5.04529">
        <ele>326.99</ele>
        <time>2016-08-22T13:49:41Z</time>
      </trkpt>
      <trkpt lat="44.742" lon="5.04526">
        <ele>326.02</ele>
        <time>2016-08-22T13:49:42Z</time>
      </trkpt>
      <trkpt lat="44.74203" lon="5.04522">
        <ele>326.02</ele>
        <time>2016-08-22T13:49:43Z</time>
      </trkpt>
      <trkpt lat="44.74206" lon="5.04518">
        <ele>326.5</ele>
        <time>2016-08-22T13:49:44Z</time>
      </trkpt>
      <trkpt lat="44.74209" lon="5.04515">
        <ele>325.06</ele>
        <time>2016-08-22T13:49:45Z</time>
      </trkpt>
      <trkpt lat="44.74212" lon="5.04512">
        <ele>324.1</ele>
        <time>2016-08-22T13:49:46Z</time>
      </trkpt>
      <trkpt lat="44.74226" lon="5.04502">
        <ele>320.26</ele>
        <time>2016-08-22T13:49:50Z</time>
      </trkpt>
      <trkpt lat="44.74228" lon="5.045">
        <ele>319.78</ele>
        <time>2016-08-22T13:49:51Z</time>
      </trkpt>
      <trkpt lat="44.74229" lon="5.04497">
        <ele>319.3</ele>
        <time>2016-08-22T13:49:52Z</time>
      </trkpt>
      <trkpt lat="44.74224" lon="5.0448">
        <ele>315.93</ele>
        <time>2016-08-22T13:49:56Z</time>
      </trkpt>
      <trkpt lat="44.74225" lon="5.04462">
        <ele>313.53</ele>
        <time>2016-08-22T13:50:00Z</time>
      </trkpt>
      <trkpt lat="44.74228" lon="5.04459">
        <ele>311.6</ele>
        <time>2016-08-22T13:50:01Z</time>
      </trkpt>
      <trkpt lat="44.74231" lon="5.04457">
        <ele>310.64</ele>
        <time>2016-08-22T13:50:02Z</time>
      </trkpt>
      <trkpt lat="44.74233" lon="5.04458">
        <ele>310.64</ele>
        <time>2016-08-22T13:50:03Z</time>
      </trkpt>
      <trkpt lat="44.74236" lon="5.04459">
        <ele>310.64</ele>
        <time>2016-08-22T13:50:04Z</time>
      </trkpt>
      <trkpt lat="44.74239" lon="5.04459">
        <ele>310.16</ele>
        <time>2016-08-22T13:50:05Z</time>
      </trkpt>
      <trkpt lat="44.74242" lon="5.04458">
        <ele>309.68</ele>
        <time>2016-08-22T13:50:06Z</time>
      </trkpt>
      <trkpt lat="44.74245" lon="5.04457">
        <ele>309.2</ele>
        <time>2016-08-22T13:50:07Z</time>
      </trkpt>
      <trkpt lat="44.74248" lon="5.04454">
        <ele>308.24</ele>
        <time>2016-08-22T13:50:08Z</time>
      </trkpt>
      <trkpt lat="44.74252" lon="5.04452">
        <ele>307.76</ele>
        <time>2016-08-22T13:50:09Z</time>
      </trkpt>
      <trkpt lat="44.74257" lon="5.04451">
        <ele>307.76</ele>
        <time>2016-08-22T13:50:10Z</time>
      </trkpt>
      <trkpt lat="44.74261" lon="5.0445">
        <ele>307.76</ele>
        <time>2016-08-22T13:50:11Z</time>
      </trkpt>
      <trkpt lat="44.74265" lon="5.04449">
        <ele>307.28</ele>
        <time>2016-08-22T13:50:12Z</time>
      </trkpt>
      <trkpt lat="44.74267" lon="5.04447">
        <ele>306.8</ele>
        <time>2016-08-22T13:50:13Z</time>
      </trkpt>
      <trkpt lat="44.74267" lon="5.04444">
        <ele>305.84</ele>
        <time>2016-08-22T13:50:14Z</time>
      </trkpt>
      <trkpt lat="44.74266" lon="5.04442">
        <ele>306.32</ele>
        <time>2016-08-22T13:50:15Z</time>
      </trkpt>
      <trkpt lat="44.74263" lon="5.0444">
        <ele>306.32</ele>
        <time>2016-08-22T13:50:16Z</time>
      </trkpt>
      <trkpt lat="44.74252" lon="5.04435">
        <ele>303.91</ele>
        <time>2016-08-22T13:50:19Z</time>
      </trkpt>
      <trkpt lat="44.74248" lon="5.04433">
        <ele>303.43</ele>
        <time>2016-08-22T13:50:20Z</time>
      </trkpt>
      <trkpt lat="44.74245" lon="5.04431">
        <ele>303.43</ele>
        <time>2016-08-22T13:50:21Z</time>
      </trkpt>
      <trkpt lat="44.7424" lon="5.04426">
        <ele>301.99</ele>
        <time>2016-08-22T13:50:23Z</time>
      </trkpt>
      <trkpt lat="44.74237" lon="5.04422">
        <ele>301.03</ele>
        <time>2016-08-22T13:50:24Z</time>
      </trkpt>
      <trkpt lat="44.74236" lon="5.04418">
        <ele>300.07</ele>
        <time>2016-08-22T13:50:25Z</time>
      </trkpt>
      <trkpt lat="44.74236" lon="5.04413">
        <ele>299.11</ele>
        <time>2016-08-22T13:50:26Z</time>
      </trkpt>
      <trkpt lat="44.74235" lon="5.04408">
        <ele>298.63</ele>
        <time>2016-08-22T13:50:27Z</time>
      </trkpt>
      <trkpt lat="44.74231" lon="5.044">
        <ele>296.7</ele>
        <time>2016-08-22T13:50:29Z</time>
      </trkpt>
      <trkpt lat="44.74229" lon="5.04398">
        <ele>296.22</ele>
        <time>2016-08-22T13:50:30Z</time>
      </trkpt>
      <trkpt lat="44.74226" lon="5.04395">
        <ele>296.22</ele>
        <time>2016-08-22T13:50:31Z</time>
      </trkpt>
      <trkpt lat="44.74223" lon="5.04394">
        <ele>296.22</ele>
        <time>2016-08-22T13:50:32Z</time>
      </trkpt>
      <trkpt lat="44.74219" lon="5.04392">
        <ele>295.26</ele>
        <time>2016-08-22T13:50:33Z</time>
      </trkpt>
      <trkpt lat="44.7421" lon="5.04386">
        <ele>293.34</ele>
        <time>2016-08-22T13:50:36Z</time>
      </trkpt>
      <trkpt lat="44.74208" lon="5.04383">
        <ele>292.86</ele>
        <time>2016-08-22T13:50:37Z</time>
      </trkpt>
      <trkpt lat="44.74204" lon="5.04381">
        <ele>292.38</ele>
        <time>2016-08-22T13:50:38Z</time>
      </trkpt>
      <trkpt lat="44.742" lon="5.04379">
        <ele>291.9</ele>
        <time>2016-08-22T13:50:39Z</time>
      </trkpt>
      <trkpt lat="44.74196" lon="5.04377">
        <ele>290.94</ele>
        <time>2016-08-22T13:50:40Z</time>
      </trkpt>
      <trkpt lat="44.74191" lon="5.04375">
        <ele>289.97</ele>
        <time>2016-08-22T13:50:41Z</time>
      </trkpt>
      <trkpt lat="44.74175" lon="5.04371">
        <ele>288.53</ele>
        <time>2016-08-22T13:50:45Z</time>
      </trkpt>
      <trkpt lat="44.74161" lon="5.0437">
        <ele>288.05</ele>
        <time>2016-08-22T13:50:48Z</time>
      </trkpt>
      <trkpt lat="44.74157" lon="5.0437">
        <ele>287.57</ele>
        <time>2016-08-22T13:50:49Z</time>
      </trkpt>
      <trkpt lat="44.74153" lon="5.04369">
        <ele>286.61</ele>
        <time>2016-08-22T13:50:50Z</time>
      </trkpt>
      <trkpt lat="44.74149" lon="5.04368">
        <ele>285.65</ele>
        <time>2016-08-22T13:50:51Z</time>
      </trkpt>
      <trkpt lat="44.74147" lon="5.04366">
        <ele>285.65</ele>
        <time>2016-08-22T13:50:52Z</time>
      </trkpt>
      <trkpt lat="44.74144" lon="5.04364">
        <ele>285.17</ele>
        <time>2016-08-22T13:50:53Z</time>
      </trkpt>
      <trkpt lat="44.7414" lon="5.04362">
        <ele>284.69</ele>
        <time>2016-08-22T13:50:54Z</time>
      </trkpt>
      <trkpt lat="44.74136" lon="5.0436">
        <ele>283.73</ele>
        <time>2016-08-22T13:50:55Z</time>
      </trkpt>
      <trkpt lat="44.74132" lon="5.04357">
        <ele>283.25</ele>
        <time>2016-08-22T13:50:56Z</time>
      </trkpt>
      <trkpt lat="44.74128" lon="5.04356">
        <ele>282.28</ele>
        <time>2016-08-22T13:50:57Z</time>
      </trkpt>
      <trkpt lat="44.74117" lon="5.04354">
        <ele>281.32</ele>
        <time>2016-08-22T13:50:59Z</time>
      </trkpt>
      <trkpt lat="44.74107" lon="5.04352">
        <ele>280.36</ele>
        <time>2016-08-22T13:51:01Z</time>
      </trkpt>
      <trkpt lat="44.74103" lon="5.04351">
        <ele>279.88</ele>
        <time>2016-08-22T13:51:02Z</time>
      </trkpt>
      <trkpt lat="44.741" lon="5.0435">
        <ele>279.4</ele>
        <time>2016-08-22T13:51:03Z</time>
      </trkpt>
      <trkpt lat="44.74097" lon="5.04349">
        <ele>278.92</ele>
        <time>2016-08-22T13:51:04Z</time>
      </trkpt>
      <trkpt lat="44.74093" lon="5.04349">
        <ele>278.44</ele>
        <time>2016-08-22T13:51:05Z</time>
      </trkpt>
      <trkpt lat="44.7409" lon="5.04349">
        <ele>277.48</ele>
        <time>2016-08-22T13:51:06Z</time>
      </trkpt>
      <trkpt lat="44.74086" lon="5.04349">
        <ele>277</ele>
        <time>2016-08-22T13:51:07Z</time>
      </trkpt>
      <trkpt lat="44.74081" lon="5.04349">
        <ele>277</ele>
        <time>2016-08-22T13:51:08Z</time>
      </trkpt>
      <trkpt lat="44.74077" lon="5.04348">
        <ele>276.52</ele>
        <time>2016-08-22T13:51:09Z</time>
      </trkpt>
      <trkpt lat="44.74072" lon="5.04347">
        <ele>276.04</ele>
        <time>2016-08-22T13:51:10Z</time>
      </trkpt>
      <trkpt lat="44.74049" lon="5.04338">
        <ele>272.67</ele>
        <time>2016-08-22T13:51:17Z</time>
      </trkpt>
      <trkpt lat="44.74049" lon="5.04335">
        <ele>272.67</ele>
        <time>2016-08-22T13:51:18Z</time>
      </trkpt>
      <trkpt lat="44.74049" lon="5.04332">
        <ele>271.71</ele>
        <time>2016-08-22T13:51:19Z</time>
      </trkpt>
      <trkpt lat="44.7405" lon="5.0433">
        <ele>270.75</ele>
        <time>2016-08-22T13:51:21Z</time>
      </trkpt>
      <trkpt lat="44.74051" lon="5.04331">
        <ele>264.98</ele>
        <time>2016-08-22T13:51:27Z</time>
      </trkpt>
      <trkpt lat="44.74051" lon="5.04331">
        <ele>278.44</ele>
        <time>2016-08-22T13:51:28Z</time>
      </trkpt>
      <trkpt lat="44.74051" lon="5.04331">
        <ele>269.31</ele>
        <time>2016-08-22T13:51:29Z</time>
      </trkpt>
      <trkpt lat="44.74051" lon="5.04331">
        <ele>274.59</ele>
        <time>2016-08-22T13:51:31Z</time>
      </trkpt>
      <trkpt lat="44.74051" lon="5.04331">
        <ele>269.31</ele>
        <time>2016-08-22T13:51:32Z</time>
      </trkpt>
      <trkpt lat="44.74052" lon="5.0433">
        <ele>270.27</ele>
        <time>2016-08-22T13:51:42Z</time>
      </trkpt>
      <trkpt lat="44.74052" lon="5.04328">
        <ele>270.75</ele>
        <time>2016-08-22T13:51:43Z</time>
      </trkpt>
      <trkpt lat="44.74054" lon="5.04327">
        <ele>270.27</ele>
        <time>2016-08-22T13:51:44Z</time>
      </trkpt>
      <trkpt lat="44.74056" lon="5.04324">
        <ele>269.79</ele>
        <time>2016-08-22T13:51:45Z</time>
      </trkpt>
      <trkpt lat="44.74058" lon="5.04321">
        <ele>268.83</ele>
        <time>2016-08-22T13:51:46Z</time>
      </trkpt>
      <trkpt lat="44.74061" lon="5.04319">
        <ele>267.38</ele>
        <time>2016-08-22T13:51:47Z</time>
      </trkpt>
      <trkpt lat="44.74063" lon="5.04316">
        <ele>266.42</ele>
        <time>2016-08-22T13:51:48Z</time>
      </trkpt>
      <trkpt lat="44.74065" lon="5.04314">
        <ele>266.9</ele>
        <time>2016-08-22T13:51:49Z</time>
      </trkpt>
      <trkpt lat="44.74067" lon="5.04312">
        <ele>266.9</ele>
        <time>2016-08-22T13:51:50Z</time>
      </trkpt>
      <trkpt lat="44.7407" lon="5.0431">
        <ele>266.9</ele>
        <time>2016-08-22T13:51:51Z</time>
      </trkpt>
      <trkpt lat="44.74073" lon="5.04307">
        <ele>266.42</ele>
        <time>2016-08-22T13:51:52Z</time>
      </trkpt>
      <trkpt lat="44.74081" lon="5.04298">
        <ele>263.06</ele>
        <time>2016-08-22T13:51:55Z</time>
      </trkpt>
      <trkpt lat="44.74089" lon="5.04287">
        <ele>259.69</ele>
        <time>2016-08-22T13:51:58Z</time>
      </trkpt>
      <trkpt lat="44.74091" lon="5.04283">
        <ele>259.21</ele>
        <time>2016-08-22T13:51:59Z</time>
      </trkpt>
      <trkpt lat="44.74091" lon="5.0428">
        <ele>258.73</ele>
        <time>2016-08-22T13:52:00Z</time>
      </trkpt>
      <trkpt lat="44.74082" lon="5.04262">
        <ele>255.85</ele>
        <time>2016-08-22T13:52:04Z</time>
      </trkpt>
      <trkpt lat="44.74079" lon="5.0426">
        <ele>255.85</ele>
        <time>2016-08-22T13:52:05Z</time>
      </trkpt>
      <trkpt lat="44.74076" lon="5.04259">
        <ele>256.81</ele>
        <time>2016-08-22T13:52:06Z</time>
      </trkpt>
      <trkpt lat="44.74073" lon="5.04259">
        <ele>257.29</ele>
        <time>2016-08-22T13:52:07Z</time>
      </trkpt>
      <trkpt lat="44.7407" lon="5.04256">
        <ele>258.25</ele>
        <time>2016-08-22T13:52:10Z</time>
      </trkpt>
      <trkpt lat="44.74067" lon="5.04256">
        <ele>258.73</ele>
        <time>2016-08-22T13:52:13Z</time>
      </trkpt>
      <trkpt lat="44.74066" lon="5.04256">
        <ele>258.73</ele>
        <time>2016-08-22T13:52:14Z</time>
      </trkpt>
      <trkpt lat="44.74064" lon="5.04255">
        <ele>259.21</ele>
        <time>2016-08-22T13:52:15Z</time>
      </trkpt>
      <trkpt lat="44.74063" lon="5.04255">
        <ele>259.21</ele>
        <time>2016-08-22T13:52:16Z</time>
      </trkpt>
      <trkpt lat="44.74061" lon="5.04254">
        <ele>259.21</ele>
        <time>2016-08-22T13:52:17Z</time>
      </trkpt>
      <trkpt lat="44.7406" lon="5.04254">
        <ele>259.21</ele>
        <time>2016-08-22T13:52:18Z</time>
      </trkpt>
      <trkpt lat="44.74058" lon="5.04253">
        <ele>259.69</ele>
        <time>2016-08-22T13:52:19Z</time>
      </trkpt>
      <trkpt lat="44.74057" lon="5.04253">
        <ele>259.69</ele>
        <time>2016-08-22T13:52:20Z</time>
      </trkpt>
      <trkpt lat="44.74055" lon="5.04252">
        <ele>259.69</ele>
        <time>2016-08-22T13:52:21Z</time>
      </trkpt>
      <trkpt lat="44.74054" lon="5.04251">
        <ele>259.69</ele>
        <time>2016-08-22T13:52:22Z</time>
      </trkpt>
      <trkpt lat="44.74041" lon="5.04244">
        <ele>261.14</ele>
        <time>2016-08-22T13:52:35Z</time>
      </trkpt>
      <trkpt lat="44.74041" lon="5.04244">
        <ele>261.62</ele>
        <time>2016-08-22T13:52:46Z</time>
      </trkpt>
      <trkpt lat="44.74037" lon="5.04245">
        <ele>261.14</ele>
        <time>2016-08-22T13:52:49Z</time>
      </trkpt>
      <trkpt lat="44.74015" lon="5.04244">
        <ele>263.54</ele>
        <time>2016-08-22T13:53:00Z</time>
      </trkpt>
      <trkpt lat="44.74011" lon="5.04245">
        <ele>264.02</ele>
        <time>2016-08-22T13:53:02Z</time>
      </trkpt>
      <trkpt lat="44.74009" lon="5.04245">
        <ele>264.5</ele>
        <time>2016-08-22T13:53:03Z</time>
      </trkpt>
      <trkpt lat="44.74007" lon="5.04244">
        <ele>264.5</ele>
        <time>2016-08-22T13:53:04Z</time>
      </trkpt>
      <trkpt lat="44.74005" lon="5.04242">
        <ele>264.98</ele>
        <time>2016-08-22T13:53:05Z</time>
      </trkpt>
      <trkpt lat="44.74004" lon="5.0424">
        <ele>264.98</ele>
        <time>2016-08-22T13:53:06Z</time>
      </trkpt>
      <trkpt lat="44.74001" lon="5.04237">
        <ele>265.46</ele>
        <time>2016-08-22T13:53:08Z</time>
      </trkpt>
      <trkpt lat="44.74" lon="5.04235">
        <ele>266.42</ele>
        <time>2016-08-22T13:53:09Z</time>
      </trkpt>
      <trkpt lat="44.73999" lon="5.04233">
        <ele>266.42</ele>
        <time>2016-08-22T13:53:10Z</time>
      </trkpt>
      <trkpt lat="44.73998" lon="5.04231">
        <ele>266.9</ele>
        <time>2016-08-22T13:53:11Z</time>
      </trkpt>
      <trkpt lat="44.73997" lon="5.04229">
        <ele>267.38</ele>
        <time>2016-08-22T13:53:12Z</time>
      </trkpt>
      <trkpt lat="44.73996" lon="5.04228">
        <ele>267.38</ele>
        <time>2016-08-22T13:53:13Z</time>
      </trkpt>
      <trkpt lat="44.73994" lon="5.04227">
        <ele>266.9</ele>
        <time>2016-08-22T13:53:14Z</time>
      </trkpt>
      <trkpt lat="44.7399" lon="5.04227">
        <ele>266.42</ele>
        <time>2016-08-22T13:53:15Z</time>
      </trkpt>
      <trkpt lat="44.73987" lon="5.04227">
        <ele>266.42</ele>
        <time>2016-08-22T13:53:16Z</time>
      </trkpt>
      <trkpt lat="44.73984" lon="5.04228">
        <ele>266.42</ele>
        <time>2016-08-22T13:53:17Z</time>
      </trkpt>
      <trkpt lat="44.73964" lon="5.04234">
        <ele>265.46</ele>
        <time>2016-08-22T13:53:22Z</time>
      </trkpt>
      <trkpt lat="44.73959" lon="5.04234">
        <ele>264.98</ele>
        <time>2016-08-22T13:53:23Z</time>
      </trkpt>
      <trkpt lat="44.73929" lon="5.04231">
        <ele>265.46</ele>
        <time>2016-08-22T13:53:29Z</time>
      </trkpt>
      <trkpt lat="44.73899" lon="5.0422">
        <ele>265.46</ele>
        <time>2016-08-22T13:53:36Z</time>
      </trkpt>
      <trkpt lat="44.73887" lon="5.04217">
        <ele>265.46</ele>
        <time>2016-08-22T13:53:39Z</time>
      </trkpt>
      <trkpt lat="44.73823" lon="5.0421">
        <ele>264.5</ele>
        <time>2016-08-22T13:53:52Z</time>
      </trkpt>
      <trkpt lat="44.73811" lon="5.04209">
        <ele>263.06</ele>
        <time>2016-08-22T13:53:54Z</time>
      </trkpt>
      <trkpt lat="44.73804" lon="5.04207">
        <ele>263.06</ele>
        <time>2016-08-22T13:53:55Z</time>
      </trkpt>
      <trkpt lat="44.73798" lon="5.04204">
        <ele>262.58</ele>
        <time>2016-08-22T13:53:56Z</time>
      </trkpt>
      <trkpt lat="44.73779" lon="5.04195">
        <ele>261.14</ele>
        <time>2016-08-22T13:53:59Z</time>
      </trkpt>
      <trkpt lat="44.73772" lon="5.04193">
        <ele>261.14</ele>
        <time>2016-08-22T13:54:00Z</time>
      </trkpt>
      <trkpt lat="44.73764" lon="5.0419">
        <ele>260.65</ele>
        <time>2016-08-22T13:54:01Z</time>
      </trkpt>
      <trkpt lat="44.73756" lon="5.04189">
        <ele>259.21</ele>
        <time>2016-08-22T13:54:02Z</time>
      </trkpt>
      <trkpt lat="44.7374" lon="5.04188">
        <ele>256.81</ele>
        <time>2016-08-22T13:54:04Z</time>
      </trkpt>
      <trkpt lat="44.73732" lon="5.04186">
        <ele>256.33</ele>
        <time>2016-08-22T13:54:05Z</time>
      </trkpt>
      <trkpt lat="44.73725" lon="5.04183">
        <ele>255.85</ele>
        <time>2016-08-22T13:54:06Z</time>
      </trkpt>
      <trkpt lat="44.7369" lon="5.04169">
        <ele>252</ele>
        <time>2016-08-22T13:54:10Z</time>
      </trkpt>
      <trkpt lat="44.73655" lon="5.04151">
        <ele>248.16</ele>
        <time>2016-08-22T13:54:14Z</time>
      </trkpt>
      <trkpt lat="44.73626" lon="5.04132">
        <ele>244.31</ele>
        <time>2016-08-22T13:54:17Z</time>
      </trkpt>
      <trkpt lat="44.73605" lon="5.04121">
        <ele>242.39</ele>
        <time>2016-08-22T13:54:19Z</time>
      </trkpt>
      <trkpt lat="44.73555" lon="5.04077">
        <ele>246.23</ele>
        <time>2016-08-22T13:54:26Z</time>
      </trkpt>
      <trkpt lat="44.7355" lon="5.04074">
        <ele>247.68</ele>
        <time>2016-08-22T13:54:27Z</time>
      </trkpt>
      <trkpt lat="44.73545" lon="5.04071">
        <ele>247.68</ele>
        <time>2016-08-22T13:54:28Z</time>
      </trkpt>
      <trkpt lat="44.73524" lon="5.04062">
        <ele>249.12</ele>
        <time>2016-08-22T13:54:32Z</time>
      </trkpt>
      <trkpt lat="44.73502" lon="5.04052">
        <ele>250.56</ele>
        <time>2016-08-22T13:54:37Z</time>
      </trkpt>
      <trkpt lat="44.73498" lon="5.04051">
        <ele>251.04</ele>
        <time>2016-08-22T13:54:38Z</time>
      </trkpt>
      <trkpt lat="44.73494" lon="5.04049">
        <ele>250.56</ele>
        <time>2016-08-22T13:54:39Z</time>
      </trkpt>
      <trkpt lat="44.7349" lon="5.04046">
        <ele>251.04</ele>
        <time>2016-08-22T13:54:40Z</time>
      </trkpt>
      <trkpt lat="44.73486" lon="5.04044">
        <ele>251.04</ele>
        <time>2016-08-22T13:54:41Z</time>
      </trkpt>
      <trkpt lat="44.73472" lon="5.04036">
        <ele>251.04</ele>
        <time>2016-08-22T13:54:44Z</time>
      </trkpt>
      <trkpt lat="44.73463" lon="5.04032">
        <ele>251.04</ele>
        <time>2016-08-22T13:54:46Z</time>
      </trkpt>
      <trkpt lat="44.73458" lon="5.0403">
        <ele>251.52</ele>
        <time>2016-08-22T13:54:47Z</time>
      </trkpt>
      <trkpt lat="44.73401" lon="5.04013">
        <ele>250.56</ele>
        <time>2016-08-22T13:54:57Z</time>
      </trkpt>
      <trkpt lat="44.73394" lon="5.04012">
        <ele>250.56</ele>
        <time>2016-08-22T13:54:58Z</time>
      </trkpt>
      <trkpt lat="44.73343" lon="5.04003">
        <ele>250.08</ele>
        <time>2016-08-22T13:55:06Z</time>
      </trkpt>
      <trkpt lat="44.73337" lon="5.04002">
        <ele>250.08</ele>
        <time>2016-08-22T13:55:07Z</time>
      </trkpt>
      <trkpt lat="44.73313" lon="5.03999">
        <ele>250.56</ele>
        <time>2016-08-22T13:55:11Z</time>
      </trkpt>
      <trkpt lat="44.73307" lon="5.03999">
        <ele>250.56</ele>
        <time>2016-08-22T13:55:12Z</time>
      </trkpt>
      <trkpt lat="44.73254" lon="5.03993">
        <ele>251.04</ele>
        <time>2016-08-22T13:55:21Z</time>
      </trkpt>
      <trkpt lat="44.73248" lon="5.03991">
        <ele>251.04</ele>
        <time>2016-08-22T13:55:22Z</time>
      </trkpt>
      <trkpt lat="44.73238" lon="5.03986">
        <ele>251.04</ele>
        <time>2016-08-22T13:55:24Z</time>
      </trkpt>
      <trkpt lat="44.73232" lon="5.03984">
        <ele>251.04</ele>
        <time>2016-08-22T13:55:25Z</time>
      </trkpt>
      <trkpt lat="44.73168" lon="5.03983">
        <ele>247.68</ele>
        <time>2016-08-22T13:55:35Z</time>
      </trkpt>
      <trkpt lat="44.7316" lon="5.03983">
        <ele>247.2</ele>
        <time>2016-08-22T13:55:36Z</time>
      </trkpt>
      <trkpt lat="44.73137" lon="5.03982">
        <ele>246.72</ele>
        <time>2016-08-22T13:55:39Z</time>
      </trkpt>
      <trkpt lat="44.7313" lon="5.0398">
        <ele>246.72</ele>
        <time>2016-08-22T13:55:40Z</time>
      </trkpt>
      <trkpt lat="44.73123" lon="5.03978">
        <ele>247.2</ele>
        <time>2016-08-22T13:55:41Z</time>
      </trkpt>
      <trkpt lat="44.73099" lon="5.03964">
        <ele>247.68</ele>
        <time>2016-08-22T13:55:45Z</time>
      </trkpt>
      <trkpt lat="44.73094" lon="5.03959">
        <ele>248.16</ele>
        <time>2016-08-22T13:55:46Z</time>
      </trkpt>
      <trkpt lat="44.73089" lon="5.03952">
        <ele>248.64</ele>
        <time>2016-08-22T13:55:47Z</time>
      </trkpt>
      <trkpt lat="44.73086" lon="5.03946">
        <ele>248.64</ele>
        <time>2016-08-22T13:55:48Z</time>
      </trkpt>
      <trkpt lat="44.73083" lon="5.03939">
        <ele>249.12</ele>
        <time>2016-08-22T13:55:49Z</time>
      </trkpt>
      <trkpt lat="44.7308" lon="5.03932">
        <ele>249.12</ele>
        <time>2016-08-22T13:55:50Z</time>
      </trkpt>
      <trkpt lat="44.73078" lon="5.03925">
        <ele>250.08</ele>
        <time>2016-08-22T13:55:51Z</time>
      </trkpt>
      <trkpt lat="44.73076" lon="5.03918">
        <ele>250.08</ele>
        <time>2016-08-22T13:55:52Z</time>
      </trkpt>
      <trkpt lat="44.73076" lon="5.03911">
        <ele>250.56</ele>
        <time>2016-08-22T13:55:53Z</time>
      </trkpt>
      <trkpt lat="44.73075" lon="5.03904">
        <ele>250.08</ele>
        <time>2016-08-22T13:55:54Z</time>
      </trkpt>
      <trkpt lat="44.73075" lon="5.03897">
        <ele>250.56</ele>
        <time>2016-08-22T13:55:55Z</time>
      </trkpt>
      <trkpt lat="44.73074" lon="5.0389">
        <ele>250.56</ele>
        <time>2016-08-22T13:55:56Z</time>
      </trkpt>
      <trkpt lat="44.73073" lon="5.03884">
        <ele>251.04</ele>
        <time>2016-08-22T13:55:57Z</time>
      </trkpt>
      <trkpt lat="44.73073" lon="5.03878">
        <ele>251.04</ele>
        <time>2016-08-22T13:55:58Z</time>
      </trkpt>
      <trkpt lat="44.73072" lon="5.03853">
        <ele>251.52</ele>
        <time>2016-08-22T13:56:02Z</time>
      </trkpt>
      <trkpt lat="44.73068" lon="5.03812">
        <ele>251.52</ele>
        <time>2016-08-22T13:56:09Z</time>
      </trkpt>
      <trkpt lat="44.73066" lon="5.03801">
        <ele>251.52</ele>
        <time>2016-08-22T13:56:11Z</time>
      </trkpt>
      <trkpt lat="44.73064" lon="5.0378">
        <ele>250.08</ele>
        <time>2016-08-22T13:56:14Z</time>
      </trkpt>
      <trkpt lat="44.73065" lon="5.03764">
        <ele>248.16</ele>
        <time>2016-08-22T13:56:16Z</time>
      </trkpt>
      <trkpt lat="44.73066" lon="5.03757">
        <ele>247.2</ele>
        <time>2016-08-22T13:56:17Z</time>
      </trkpt>
      <trkpt lat="44.73069" lon="5.03744">
        <ele>244.79</ele>
        <time>2016-08-22T13:56:19Z</time>
      </trkpt>
      <trkpt lat="44.73071" lon="5.0373">
        <ele>246.72</ele>
        <time>2016-08-22T13:56:25Z</time>
      </trkpt>
      <trkpt lat="44.7307" lon="5.03728">
        <ele>247.68</ele>
        <time>2016-08-22T13:56:26Z</time>
      </trkpt>
      <trkpt lat="44.73068" lon="5.03724">
        <ele>247.68</ele>
        <time>2016-08-22T13:56:27Z</time>
      </trkpt>
      <trkpt lat="44.73065" lon="5.03712">
        <ele>246.23</ele>
        <time>2016-08-22T13:56:29Z</time>
      </trkpt>
      <trkpt lat="44.73063" lon="5.03704">
        <ele>245.27</ele>
        <time>2016-08-22T13:56:30Z</time>
      </trkpt>
      <trkpt lat="44.73062" lon="5.03696">
        <ele>244.31</ele>
        <time>2016-08-22T13:56:31Z</time>
      </trkpt>
      <trkpt lat="44.73061" lon="5.03678">
        <ele>242.39</ele>
        <time>2016-08-22T13:56:33Z</time>
      </trkpt>
      <trkpt lat="44.73059" lon="5.03648">
        <ele>239.02</ele>
        <time>2016-08-22T13:56:36Z</time>
      </trkpt>
      <trkpt lat="44.73058" lon="5.03638">
        <ele>238.54</ele>
        <time>2016-08-22T13:56:37Z</time>
      </trkpt>
      <trkpt lat="44.73056" lon="5.03616">
        <ele>238.06</ele>
        <time>2016-08-22T13:56:39Z</time>
      </trkpt>
      <trkpt lat="44.73055" lon="5.03605">
        <ele>237.58</ele>
        <time>2016-08-22T13:56:40Z</time>
      </trkpt>
      <trkpt lat="44.73054" lon="5.03594">
        <ele>236.62</ele>
        <time>2016-08-22T13:56:41Z</time>
      </trkpt>
      <trkpt lat="44.7305" lon="5.03558">
        <ele>234.7</ele>
        <time>2016-08-22T13:56:44Z</time>
      </trkpt>
      <trkpt lat="44.73047" lon="5.03547">
        <ele>236.14</ele>
        <time>2016-08-22T13:56:45Z</time>
      </trkpt>
      <trkpt lat="44.73042" lon="5.03536">
        <ele>234.7</ele>
        <time>2016-08-22T13:56:46Z</time>
      </trkpt>
      <trkpt lat="44.73035" lon="5.03525">
        <ele>233.74</ele>
        <time>2016-08-22T13:56:47Z</time>
      </trkpt>
      <trkpt lat="44.73027" lon="5.03517">
        <ele>232.78</ele>
        <time>2016-08-22T13:56:48Z</time>
      </trkpt>
      <trkpt lat="44.73019" lon="5.03509">
        <ele>231.81</ele>
        <time>2016-08-22T13:56:49Z</time>
      </trkpt>
      <trkpt lat="44.7301" lon="5.03502">
        <ele>230.85</ele>
        <time>2016-08-22T13:56:50Z</time>
      </trkpt>
      <trkpt lat="44.73" lon="5.03495">
        <ele>230.37</ele>
        <time>2016-08-22T13:56:51Z</time>
      </trkpt>
      <trkpt lat="44.72972" lon="5.03479">
        <ele>226.53</ele>
        <time>2016-08-22T13:56:54Z</time>
      </trkpt>
      <trkpt lat="44.72953" lon="5.03471">
        <ele>224.12</ele>
        <time>2016-08-22T13:56:56Z</time>
      </trkpt>
      <trkpt lat="44.72944" lon="5.03471">
        <ele>223.64</ele>
        <time>2016-08-22T13:56:57Z</time>
      </trkpt>
      <trkpt lat="44.72936" lon="5.03471">
        <ele>224.12</ele>
        <time>2016-08-22T13:56:58Z</time>
      </trkpt>
      <trkpt lat="44.72922" lon="5.03473">
        <ele>224.12</ele>
        <time>2016-08-22T13:57:00Z</time>
      </trkpt>
      <trkpt lat="44.72916" lon="5.03471">
        <ele>222.68</ele>
        <time>2016-08-22T13:57:01Z</time>
      </trkpt>
      <trkpt lat="44.72913" lon="5.03464">
        <ele>221.72</ele>
        <time>2016-08-22T13:57:02Z</time>
      </trkpt>
      <trkpt lat="44.72913" lon="5.03455">
        <ele>220.28</ele>
        <time>2016-08-22T13:57:03Z</time>
      </trkpt>
      <trkpt lat="44.72914" lon="5.03446">
        <ele>219.32</ele>
        <time>2016-08-22T13:57:04Z</time>
      </trkpt>
      <trkpt lat="44.72917" lon="5.03426">
        <ele>217.88</ele>
        <time>2016-08-22T13:57:06Z</time>
      </trkpt>
      <trkpt lat="44.72916" lon="5.03416">
        <ele>215.95</ele>
        <time>2016-08-22T13:57:07Z</time>
      </trkpt>
      <trkpt lat="44.7291" lon="5.0337">
        <ele>212.59</ele>
        <time>2016-08-22T13:57:11Z</time>
      </trkpt>
      <trkpt lat="44.72903" lon="5.03308">
        <ele>209.22</ele>
        <time>2016-08-22T13:57:16Z</time>
      </trkpt>
      <trkpt lat="44.72902" lon="5.03295">
        <ele>209.22</ele>
        <time>2016-08-22T13:57:17Z</time>
      </trkpt>
      <trkpt lat="44.72901" lon="5.03281">
        <ele>209.22</ele>
        <time>2016-08-22T13:57:18Z</time>
      </trkpt>
      <trkpt lat="44.729" lon="5.03268">
        <ele>207.78</ele>
        <time>2016-08-22T13:57:19Z</time>
      </trkpt>
      <trkpt lat="44.72891" lon="5.03188">
        <ele>205.38</ele>
        <time>2016-08-22T13:57:25Z</time>
      </trkpt>
      <trkpt lat="44.72872" lon="5.03021">
        <ele>202.98</ele>
        <time>2016-08-22T13:57:39Z</time>
      </trkpt>
      <trkpt lat="44.72866" lon="5.02976">
        <ele>201.53</ele>
        <time>2016-08-22T13:57:43Z</time>
      </trkpt>
      <trkpt lat="44.72862" lon="5.02965">
        <ele>201.53</ele>
        <time>2016-08-22T13:57:44Z</time>
      </trkpt>
      <trkpt lat="44.72827" lon="5.029">
        <ele>199.13</ele>
        <time>2016-08-22T13:57:51Z</time>
      </trkpt>
      <trkpt lat="44.72812" lon="5.02877">
        <ele>199.13</ele>
        <time>2016-08-22T13:57:54Z</time>
      </trkpt>
      <trkpt lat="44.7281" lon="5.02869">
        <ele>199.13</ele>
        <time>2016-08-22T13:57:55Z</time>
      </trkpt>
      <trkpt lat="44.7281" lon="5.02862">
        <ele>198.65</ele>
        <time>2016-08-22T13:57:56Z</time>
      </trkpt>
      <trkpt lat="44.72812" lon="5.02857">
        <ele>199.13</ele>
        <time>2016-08-22T13:57:57Z</time>
      </trkpt>
      <trkpt lat="44.72815" lon="5.02853">
        <ele>199.61</ele>
        <time>2016-08-22T13:57:58Z</time>
      </trkpt>
      <trkpt lat="44.72818" lon="5.0285">
        <ele>199.61</ele>
        <time>2016-08-22T13:57:59Z</time>
      </trkpt>
      <trkpt lat="44.72824" lon="5.02843">
        <ele>199.61</ele>
        <time>2016-08-22T13:58:01Z</time>
      </trkpt>
      <trkpt lat="44.72834" lon="5.0283">
        <ele>199.61</ele>
        <time>2016-08-22T13:58:04Z</time>
      </trkpt>
      <trkpt lat="44.72838" lon="5.02826">
        <ele>199.61</ele>
        <time>2016-08-22T13:58:05Z</time>
      </trkpt>
      <trkpt lat="44.72842" lon="5.02822">
        <ele>199.13</ele>
        <time>2016-08-22T13:58:06Z</time>
      </trkpt>
      <trkpt lat="44.72852" lon="5.02815">
        <ele>199.61</ele>
        <time>2016-08-22T13:58:08Z</time>
      </trkpt>
      <trkpt lat="44.72856" lon="5.02811">
        <ele>199.13</ele>
        <time>2016-08-22T13:58:09Z</time>
      </trkpt>
      <trkpt lat="44.72859" lon="5.02806">
        <ele>199.13</ele>
        <time>2016-08-22T13:58:10Z</time>
      </trkpt>
      <trkpt lat="44.72873" lon="5.02786">
        <ele>198.65</ele>
        <time>2016-08-22T13:58:14Z</time>
      </trkpt>
      <trkpt lat="44.72876" lon="5.0278">
        <ele>198.65</ele>
        <time>2016-08-22T13:58:15Z</time>
      </trkpt>
      <trkpt lat="44.72898" lon="5.02733">
        <ele>198.65</ele>
        <time>2016-08-22T13:58:23Z</time>
      </trkpt>
      <trkpt lat="44.72902" lon="5.02721">
        <ele>198.65</ele>
        <time>2016-08-22T13:58:25Z</time>
      </trkpt>
      <trkpt lat="44.72903" lon="5.02715">
        <ele>198.65</ele>
        <time>2016-08-22T13:58:26Z</time>
      </trkpt>
      <trkpt lat="44.72902" lon="5.0266">
        <ele>199.13</ele>
        <time>2016-08-22T13:58:37Z</time>
      </trkpt>
      <trkpt lat="44.729" lon="5.02605">
        <ele>198.65</ele>
        <time>2016-08-22T13:58:48Z</time>
      </trkpt>
      <trkpt lat="44.72899" lon="5.02597">
        <ele>199.13</ele>
        <time>2016-08-22T13:58:50Z</time>
      </trkpt>
      <trkpt lat="44.72895" lon="5.02535">
        <ele>199.61</ele>
        <time>2016-08-22T13:59:02Z</time>
      </trkpt>
      <trkpt lat="44.72886" lon="5.02479">
        <ele>197.21</ele>
        <time>2016-08-22T13:59:12Z</time>
      </trkpt>
      <trkpt lat="44.72879" lon="5.02461">
        <ele>197.21</ele>
        <time>2016-08-22T13:59:15Z</time>
      </trkpt>
      <trkpt lat="44.72876" lon="5.02455">
        <ele>196.73</ele>
        <time>2016-08-22T13:59:16Z</time>
      </trkpt>
      <trkpt lat="44.72871" lon="5.02444">
        <ele>196.73</ele>
        <time>2016-08-22T13:59:18Z</time>
      </trkpt>
      <trkpt lat="44.72868" lon="5.02439">
        <ele>196.25</ele>
        <time>2016-08-22T13:59:19Z</time>
      </trkpt>
      <trkpt lat="44.72859" lon="5.02423">
        <ele>197.21</ele>
        <time>2016-08-22T13:59:22Z</time>
      </trkpt>
      <trkpt lat="44.72856" lon="5.02418">
        <ele>197.21</ele>
        <time>2016-08-22T13:59:23Z</time>
      </trkpt>
      <trkpt lat="44.72854" lon="5.02412">
        <ele>197.21</ele>
        <time>2016-08-22T13:59:24Z</time>
      </trkpt>
      <trkpt lat="44.72852" lon="5.02407">
        <ele>197.21</ele>
        <time>2016-08-22T13:59:25Z</time>
      </trkpt>
      <trkpt lat="44.72849" lon="5.02402">
        <ele>197.21</ele>
        <time>2016-08-22T13:59:26Z</time>
      </trkpt>
      <trkpt lat="44.72848" lon="5.02396">
        <ele>197.21</ele>
        <time>2016-08-22T13:59:27Z</time>
      </trkpt>
      <trkpt lat="44.72846" lon="5.0239">
        <ele>197.69</ele>
        <time>2016-08-22T13:59:28Z</time>
      </trkpt>
      <trkpt lat="44.72842" lon="5.02377">
        <ele>197.21</ele>
        <time>2016-08-22T13:59:30Z</time>
      </trkpt>
      <trkpt lat="44.7284" lon="5.02371">
        <ele>197.21</ele>
        <time>2016-08-22T13:59:31Z</time>
      </trkpt>
      <trkpt lat="44.72838" lon="5.02366">
        <ele>197.69</ele>
        <time>2016-08-22T13:59:32Z</time>
      </trkpt>
      <trkpt lat="44.72838" lon="5.0236">
        <ele>197.69</ele>
        <time>2016-08-22T13:59:33Z</time>
      </trkpt>
      <trkpt lat="44.72837" lon="5.02355">
        <ele>197.69</ele>
        <time>2016-08-22T13:59:34Z</time>
      </trkpt>
      <trkpt lat="44.72834" lon="5.02288">
        <ele>198.65</ele>
        <time>2016-08-22T13:59:47Z</time>
      </trkpt>
      <trkpt lat="44.72837" lon="5.02247">
        <ele>197.69</ele>
        <time>2016-08-22T13:59:56Z</time>
      </trkpt>
      <trkpt lat="44.72839" lon="5.02237">
        <ele>196.73</ele>
        <time>2016-08-22T13:59:58Z</time>
      </trkpt>
      <trkpt lat="44.72851" lon="5.02204">
        <ele>198.65</ele>
        <time>2016-08-22T14:00:07Z</time>
      </trkpt>
      <trkpt lat="44.72849" lon="5.02204">
        <ele>198.65</ele>
        <time>2016-08-22T14:00:09Z</time>
      </trkpt>
      <trkpt lat="44.72832" lon="5.02201">
        <ele>196.25</ele>
        <time>2016-08-22T14:00:16Z</time>
      </trkpt>
      <trkpt lat="44.72828" lon="5.02201">
        <ele>196.25</ele>
        <time>2016-08-22T14:00:17Z</time>
      </trkpt>
      <trkpt lat="44.72824" lon="5.02202">
        <ele>194.8</ele>
        <time>2016-08-22T14:00:18Z</time>
      </trkpt>
      <trkpt lat="44.7282" lon="5.02201">
        <ele>194.32</ele>
        <time>2016-08-22T14:00:19Z</time>
      </trkpt>
      <trkpt lat="44.72816" lon="5.022">
        <ele>193.84</ele>
        <time>2016-08-22T14:00:20Z</time>
      </trkpt>
      <trkpt lat="44.72812" lon="5.02199">
        <ele>194.32</ele>
        <time>2016-08-22T14:00:21Z</time>
      </trkpt>
      <trkpt lat="44.72808" lon="5.02197">
        <ele>194.32</ele>
        <time>2016-08-22T14:00:22Z</time>
      </trkpt>
      <trkpt lat="44.728" lon="5.02193">
        <ele>193.84</ele>
        <time>2016-08-22T14:00:25Z</time>
      </trkpt>
      <trkpt lat="44.728" lon="5.0219">
        <ele>193.84</ele>
        <time>2016-08-22T14:00:26Z</time>
      </trkpt>
      <trkpt lat="44.72801" lon="5.02187">
        <ele>194.32</ele>
        <time>2016-08-22T14:00:28Z</time>
      </trkpt>
      <trkpt lat="44.72801" lon="5.02185">
        <ele>193.84</ele>
        <time>2016-08-22T14:00:29Z</time>
      </trkpt>
      <trkpt lat="44.72797" lon="5.0218">
        <ele>195.77</ele>
        <time>2016-08-22T14:00:41Z</time>
      </trkpt>
      <trkpt lat="44.72797" lon="5.02179">
        <ele>191.92</ele>
        <time>2016-08-22T14:00:46Z</time>
      </trkpt>
      <trkpt lat="44.72797" lon="5.02179">
        <ele>194.32</ele>
        <time>2016-08-22T14:00:47Z</time>
      </trkpt>
      <trkpt lat="44.72791" lon="5.02177">
        <ele>195.77</ele>
        <time>2016-08-22T14:20:47Z</time>
      </trkpt>
      <trkpt lat="44.72797" lon="5.02179">
        <ele>195.28</ele>
        <time>2016-08-22T14:20:49Z</time>
      </trkpt>
      <trkpt lat="44.72832" lon="5.02193">
        <ele>197.21</ele>
        <time>2016-08-22T14:20:59Z</time>
      </trkpt>
      <trkpt lat="44.72849" lon="5.02181">
        <ele>198.65</ele>
        <time>2016-08-22T14:21:03Z</time>
      </trkpt>
      <trkpt lat="44.72853" lon="5.02177">
        <ele>198.17</ele>
        <time>2016-08-22T14:21:04Z</time>
      </trkpt>
      <trkpt lat="44.7288" lon="5.02145">
        <ele>198.65</ele>
        <time>2016-08-22T14:21:15Z</time>
      </trkpt>
      <trkpt lat="44.72897" lon="5.02112">
        <ele>195.28</ele>
        <time>2016-08-22T14:21:24Z</time>
      </trkpt>
      <trkpt lat="44.72903" lon="5.02103">
        <ele>195.28</ele>
        <time>2016-08-22T14:21:26Z</time>
      </trkpt>
      <trkpt lat="44.72916" lon="5.02069">
        <ele>194.32</ele>
        <time>2016-08-22T14:21:32Z</time>
      </trkpt>
      <trkpt lat="44.72921" lon="5.02037">
        <ele>193.84</ele>
        <time>2016-08-22T14:21:36Z</time>
      </trkpt>
      <trkpt lat="44.72969" lon="5.0195">
        <ele>191.44</ele>
        <time>2016-08-22T14:21:50Z</time>
      </trkpt>
      <trkpt lat="44.72972" lon="5.01944">
        <ele>192.88</ele>
        <time>2016-08-22T14:21:51Z</time>
      </trkpt>
      <trkpt lat="44.72977" lon="5.0193">
        <ele>193.84</ele>
        <time>2016-08-22T14:21:53Z</time>
      </trkpt>
      <trkpt lat="44.72994" lon="5.01903">
        <ele>193.36</ele>
        <time>2016-08-22T14:21:58Z</time>
      </trkpt>
      <trkpt lat="44.72998" lon="5.01898">
        <ele>193.36</ele>
        <time>2016-08-22T14:21:59Z</time>
      </trkpt>
      <trkpt lat="44.73011" lon="5.01879">
        <ele>193.36</ele>
        <time>2016-08-22T14:22:03Z</time>
      </trkpt>
      <trkpt lat="44.73013" lon="5.01874">
        <ele>194.32</ele>
        <time>2016-08-22T14:22:04Z</time>
      </trkpt>
      <trkpt lat="44.73016" lon="5.01869">
        <ele>195.77</ele>
        <time>2016-08-22T14:22:05Z</time>
      </trkpt>
      <trkpt lat="44.7302" lon="5.01863">
        <ele>195.28</ele>
        <time>2016-08-22T14:22:06Z</time>
      </trkpt>
      <trkpt lat="44.73023" lon="5.01857">
        <ele>195.28</ele>
        <time>2016-08-22T14:22:07Z</time>
      </trkpt>
      <trkpt lat="44.73046" lon="5.01821">
        <ele>192.88</ele>
        <time>2016-08-22T14:22:13Z</time>
      </trkpt>
      <trkpt lat="44.73075" lon="5.01782">
        <ele>191.44</ele>
        <time>2016-08-22T14:22:20Z</time>
      </trkpt>
      <trkpt lat="44.73091" lon="5.0176">
        <ele>191.92</ele>
        <time>2016-08-22T14:22:24Z</time>
      </trkpt>
      <trkpt lat="44.73097" lon="5.01748">
        <ele>191.92</ele>
        <time>2016-08-22T14:22:26Z</time>
      </trkpt>
      <trkpt lat="44.731" lon="5.01742">
        <ele>192.4</ele>
        <time>2016-08-22T14:22:27Z</time>
      </trkpt>
      <trkpt lat="44.73104" lon="5.01736">
        <ele>191.92</ele>
        <time>2016-08-22T14:22:28Z</time>
      </trkpt>
      <trkpt lat="44.73137" lon="5.01681">
        <ele>191.44</ele>
        <time>2016-08-22T14:22:38Z</time>
      </trkpt>
      <trkpt lat="44.7314" lon="5.01675">
        <ele>191.44</ele>
        <time>2016-08-22T14:22:39Z</time>
      </trkpt>
      <trkpt lat="44.73143" lon="5.0167">
        <ele>191.92</ele>
        <time>2016-08-22T14:22:40Z</time>
      </trkpt>
      <trkpt lat="44.73147" lon="5.01664">
        <ele>191.44</ele>
        <time>2016-08-22T14:22:41Z</time>
      </trkpt>
      <trkpt lat="44.7315" lon="5.01659">
        <ele>191.44</ele>
        <time>2016-08-22T14:22:42Z</time>
      </trkpt>
      <trkpt lat="44.73153" lon="5.01653">
        <ele>191.44</ele>
        <time>2016-08-22T14:22:43Z</time>
      </trkpt>
      <trkpt lat="44.73159" lon="5.01642">
        <ele>191.92</ele>
        <time>2016-08-22T14:22:45Z</time>
      </trkpt>
      <trkpt lat="44.73162" lon="5.01637">
        <ele>191.44</ele>
        <time>2016-08-22T14:22:46Z</time>
      </trkpt>
      <trkpt lat="44.73166" lon="5.01631">
        <ele>191.92</ele>
        <time>2016-08-22T14:22:47Z</time>
      </trkpt>
      <trkpt lat="44.73178" lon="5.01608">
        <ele>191.92</ele>
        <time>2016-08-22T14:22:51Z</time>
      </trkpt>
      <trkpt lat="44.73185" lon="5.01597">
        <ele>191.92</ele>
        <time>2016-08-22T14:22:53Z</time>
      </trkpt>
      <trkpt lat="44.73191" lon="5.01586">
        <ele>190.96</ele>
        <time>2016-08-22T14:22:55Z</time>
      </trkpt>
      <trkpt lat="44.73233" lon="5.01524">
        <ele>193.36</ele>
        <time>2016-08-22T14:23:08Z</time>
      </trkpt>
      <trkpt lat="44.73279" lon="5.01448">
        <ele>194.32</ele>
        <time>2016-08-22T14:23:23Z</time>
      </trkpt>
      <trkpt lat="44.73328" lon="5.01353">
        <ele>193.36</ele>
        <time>2016-08-22T14:23:39Z</time>
      </trkpt>
      <trkpt lat="44.7333" lon="5.01347">
        <ele>193.84</ele>
        <time>2016-08-22T14:23:40Z</time>
      </trkpt>
      <trkpt lat="44.73333" lon="5.01342">
        <ele>194.32</ele>
        <time>2016-08-22T14:23:41Z</time>
      </trkpt>
      <trkpt lat="44.73336" lon="5.01336">
        <ele>194.32</ele>
        <time>2016-08-22T14:23:42Z</time>
      </trkpt>
      <trkpt lat="44.73339" lon="5.01331">
        <ele>194.32</ele>
        <time>2016-08-22T14:23:43Z</time>
      </trkpt>
      <trkpt lat="44.73342" lon="5.01325">
        <ele>195.28</ele>
        <time>2016-08-22T14:23:44Z</time>
      </trkpt>
      <trkpt lat="44.73345" lon="5.0132">
        <ele>195.77</ele>
        <time>2016-08-22T14:23:45Z</time>
      </trkpt>
      <trkpt lat="44.73348" lon="5.01314">
        <ele>195.28</ele>
        <time>2016-08-22T14:23:46Z</time>
      </trkpt>
      <trkpt lat="44.73361" lon="5.01287">
        <ele>194.8</ele>
        <time>2016-08-22T14:23:51Z</time>
      </trkpt>
      <trkpt lat="44.73367" lon="5.01277">
        <ele>194.32</ele>
        <time>2016-08-22T14:23:53Z</time>
      </trkpt>
      <trkpt lat="44.73387" lon="5.01238">
        <ele>194.8</ele>
        <time>2016-08-22T14:24:02Z</time>
      </trkpt>
      <trkpt lat="44.7339" lon="5.01234">
        <ele>194.8</ele>
        <time>2016-08-22T14:24:03Z</time>
      </trkpt>
      <trkpt lat="44.73393" lon="5.01229">
        <ele>194.8</ele>
        <time>2016-08-22T14:24:04Z</time>
      </trkpt>
      <trkpt lat="44.73398" lon="5.01219">
        <ele>195.28</ele>
        <time>2016-08-22T14:24:06Z</time>
      </trkpt>
      <trkpt lat="44.73427" lon="5.01163">
        <ele>194.32</ele>
        <time>2016-08-22T14:24:16Z</time>
      </trkpt>
      <trkpt lat="44.73436" lon="5.01145">
        <ele>192.88</ele>
        <time>2016-08-22T14:24:19Z</time>
      </trkpt>
      <trkpt lat="44.7344" lon="5.0114">
        <ele>192.4</ele>
        <time>2016-08-22T14:24:20Z</time>
      </trkpt>
      <trkpt lat="44.73444" lon="5.01138">
        <ele>192.88</ele>
        <time>2016-08-22T14:24:21Z</time>
      </trkpt>
      <trkpt lat="44.73447" lon="5.01137">
        <ele>192.4</ele>
        <time>2016-08-22T14:24:22Z</time>
      </trkpt>
      <trkpt lat="44.73449" lon="5.01137">
        <ele>193.84</ele>
        <time>2016-08-22T14:24:23Z</time>
      </trkpt>
      <trkpt lat="44.73451" lon="5.01136">
        <ele>192.88</ele>
        <time>2016-08-22T14:24:24Z</time>
      </trkpt>
      <trkpt lat="44.73453" lon="5.01135">
        <ele>192.4</ele>
        <time>2016-08-22T14:24:25Z</time>
      </trkpt>
      <trkpt lat="44.73456" lon="5.01135">
        <ele>192.88</ele>
        <time>2016-08-22T14:24:26Z</time>
      </trkpt>
      <trkpt lat="44.73459" lon="5.01136">
        <ele>192.4</ele>
        <time>2016-08-22T14:24:27Z</time>
      </trkpt>
      <trkpt lat="44.73462" lon="5.01136">
        <ele>191.92</ele>
        <time>2016-08-22T14:24:28Z</time>
      </trkpt>
      <trkpt lat="44.73465" lon="5.01134">
        <ele>192.4</ele>
        <time>2016-08-22T14:24:29Z</time>
      </trkpt>
      <trkpt lat="44.73468" lon="5.0113">
        <ele>191.92</ele>
        <time>2016-08-22T14:24:30Z</time>
      </trkpt>
      <trkpt lat="44.73468" lon="5.01126">
        <ele>192.4</ele>
        <time>2016-08-22T14:24:31Z</time>
      </trkpt>
      <trkpt lat="44.73468" lon="5.01121">
        <ele>191.44</ele>
        <time>2016-08-22T14:24:32Z</time>
      </trkpt>
      <trkpt lat="44.73467" lon="5.01117">
        <ele>192.4</ele>
        <time>2016-08-22T14:24:33Z</time>
      </trkpt>
      <trkpt lat="44.73466" lon="5.01115">
        <ele>192.88</ele>
        <time>2016-08-22T14:24:34Z</time>
      </trkpt>
      <trkpt lat="44.73466" lon="5.01114">
        <ele>194.32</ele>
        <time>2016-08-22T14:24:36Z</time>
      </trkpt>
    </trkseg>
  </trk>
</gpx>